Date StartTime U_cm/s V_cm/s W_cm/s Ustd_cm/s Vstd_cm/s Wstd_cm/s Uvar_(cm/s)^2 Vvar_(cm/s)^2 Wvar_(cm/s)^2 KE_(m/s)^2 TurbulentKE_(m/s)^2 HorizWindSpeed_cm/s FrictionSpeec_cm/s DragCoef SpeedOfSound_m/s SonicTemperature_C Pressure_mb 
07/20/2014  00:00:00     -111.437     -195.623       -2.035       54.036       65.759       35.438     2919.918     4324.270     1255.870        2.959        0.425      225.137       26.103        0.013      347.724       26.896      861.702
07/20/2014  00:01:00      -71.720     -156.370      -12.080       30.439       62.481       22.395      926.556     3903.851      501.539        1.754        0.267      172.033       11.770        0.005      347.765       26.971      861.674
07/20/2014  00:02:00     -104.001      -59.157        0.445       57.142       49.886       32.523     3265.225     2488.614     1057.743        1.056        0.341      119.649       29.909        0.062      347.686       26.835      861.684
07/20/2014  00:03:00      -81.852      -97.187       -2.877       52.723       39.429       24.616     2779.667     1554.639      605.944        1.055        0.247      127.063       25.554        0.040      347.681       26.829      861.699
07/20/2014  00:04:00       -3.125     -111.817        5.922       32.182       41.701       29.896     1035.670     1738.935      893.777        0.811        0.183      111.861       22.378        0.040      347.711       26.877      861.692
07/20/2014  00:05:00      -63.588      -79.272       -2.299       80.405       60.505       25.094     6464.993     3660.834      629.706        1.054        0.538      101.624       25.460        0.063      347.772       26.984      861.690
07/20/2014  00:06:00       15.111     -121.247       -0.741       67.807       52.180       27.680     4597.787     2722.753      766.165        1.151        0.404      122.185       25.520        0.044      347.721       26.895      861.688
07/20/2014  00:07:00       77.461      -41.905        7.142       58.217       70.515       46.367     3389.175     4972.420     2149.882        0.916        0.526       88.069       51.846        0.347      347.616       26.713      861.678
07/20/2014  00:08:00       28.462      -54.169       22.236       36.984       74.136       49.775     1367.852     5496.101     2477.569        0.679        0.467       61.191       58.606        0.917      347.538       26.581      861.682
07/20/2014  00:09:00       26.960      -35.249       29.859       38.027       77.343       38.005     1446.038     5981.892     1444.412        0.586        0.444       44.377       41.156        0.860      347.573       26.641      861.682
07/20/2014  00:10:00       12.797      -59.213       33.535       43.223       54.118       47.050     1868.267     2928.726     2213.717        0.590        0.351       60.580       38.634        0.407      347.605       26.696      861.681
07/20/2014  00:11:00       46.024       -5.564       47.209       61.884       78.402       47.417     3829.625     6146.922     2248.357        0.830        0.611       46.359       53.301        1.322      347.500       26.513      861.682
07/20/2014  00:12:00       61.072       -4.094       36.383       45.157       84.533       51.326     2039.132     7145.807     2634.369        0.844        0.591       61.209       61.249        1.001      347.595       26.677      861.687
07/20/2014  00:13:00      -66.272      -65.927       -0.545       61.663       32.431       27.332     3802.369     1051.802      747.060        0.717        0.280       93.479       30.536        0.107      347.651       26.774      861.687
07/20/2014  00:14:00       -2.371       -5.781       28.612       14.506       20.331       14.306      210.433      413.337      204.676        0.084        0.041        6.248        8.990        2.070      347.384       26.313      861.689
07/20/2014  00:15:00       -1.052      -45.234       -1.439       19.606       21.497       14.936      384.404      462.110      223.094        0.156        0.053       45.246       12.223        0.073      347.463       26.450      861.692
07/20/2014  00:16:00       30.818      -60.315       -4.668       30.092       26.695       18.068      905.552      712.612      326.440        0.328        0.097       67.732       15.460        0.052      347.551       26.603      861.690
07/20/2014  00:17:00        5.387       -4.498       -1.658       13.554       15.282        8.565      183.704      233.549       73.351        0.027        0.025        7.018        4.136        0.347      347.506       26.527      861.695
07/20/2014  00:18:00       13.911       14.420        6.534       11.606        9.874       11.713      134.695       97.490      137.197        0.041        0.018       20.036        3.945        0.039      347.404       26.349      861.697
07/20/2014  00:19:00       29.261       10.417        4.907       24.054        7.116        8.799      578.612       50.635       77.421        0.085        0.035       31.060        4.754        0.023      347.476       26.473      861.691
07/20/2014  00:20:00       43.759        8.370        3.808       26.751       14.570       17.847      715.603      212.274      318.531        0.162        0.062       44.552       10.289        0.053      347.328       26.217      861.673
07/20/2014  00:21:00       40.272       10.948       -8.469       14.353       16.620       10.217      206.007      276.212      104.385        0.120        0.029       41.733        8.142        0.038      347.303       26.174      861.663
07/20/2014  00:22:00       72.754      -16.874       21.962       32.674       39.584       25.902     1067.564     1566.861      670.934        0.468        0.165       74.685       24.605        0.109      347.184       25.970      861.657
07/20/2014  00:23:00       73.320       41.313       20.184       25.665       17.192       20.804      658.694      295.562      432.816        0.444        0.069       84.158       11.018        0.017      347.345       26.247      861.634
07/20/2014  00:24:00      -19.282      -11.014        1.606       32.473       29.405       27.334     1054.466      864.632      747.130        0.158        0.133       22.206       12.735        0.329      347.405       26.349      861.648
07/20/2014  00:25:00       -5.767        6.508       17.397       19.168       12.233       16.536      367.406      149.641      273.433        0.058        0.040        8.695        9.652        1.232      347.378       26.305      861.635
07/20/2014  00:26:00       -3.135       -1.158       15.457       10.515       18.729        6.397      110.559      350.771       40.919        0.038        0.025        3.342        7.242        4.696      347.389       26.322      861.624
07/20/2014  00:27:00       20.978       33.892       -6.457       16.083       14.819       21.462      258.660      219.596      460.636        0.128        0.047       39.859       14.691        0.136      347.477       26.475      861.616
07/20/2014  00:28:00       16.159      -10.153        3.283       11.739       13.552       10.738      137.810      183.656      115.312        0.041        0.022       19.083        5.256        0.076      347.594       26.678      861.602
07/20/2014  00:29:00        9.380       -6.732        0.956       17.925       17.410       13.150      321.316      303.109      172.924        0.047        0.040       11.546       10.547        0.835      347.341       26.239      861.590
07/20/2014  00:30:00       29.615      -31.757       -2.362       17.848       14.648       14.445      318.550      214.558      208.664        0.132        0.037       43.423        9.612        0.049      347.303       26.174      861.578
07/20/2014  00:31:00       33.566       -9.056        0.728       20.730       18.282       19.253      429.738      334.216      370.697        0.117        0.057       34.766       18.225        0.275      347.081       25.790      861.561
07/20/2014  00:32:00       15.503       24.145       27.039       14.676       13.283       10.473      215.386      176.445      109.674        0.103        0.025       28.694        6.118        0.045      347.090       25.807      861.547
07/20/2014  00:33:00       31.863        9.428       11.646       11.048       15.812       13.962      122.051      250.033      194.951        0.090        0.028       33.229       10.738        0.104      347.176       25.955      861.535
07/20/2014  00:34:00       40.604       -4.039        1.567       12.923       10.179       14.027      167.007      103.605      196.769        0.107        0.023       40.804        4.773        0.014      347.296       26.162      861.531
07/20/2014  00:35:00       27.539       -9.829       17.193       13.497       11.303       11.796      182.167      127.757      139.135        0.080        0.022       29.240        8.853        0.092      347.336       26.230      861.523
07/20/2014  00:36:00        6.357       -9.205        6.619       10.841       15.857        7.329      117.538      251.442       53.716        0.030        0.021       11.187        8.360        0.558      347.382       26.312      861.517
07/20/2014  00:37:00       11.737       -0.042        7.197        9.143        9.132       11.545       83.586       83.391      133.286        0.024        0.015       11.737        5.360        0.209      347.229       26.048      861.506
07/20/2014  00:38:00       16.156        4.852       -0.551       13.364       13.617       13.006      178.587      185.431      169.161        0.041        0.027       16.869        9.600        0.324      347.198       25.994      861.490
07/20/2014  00:39:00       20.948      -26.731       -1.015       19.114       17.688       16.205      365.344      312.867      262.589        0.105        0.047       33.962        4.458        0.017      347.323       26.208      861.472
07/20/2014  00:40:00      -15.371      -17.166        8.225       30.985       33.171       16.859      960.069     1100.297      284.220        0.147        0.117       23.043       16.783        0.530      347.545       26.590      861.450
07/20/2014  00:41:00      -24.491      -82.545       -0.730       24.341       16.658        8.623      592.465      277.481       74.351        0.418        0.047       86.101        5.464        0.004      347.725       26.904      861.438
07/20/2014  00:42:00      -17.321      -25.699        9.884       29.173       19.407       17.248      851.037      376.622      297.511        0.129        0.076       30.991        9.966        0.103      347.635       26.747      861.425
07/20/2014  00:43:00      -24.777      -53.870       -3.367       21.309       23.781       16.413      454.067      565.517      269.385        0.241        0.064       59.295       14.537        0.060      347.607       26.699      861.413
07/20/2014  00:44:00      -20.666      -43.522        2.860       18.907       19.117       10.247      357.468      365.472      104.997        0.158        0.041       48.179       10.299        0.046      347.524       26.555      861.407
07/20/2014  00:45:00      -71.342      -95.473       -3.932       41.059       41.151       18.534     1685.830     1693.385      343.506        0.897        0.186      119.184       19.602        0.027      347.622       26.725      861.392
07/20/2014  00:46:00      -62.135      -54.686        8.237       34.878       36.261       21.271     1216.480     1314.877      452.467        0.495        0.149       82.772       23.072        0.078      347.530       26.565      861.389
07/20/2014  00:47:00     -117.763      -68.959       -3.748       44.870       25.079       20.653     2013.359      628.955      426.558        1.085        0.153      136.468       15.468        0.013      347.593       26.673      861.372
07/20/2014  00:48:00      -77.349      -87.230       -3.695       34.751       31.882       18.073     1207.615     1016.476      326.647        0.808        0.128      116.584       18.101        0.024      347.555       26.609      861.351
07/20/2014  00:49:00      -81.540      -45.242        5.934       40.515       43.206       18.630     1641.473     1866.747      347.073        0.629        0.193       93.251       12.951        0.019      347.548       26.596      861.333
07/20/2014  00:50:00      -81.364      -71.170       -8.929       38.082       28.660       16.029     1450.221      821.402      256.927        0.715        0.126      108.099        5.972        0.003      347.644       26.763      861.312
07/20/2014  00:51:00      -97.527      -61.533        3.294       69.490       37.543       26.361     4828.844     1409.452      694.900        1.012        0.347      115.316       31.234        0.073      347.601       26.689      861.297
07/20/2014  00:52:00      -75.035      -79.079        9.983       62.214       50.081       34.058     3870.572     2508.081     1159.958        0.976        0.377      109.013       35.246        0.105      347.641       26.757      861.280
07/20/2014  00:53:00      -74.688      -73.016       -4.173       32.742       40.109       22.348     1072.059     1608.758      499.424        0.705        0.159      104.449       18.987        0.033      347.616       26.713      861.269
07/20/2014  00:54:00     -137.674      -92.124       -6.784       46.822       42.582       23.678     2192.257     1813.247      560.660        1.603        0.228      165.653       18.590        0.013      347.629       26.736      861.264
07/20/2014  00:55:00      -89.907      -66.952       -3.832       34.831       33.071       22.767     1213.197     1093.716      518.320        0.770        0.141      112.097       18.255        0.027      347.647       26.768      861.256
07/20/2014  00:56:00      -89.167      -37.994        2.278       44.793       39.880       24.706     2006.406     1590.424      610.362        0.680        0.210       96.924       26.278        0.074      347.574       26.640      861.243
07/20/2014  00:57:00      -82.784      -71.521        0.196       66.995       57.457       27.576     4488.366     3301.294      760.436        1.026        0.428      109.400       29.739        0.074      347.686       26.835      861.251
07/20/2014  00:58:00      -76.320     -119.281        5.880       58.043       65.220       31.362     3368.962     4253.618      983.599        1.435        0.430      141.608       31.795        0.050      347.575       26.645      861.232
07/20/2014  00:59:00      -86.531     -173.176       -1.498       53.114       50.519       26.984     2821.104     2552.214      728.129        2.179        0.305      193.591       26.348        0.019      347.634       26.743      861.221
07/20/2014  01:00:00      -44.753      -87.257        5.423       51.843       55.394       36.438     2687.682     3068.483     1327.712        0.836        0.354       98.065       22.797        0.054      347.602       26.689      861.202
07/20/2014  01:01:00      -76.229      -87.005        9.195       70.307       57.221       29.656     4943.039     3274.251      879.474        1.128        0.455      115.675       31.106        0.072      347.624       26.727      861.190
07/20/2014  01:02:00      -63.001      -47.061        9.742       47.333       37.590       25.463     2240.382     1413.006      648.356        0.529        0.215       78.638       22.180        0.080      347.525       26.557      861.188
07/20/2014  01:03:00      -81.071      -34.117        4.392       52.367       33.620       22.570     2742.259     1130.333      509.389        0.607        0.219       87.957       21.891        0.062      347.536       26.577      861.177
07/20/2014  01:04:00     -101.136      -52.502        5.236       41.941       28.997       23.499     1759.086      840.851      552.219        0.808        0.158      113.952       13.839        0.015      347.535       26.575      861.172
07/20/2014  01:05:00      -63.777      -19.270       -5.954       41.456       26.900       23.275     1718.570      723.617      541.714        0.373        0.149       66.625       14.542        0.048      347.539       26.581      861.165
07/20/2014  01:06:00     -102.759        6.918        4.743       42.819       38.461       24.843     1833.495     1479.218      617.181        0.728        0.196      102.991       21.193        0.042      347.573       26.639      861.167
07/20/2014  01:07:00      -71.295      -41.448        9.715       66.560       31.346       21.550     4430.182      982.599      464.390        0.639        0.294       82.467       31.213        0.143      347.515       26.540      861.167
07/20/2014  01:08:00     -136.017      -67.762       -5.091       37.422       31.949       25.027     1400.420     1020.742      626.373        1.308        0.152      151.961       21.256        0.020      347.571       26.639      861.169
07/20/2014  01:09:00     -111.368      -47.427        4.533       46.473       34.327       19.853     2159.760     1178.311      394.132        0.920        0.187      121.046       18.800        0.024      347.546       26.596      861.180
07/20/2014  01:10:00      -84.925       -3.808        3.010       37.616       31.093       21.233     1414.961      966.774      450.858        0.503        0.142       85.011       19.888        0.055      347.507       26.526      861.172
07/20/2014  01:11:00      -50.571       -9.052        8.459       48.956       48.996       32.350     2396.682     2400.588     1046.492        0.428        0.292       51.375       35.950        0.490      347.478       26.477      861.165
07/20/2014  01:12:00      -55.929      -45.024        4.065       48.875       31.904       22.347     2388.727     1017.864      499.401        0.454        0.195       71.800       22.562        0.099      347.620       26.721      861.156
07/20/2014  01:13:00     -111.021      -77.445       -6.816       46.618       39.702       23.280     2173.259     1576.275      541.973        1.133        0.215      135.364       22.015        0.026      347.625       26.730      861.150
07/20/2014  01:14:00      -54.676      -90.436        0.052       42.675       45.193       24.885     1821.189     2042.427      619.278        0.782        0.224      105.679       15.748        0.022      347.622       26.724      861.142
07/20/2014  01:15:00      -73.240     -105.121        0.265       58.834       70.656       29.286     3461.470     4992.315      857.652        1.286        0.466      128.119       37.463        0.086      347.631       26.740      861.146
07/20/2014  01:16:00     -125.721      -98.915      -10.658       55.064       58.689       31.150     3032.051     3444.350      970.315        1.657        0.372      159.969       21.382        0.018      347.725       26.902      861.147
07/20/2014  01:17:00      -70.462      -86.232        0.945       56.591       57.646       30.509     3202.566     3323.073      930.778        0.993        0.373      111.359       28.791        0.067      347.668       26.805      861.150
07/20/2014  01:18:00      -74.839      -75.362       -0.129       53.023       51.614       29.429     2811.390     2664.026      866.078        0.881        0.317      106.209       36.914        0.121      347.652       26.778      861.156
07/20/2014  01:19:00      -40.678      -86.244        1.390       33.012       43.071       15.757     1089.807     1855.140      248.284        0.614        0.160       95.356       17.459        0.034      347.572       26.640      861.164
07/20/2014  01:20:00      -44.506      -82.122       -0.058       24.789       35.176       17.336      614.493     1237.378      300.534        0.544        0.108       93.407       16.760        0.032      347.502       26.518      861.169
07/20/2014  01:21:00      -33.909      -64.941        7.985       29.341       55.944       23.018      860.915     3129.697      529.810        0.497        0.226       73.261       14.902        0.041      347.454       26.434      861.171
07/20/2014  01:22:00      -31.748      -57.223       -0.782       31.706       34.670       22.290     1005.250     1201.979      496.866        0.349        0.135       65.441       17.370        0.070      347.445       26.416      861.184
07/20/2014  01:23:00      -58.824      -40.705       -2.404       36.567       39.116       19.594     1337.114     1530.037      383.923        0.419        0.163       71.534       14.600        0.042      347.405       26.351      861.197
07/20/2014  01:24:00      -29.301      -15.288        8.730       38.339       23.512       18.754     1469.899      552.810      351.711        0.177        0.119       33.050       20.835        0.397      347.385       26.315      861.200
07/20/2014  01:25:00      -31.135       -6.318       -4.438       25.684       18.488       10.939      659.693      341.804      119.667        0.107        0.056       31.770        8.856        0.078      347.371       26.292      861.193
07/20/2014  01:26:00      -61.671      -35.113       -5.756       35.251       18.470       12.025     1242.617      341.143      144.605        0.340        0.086       70.967       11.358        0.026      347.358       26.266      861.192
07/20/2014  01:27:00      -42.198      -36.158        0.466       23.675       27.130       15.723      560.516      736.061      247.209        0.232        0.077       55.571       14.217        0.065      347.353       26.261      861.180
07/20/2014  01:28:00      -42.099      -28.624       -2.508       34.979       25.424       13.019     1223.556      646.379      169.485        0.232        0.102       50.909        6.017        0.014      347.378       26.305      861.163
07/20/2014  01:29:00       -4.450       -0.708       10.802       29.309       50.789       30.463      859.001     2579.567      928.010        0.225        0.218        4.506       23.812       27.924      347.385       26.317      861.146
07/20/2014  01:30:00       15.453       22.825       13.487       22.749       25.029       15.783      517.515      626.439      249.119        0.117        0.070       27.564       12.894        0.219      347.146       25.903      861.131
07/20/2014  01:31:00       35.600        6.163        2.443       16.436       15.304       15.161      270.158      234.210      229.852        0.102        0.037       36.129        7.745        0.046      347.245       26.073      861.120
07/20/2014  01:32:00       22.576       23.411        0.167       15.407       11.560       12.359      237.365      133.629      152.733        0.079        0.026       32.523        7.193        0.049      347.273       26.125      861.125
07/20/2014  01:33:00       34.711       42.767       13.066       26.759       16.789       16.114      716.028      281.865      259.674        0.223        0.063       55.080        9.449        0.029      347.227       26.044      861.121
07/20/2014  01:34:00       88.605       88.241       12.574       27.997       16.584       20.524      783.843      275.017      421.247        0.864        0.074      125.049        9.379        0.006      347.252       26.087      861.106
07/20/2014  01:35:00       88.150       58.840       18.864       25.881       18.220       19.312      669.817      331.954      372.967        0.648        0.069      105.984       12.688        0.014      347.233       26.053      861.102
07/20/2014  01:36:00       67.292       49.872       20.444       31.090       18.007       17.659      966.601      324.239      311.841        0.452        0.080       83.758        9.691        0.013      347.275       26.125      861.112
07/20/2014  01:37:00       72.353       41.361       14.291       17.356       14.322       18.498      301.223      205.123      342.173        0.400        0.042       83.341        8.787        0.011      347.186       25.974      861.105
07/20/2014  01:38:00       32.464       -4.894        1.019       29.943       22.419       18.086      896.566      502.617      327.096        0.140        0.086       32.831       17.476        0.283      347.078       25.788      861.106
07/20/2014  01:39:00       26.186      -52.686       -2.251       35.013       11.884       20.520     1225.895      141.232      421.085        0.263        0.089       58.834       24.029        0.167      347.297       26.163      861.097
07/20/2014  01:40:00      -51.549      -17.787       13.076       45.497       46.830       26.465     2070.010     2193.072      700.395        0.405        0.248       54.531       30.537        0.314      347.416       26.372      861.083
07/20/2014  01:41:00      -70.705       -8.013        0.558       34.619       30.157       19.800     1198.507      909.419      392.046        0.378        0.125       71.157       18.520        0.068      347.458       26.443      861.063
07/20/2014  01:42:00      -57.889       14.880        2.789       29.713       16.324       11.082      882.853      266.484      122.822        0.243        0.064       59.771       11.511        0.037      347.332       26.225      861.054
07/20/2014  01:43:00      -43.542       17.794       -0.164       13.289       14.433        9.429      176.602      208.303       88.898        0.134        0.024       47.038        6.822        0.021      347.431       26.394      861.038
07/20/2014  01:44:00      -26.361       26.411       -3.386       14.308       10.162        7.434      204.710      103.257       55.268        0.088        0.018       37.315        6.253        0.028      347.311       26.188      861.024
07/20/2014  01:45:00      -43.737       77.276       -7.397       22.601       32.021       14.664      510.813     1025.323      215.031        0.484        0.088       88.795       13.533        0.023      347.391       26.326      861.011
07/20/2014  01:46:00      -40.810      104.466      -14.935       27.438       29.974       17.151      752.838      898.458      294.157        0.737        0.097      112.154       15.299        0.019      347.456       26.438      861.000
07/20/2014  01:47:00       -7.038       50.266       -4.275       26.395       24.607       15.191      696.693      605.484      230.775        0.206        0.077       50.757       13.601        0.072      347.405       26.351      860.975
07/20/2014  01:48:00      -26.856       23.623       -6.171       21.463       29.389       17.297      460.675      863.722      299.182        0.147        0.081       35.767       13.943        0.152      347.405       26.350      860.957
07/20/2014  01:49:00      -74.256       18.019      -17.218       30.862       29.577       17.220      952.463      874.785      296.535        0.413        0.106       76.411       17.596        0.053      347.373       26.295      860.959
07/20/2014  01:50:00      -54.623      -36.289       -1.690       41.705       27.042       21.710     1739.305      731.247      471.311        0.362        0.147       65.579       12.014        0.034      347.357       26.268      860.951
07/20/2014  01:51:00     -134.371      -51.557      -16.810       49.163       34.450       35.791     2416.989     1186.796     1280.972        1.294        0.244      143.923       18.325        0.016      347.450       26.427      860.939
07/20/2014  01:52:00      -86.080      -42.035       -9.211       72.945       50.973       29.367     5320.969     2598.251      862.409        0.902        0.439       95.795       19.169        0.040      347.414       26.365      860.913
07/20/2014  01:53:00      -90.223      -35.632       10.030       70.168       49.103       34.181     4923.616     2411.112     1168.312        0.901        0.425       97.004       38.067        0.154      347.419       26.373      860.902
07/20/2014  01:54:00      -57.700      -15.124       -2.563       44.863       43.239       23.416     2012.725     1869.598      548.294        0.400        0.222       59.650       20.239        0.115      347.377       26.302      860.908
07/20/2014  01:55:00     -117.189      -48.277       -2.466       35.602       43.178       23.399     1267.515     1864.380      547.511        0.987        0.184      126.744       18.540        0.021      347.272       26.121      860.908
07/20/2014  01:56:00     -145.567      -55.713       -7.453       39.145       25.247       21.427     1532.349      637.420      459.131        1.349        0.131      155.865       16.191        0.011      347.361       26.274      860.897
07/20/2014  01:57:00     -120.746      -24.115       -0.069       43.429       36.868       23.316     1886.052     1359.215      543.656        0.947        0.189      123.131       24.148        0.038      347.401       26.343      860.888
07/20/2014  01:58:00      -43.901      -19.843        5.256       43.923       42.494       18.233     1929.215     1805.711      332.442        0.321        0.203       48.177       23.572        0.239      347.325       26.212      860.881
07/20/2014  01:59:00      -37.936        0.383        6.170       37.257       37.222       21.919     1388.076     1385.513      480.435        0.237        0.163       37.938       23.026        0.368      347.254       26.091      860.877
07/20/2014  02:00:00     -111.459      -56.198       -8.457       39.858       52.185       20.459     1588.689     2723.257      418.579        1.019        0.237      124.825       21.033        0.028      347.503       26.519      860.878
07/20/2014  02:01:00     -142.049      -89.136       -7.777       41.826       54.707       31.668     1749.442     2992.835     1002.845        1.696        0.287      167.700       23.131        0.019      347.420       26.375      860.860
07/20/2014  02:02:00     -118.408      -29.720       -5.101       54.902       42.156       21.768     3014.214     1777.125      473.831        1.010        0.263      122.081       17.770        0.021      347.424       26.383      860.863
07/20/2014  02:03:00      -37.288      -16.040       -0.537       42.084       18.681       20.452     1771.102      348.994      418.301        0.209        0.127       40.592       18.784        0.214      347.313       26.194      860.848
07/20/2014  02:04:00      -50.395       -6.838       -0.698       35.631       25.521       13.551     1269.584      651.335      183.622        0.235        0.105       50.856       13.512        0.071      347.317       26.199      860.844
07/20/2014  02:05:00      -80.614      -26.854        4.413       28.855       34.562       19.609      832.598     1194.561      384.494        0.482        0.121       84.969        8.574        0.010      347.264       26.106      860.845
07/20/2014  02:06:00      -90.068       16.248        1.444       32.769       27.133       17.365     1073.776      736.209      301.554        0.524        0.106       91.521       12.230        0.018      347.239       26.065      860.844
07/20/2014  02:07:00      -55.137       58.830      -29.098       26.650       50.339       18.580      710.249     2533.995      345.231        0.547        0.179       80.629       20.523        0.065      347.199       25.994      860.835
07/20/2014  02:08:00      -13.889       -6.651       -4.116       23.442       37.302       11.120      549.541     1391.405      123.664        0.116        0.103       15.399       17.112        1.235      347.153       25.917      860.847
07/20/2014  02:09:00      -41.611      -16.874        2.459       20.610       23.448       14.402      424.755      549.805      207.415        0.160        0.059       44.902       13.051        0.084      347.188       25.978      860.857
07/20/2014  02:10:00      -76.756       42.291      -22.807       31.754       38.548       26.657     1008.327     1485.931      710.570        0.570        0.160       87.635       21.199        0.059      347.190       25.978      860.862
07/20/2014  02:11:00       -8.452      -32.442       -2.710       18.864       24.635       16.580      355.865      606.879      274.892        0.118        0.062       33.525       15.485        0.213      346.992       25.640      860.860
07/20/2014  02:12:00       -7.409      -13.350       12.596       12.729       17.128       10.082      162.030      293.362      101.654        0.047        0.028       15.268        6.943        0.207      346.869       25.427      860.855
07/20/2014  02:13:00       -7.360       26.756       47.181        9.363       34.466       16.648       87.668     1187.938      277.141        0.227        0.078       27.750       20.947        0.570      346.793       25.296      860.851
07/20/2014  02:14:00       -1.874       55.496       64.378       14.364       23.050       16.524      206.337      531.301      273.035        0.412        0.051       55.528       11.618        0.044      346.707       25.148      860.845
07/20/2014  02:15:00       13.099       33.600       38.208       20.282       26.714       19.811      411.375      713.642      392.464        0.214        0.076       36.063       11.641        0.104      346.667       25.079      860.851
07/20/2014  02:16:00       57.420       33.637       28.636       29.820       25.792       23.764      889.225      665.238      564.731        0.368        0.106       66.547       19.950        0.090      346.813       25.331      860.848
07/20/2014  02:17:00       38.994       14.713       31.877       27.160       22.226       20.142      737.659      493.987      405.683        0.219        0.082       41.677       15.991        0.147      346.865       25.420      860.834
07/20/2014  02:18:00       28.772       27.005       30.123       19.595       18.256       18.007      383.953      333.290      324.252        0.175        0.052       39.461       11.093        0.079      346.789       25.290      860.811
07/20/2014  02:19:00       12.462       17.306        5.467       18.184       16.644       11.672      330.666      277.028      136.237        0.061        0.037       21.326        8.844        0.172      346.900       25.480      860.796
07/20/2014  02:20:00      -41.757       22.906       -6.185       23.586       20.098       11.783      556.303      403.930      138.839        0.170        0.055       47.627        9.496        0.040      346.935       25.539      860.772
07/20/2014  02:21:00      -69.006       -4.467      -10.644        8.817        6.611        5.770       77.745       43.704       33.298        0.252        0.008       69.150        3.458        0.003      346.785       25.280      860.758
07/20/2014  02:22:00      -23.271       19.062       -3.082       14.978       15.479        7.761      224.333      239.612       60.228        0.072        0.026       30.081        2.722        0.008      346.793       25.297      860.742
07/20/2014  02:23:00      -11.791       33.332       -6.652        8.663        9.748        4.711       75.054       95.020       22.189        0.074        0.010       35.356        3.503        0.010      346.969       25.598      860.724
07/20/2014  02:24:00      -16.791       13.770       -3.521        7.118        7.408        3.136       50.664       54.878        9.834        0.030        0.006       21.715        2.486        0.013      346.986       25.626      860.702
07/20/2014  02:25:00      -10.897       -2.553        1.395       11.288        4.418        6.815      127.417       19.521       46.448        0.016        0.010       11.192        2.891        0.067      347.012       25.674      860.686
07/20/2014  02:26:00       -9.264      -29.530        4.385       26.847       15.749       18.545      720.748      248.044      343.899        0.114        0.066       30.949       20.381        0.434      346.931       25.535      860.686
07/20/2014  02:27:00       26.073      -21.213       11.146       13.747       15.698       21.371      188.978      246.418      456.730        0.107        0.045       33.613        9.513        0.080      346.829       25.359      860.693
07/20/2014  02:28:00       11.236      -28.639      -14.302       10.364       10.597       11.564      107.408      112.293      133.726        0.075        0.018       30.764        6.513        0.045      346.679       25.100      860.698
07/20/2014  02:29:00       -8.989      -45.313       -3.426       21.334       17.144       12.708      455.133      293.931      161.485        0.153        0.046       46.196        6.792        0.022      346.843       25.381      860.694
07/20/2014  02:30:00      -49.000      -50.230        2.675       32.251       26.053       17.459     1040.149      678.757      304.831        0.348        0.101       70.172       14.066        0.040      346.712       25.155      860.692
07/20/2014  02:31:00      -74.172     -110.107       -6.745       35.785       31.162       23.566     1280.561      971.059      555.335        1.024        0.140      132.759       23.418        0.031      346.984       25.624      860.680
07/20/2014  02:32:00      -75.390      -90.472       -1.254       35.499       40.204       22.970     1260.183     1616.400      527.613        0.864        0.170      117.766       19.857        0.028      346.942       25.552      860.686
07/20/2014  02:33:00      -48.978      -55.378       -5.639       27.264       33.140       16.130      743.335     1098.274      260.191        0.380        0.105       73.929       12.773        0.030      346.912       25.503      860.701
07/20/2014  02:34:00      -21.863      -40.040       -2.948       17.897       24.928       14.605      320.314      621.380      213.310        0.162        0.058       45.621       10.256        0.051      346.995       25.644      860.677
07/20/2014  02:35:00      -52.278        3.608       -4.837       21.992       13.642        8.804      483.661      186.114       77.512        0.176        0.037       52.402       11.038        0.044      346.868       25.425      860.661
07/20/2014  02:36:00       -3.676       -2.719        5.172       10.669        5.191        7.071      113.836       26.941       50.000        0.012        0.010        4.572        4.021        0.773      346.678       25.098      860.633
07/20/2014  02:37:00      -25.901        7.109       -4.645       19.699       16.367        4.785      388.041      267.887       22.899        0.071        0.034       26.859        4.269        0.025      346.738       25.202      860.621
07/20/2014  02:38:00      -47.851       42.403      -16.027       18.782       27.328       11.613      352.759      746.816      134.870        0.279        0.062       63.935       10.279        0.026      346.675       25.094      860.625
07/20/2014  02:39:00      -20.742      -18.998       -4.067       18.664       29.858        8.435      348.350      891.510       71.155        0.106        0.066       28.128        9.196        0.107      346.921       25.517      860.622
07/20/2014  02:40:00       -6.327      -47.363        9.244        9.257        7.763        7.799       85.689       60.265       60.822        0.129        0.010       47.784        4.753        0.010      347.117       25.854      860.624
07/20/2014  02:41:00      -37.935       -3.593       -2.256       15.777       18.307       12.447      248.919      335.164      154.927        0.110        0.037       38.105       12.652        0.110      346.590       24.946      860.639
07/20/2014  02:42:00      -25.262      -12.425       -0.936       14.679       11.799        8.182      215.481      139.212       66.947        0.061        0.021       28.152        8.873        0.099      346.472       24.743      860.666
07/20/2014  02:43:00       -4.739      -46.832       -0.818        8.471       10.357        9.349       71.751      107.266       87.399        0.124        0.013       47.072        7.309        0.024      346.708       25.150      860.689
07/20/2014  02:44:00        4.389      -63.374        7.159       11.659       12.888       11.055      135.936      166.110      122.213        0.226        0.021       63.526        6.007        0.009      346.874       25.437      860.716
07/20/2014  02:45:00        1.248      -28.299        1.085       14.509       21.314       12.393      210.498      454.270      153.592        0.081        0.041       28.327        7.894        0.078      346.769       25.257      860.741
07/20/2014  02:46:00        5.055        9.319       10.330       13.331       10.051       12.170      177.722      101.019      148.113        0.032        0.021       10.602        5.588        0.278      346.439       24.685      860.761
07/20/2014  02:47:00       20.360       30.329       30.315       22.192       14.131       14.854      492.473      199.697      220.639        0.158        0.046       36.529       13.608        0.139      346.337       24.514      860.783
07/20/2014  02:48:00       62.365       27.203       13.978       21.018       14.607       19.255      441.752      213.350      370.770        0.293        0.051       68.040        9.763        0.021      346.439       24.688      860.806
07/20/2014  02:49:00       53.290       12.316       11.556       46.655       31.956       26.043     2176.730     1021.160      678.237        0.350        0.194       54.694       15.615        0.082      346.527       24.839      860.830
07/20/2014  02:50:00       91.950       30.879       19.218       55.017       34.821       23.544     3026.908     1212.486      554.334        0.728        0.240       96.996       22.404        0.053      346.521       24.828      860.843
07/20/2014  02:51:00       66.762       56.231        1.139       45.550       30.069       22.741     2074.779      904.163      517.133        0.556        0.175       87.288       15.371        0.031      346.374       24.577      860.852
07/20/2014  02:52:00       54.672       52.412       -4.992       32.056       39.314       21.028     1027.607     1545.612      442.191        0.439        0.151       75.737       21.859        0.083      346.279       24.413      860.859
07/20/2014  02:53:00      -14.796      147.372      -25.631       79.792       73.340       30.176     6366.688     5378.806      910.601        1.762        0.633      148.113       36.210        0.060      346.458       24.718      860.865
07/20/2014  02:54:00      -47.935      101.787       -6.076       51.673       61.865       29.510     2670.097     3827.245      870.812        1.003        0.368      112.509       32.896        0.085      346.627       25.009      860.864
07/20/2014  02:55:00      -69.690      202.468      -25.441       68.590      113.406       40.505     4704.533    12860.860     1640.660        3.285        0.960      214.126       51.904        0.059      346.522       24.828      860.853
07/20/2014  02:56:00      -36.600      167.515      -18.385       33.296       47.389       21.347     1108.642     2245.717      455.705        1.677        0.191      171.467       18.338        0.011      346.499       24.789      860.836
07/20/2014  02:57:00        1.350       61.685       -4.954       23.615       27.741       20.173      557.676      769.554      406.943        0.278        0.087       61.699       13.581        0.048      346.435       24.680      860.808
07/20/2014  02:58:00       -4.646        8.101        4.512       23.325        8.748       10.023      544.068       76.519      100.469        0.041        0.036        9.338        8.105        0.753      346.357       24.546      860.787
07/20/2014  02:59:00      -11.764       14.365        2.671       14.317        8.504        6.498      204.976       72.319       42.224        0.034        0.016       18.568        7.284        0.154      346.458       24.718      860.787
07/20/2014  03:00:00       17.334       17.107       -0.757       12.607       15.377       15.031      158.945      236.464      225.929        0.061        0.031       24.354       12.466        0.262      346.480       24.754      860.777
07/20/2014  03:01:00        8.911        7.566        0.870       19.999       12.729       12.173      399.971      162.032      148.188        0.042        0.036       11.689        7.439        0.405      346.387       24.598      860.772
07/20/2014  03:02:00       35.020       -9.865       20.397       39.304       38.789       24.233     1544.803     1504.621      587.215        0.269        0.182       36.383       15.864        0.190      346.398       24.616      860.777
07/20/2014  03:03:00       -0.999       42.804       28.030       27.755       41.736       20.529      770.326     1741.907      421.426        0.278        0.147       42.815       16.040        0.140      346.399       24.619      860.780
07/20/2014  03:04:00       15.736      -26.431       -3.052       12.692       13.967       14.382      161.076      195.088      206.850        0.076        0.028       30.761        9.674        0.099      346.407       24.631      860.787
07/20/2014  03:05:00       19.675       16.865       20.604       24.376       17.311       20.474      594.211      299.667      419.171        0.120        0.066       25.914       20.753        0.641      346.188       24.255      860.792
07/20/2014  03:06:00       38.377       25.844       24.684       19.401       21.621       21.863      376.383      467.471      477.999        0.204        0.066       46.268       17.841        0.149      346.287       24.426      860.788
07/20/2014  03:07:00       58.298       39.412       43.990       50.689       34.837       26.842     2569.403     1213.650      720.470        0.569        0.225       70.370       30.667        0.190      346.301       24.450      860.790
07/20/2014  03:08:00       70.333       46.129       30.698       34.068       33.147       37.260     1160.643     1098.738     1388.286        0.583        0.182       84.111       23.607        0.079      346.342       24.521      860.800
07/20/2014  03:09:00       54.207       95.824      -10.013       40.929       65.207       25.797     1675.219     4252.017      665.475        0.941        0.330      110.094       23.061        0.044      346.436       24.681      860.795
07/20/2014  03:10:00       19.002      104.160      -13.638       28.049       35.246       18.447      786.759     1242.310      340.281        0.688        0.118      105.879       17.732        0.028      346.473       24.746      860.775
07/20/2014  03:11:00       52.809       24.640       22.665       25.673       23.342       22.734      659.086      544.869      516.823        0.281        0.086       58.274       12.382        0.045      346.449       24.706      860.759
07/20/2014  03:12:00       47.710       39.849       12.433       26.431       26.087       19.042      698.620      680.517      362.605        0.288        0.087       62.163       13.674        0.048      346.391       24.605      860.757
07/20/2014  03:13:00       57.361       63.604       -2.117       39.565       31.294       20.857     1565.416      979.315      435.030        0.516        0.149       85.649       19.684        0.053      346.292       24.434      860.745
07/20/2014  03:14:00      -56.940      -35.508       -0.914       59.238       33.715       26.230     3509.199     1136.691      687.995        0.492        0.267       67.104       19.740        0.087      346.281       24.414      860.719
07/20/2014  03:15:00      -40.563      -12.215        6.348       34.752       31.135       27.941     1207.680      969.366      780.718        0.240        0.148       42.362       20.384        0.232      346.267       24.391      860.706
07/20/2014  03:16:00     -100.236      -40.369       -3.026       41.988       36.044       20.204     1762.996     1299.200      408.221        0.758        0.174      108.060       18.453        0.029      346.283       24.417      860.692
07/20/2014  03:17:00     -159.873      -14.152       -7.279       49.468       43.403       24.898     2447.097     1883.800      619.928        1.538        0.248      160.498       24.371        0.023      346.295       24.440      860.668
07/20/2014  03:18:00     -150.023       18.674       -9.236       61.600       49.254       30.034     3794.550     2425.961      902.054        1.503        0.356      151.181       26.174        0.030      346.204       24.282      860.661
07/20/2014  03:19:00     -142.271        8.474      -15.400       50.354       43.650       20.883     2535.524     1905.300      436.118        1.271        0.244      142.523       20.033        0.020      346.183       24.245      860.647
07/20/2014  03:20:00      -74.932       31.910        1.514       24.540       24.065       21.023      602.201      579.103      441.946        0.413        0.081       81.443       13.318        0.027      346.029       23.983      860.644
07/20/2014  03:21:00     -122.073       39.941      -10.214       32.201       29.296       16.440     1036.920      858.260      270.262        0.938        0.108      128.441       11.320        0.008      346.101       24.105      860.647
07/20/2014  03:22:00     -112.041       34.101      -18.670       43.745       48.698       24.878     1913.625     2371.495      618.911        0.948        0.245      117.115       16.452        0.020      346.060       24.035      860.635
07/20/2014  03:23:00     -190.519       -9.091      -25.003       65.361       79.283       34.780     4272.074     6285.830     1209.673        2.438        0.588      190.736       37.139        0.038      346.004       23.936      860.611
07/20/2014  03:24:00     -249.538      -64.090      -16.446       57.718       61.276       28.937     3331.368     3754.790      837.355        3.728        0.396      257.636       29.379        0.013      345.957       23.855      860.574
07/20/2014  03:25:00     -198.509      -68.031       -2.321       72.694       67.564       29.817     5284.411     4564.870      889.066        2.739        0.537      209.843       34.922        0.028      345.895       23.751      860.558
07/20/2014  03:26:00     -228.557      -57.425      -10.754       69.343       63.523       41.718     4808.440     4035.117     1740.425        3.312        0.529      235.661       38.936        0.027      345.746       23.495      860.554
07/20/2014  03:27:00     -278.990      -73.515      -23.443       59.406       61.722       38.661     3529.130     3809.589     1494.636        4.631        0.442      288.513       33.926        0.014      345.588       23.221      860.553
07/20/2014  03:28:00     -154.847      -36.402        4.986       85.865       79.494       45.286     7372.800     6319.344     2050.834        2.053        0.787      159.068       41.382        0.068      345.570       23.193      860.547
07/20/2014  03:29:00     -226.857      -24.031      -17.787       78.081       56.685       33.013     6096.642     3213.134     1089.866        3.138        0.520      228.126       34.412        0.023      345.614       23.264      860.556
07/20/2014  03:30:00     -225.265       -3.088      -17.436       84.946       54.267       38.889     7215.803     2944.952     1512.369        3.136        0.584      225.286       42.711        0.036      345.497       23.066      860.580
07/20/2014  03:31:00     -244.355      -18.578      -23.564       79.414       59.936       37.279     6306.654     3592.318     1389.713        3.595        0.564      245.060       39.256        0.026      345.493       23.058      860.597
07/20/2014  03:32:00     -146.059       34.455      -15.107       66.359       54.240       40.109     4403.534     2942.024     1608.762        1.585        0.448      150.068       39.447        0.069      345.502       23.076      860.612
07/20/2014  03:33:00     -121.729      -16.902      -13.505       40.771       70.165       33.734     1662.248     4923.081     1138.000        1.150        0.386      122.897       19.303        0.025      345.635       23.307      860.630
07/20/2014  03:34:00      -95.845      -36.715       -1.069       46.423       48.367       28.455     2155.107     2339.402      809.681        0.792        0.265      102.636       24.019        0.055      345.657       23.344      860.627
07/20/2014  03:35:00      -80.066      -44.234       -0.273       38.967       44.475       25.604     1518.462     1978.030      655.548        0.626        0.208       91.472       21.803        0.057      345.714       23.441      860.641
07/20/2014  03:36:00      -88.246      -40.005        6.564       45.252       47.096       26.638     2047.734     2218.032      709.574        0.720        0.249       96.891       22.359        0.053      345.630       23.299      860.661
07/20/2014  03:37:00      -70.334      -41.791       -5.626       51.772       41.059       17.795     2680.372     1685.833      316.659        0.570        0.234       81.813       16.223        0.039      345.601       23.250      860.682
07/20/2014  03:38:00      -67.234        5.715        0.330       46.606       37.066       19.519     2172.131     1373.906      380.987        0.424        0.196       67.476       20.052        0.088      345.566       23.187      860.695
07/20/2014  03:39:00     -128.049       24.689       -8.783       20.777       16.011       12.879      431.681      256.347      165.875        0.897        0.043      130.408       11.155        0.007      345.831       23.642      860.681
07/20/2014  03:40:00      -71.509       32.503       -9.707       33.310       20.173       18.062     1109.544      406.945      326.225        0.405        0.092       78.549       13.110        0.028      346.016       23.960      860.654
07/20/2014  03:41:00      -78.870      -32.559       -4.335       20.702       20.683       13.975      428.576      427.806      195.293        0.418        0.053       85.326       11.319        0.018      345.949       23.845      860.647
07/20/2014  03:42:00      -34.679      -24.448       -1.367       13.041       18.934       13.248      170.068      358.485      175.521        0.125        0.035       42.431        4.993        0.014      345.968       23.876      860.640
07/20/2014  03:43:00       -0.718      -42.430        5.960       31.554       19.123       19.649      995.657      365.682      386.073        0.179        0.087       42.436       19.556        0.212      345.909       23.775      860.629
07/20/2014  03:44:00      -16.015      -13.330        1.029       18.554       22.793       13.572      344.262      519.502      184.200        0.074        0.052       20.837        5.113        0.060      345.866       23.703      860.625
07/20/2014  03:45:00      -43.866      -15.054       -8.272       24.193       20.686       14.464      585.284      427.907      209.211        0.172        0.061       46.377       10.423        0.051      345.941       23.833      860.630
07/20/2014  03:46:00      -94.941      -24.925       -2.653       52.015       28.306       17.011     2705.529      801.235      289.384        0.672        0.190       98.158       20.228        0.042      345.835       23.652      860.633
07/20/2014  03:47:00     -108.842      -67.906        1.840       71.811       23.974       17.862     5156.784      574.760      319.068        1.125        0.303      128.288       17.526        0.019      345.760       23.521      860.634
07/20/2014  03:48:00      -20.217      -92.753       -4.627       19.697       38.745       15.149      387.978     1501.192      229.496        0.558        0.106       94.931       16.605        0.031      345.774       23.547      860.630
07/20/2014  03:49:00       -8.033     -164.781       18.435       22.476       25.608       18.347      505.176      655.767      336.626        1.453        0.075      164.977       12.871        0.006      346.059       24.035      860.631
07/20/2014  03:50:00      -52.033      -76.891        6.930       46.831       59.357       31.035     2193.112     3523.275      963.185        0.767        0.334       92.842       29.961        0.104      345.967       23.876      860.632
07/20/2014  03:51:00      -13.941      -32.947        7.494       25.637       27.678       16.159      657.243      766.069      261.117        0.151        0.084       35.775       13.380        0.140      345.849       23.673      860.643
07/20/2014  03:52:00      -61.644      -56.192        2.906       46.864       37.762       22.175     2196.217     1425.987      491.745        0.554        0.206       83.412       20.239        0.059      345.886       23.738      860.662
07/20/2014  03:53:00      -60.490      -56.370        4.329       81.033       47.829       25.079     6566.320     2287.585      628.939        0.817        0.474       82.684       22.543        0.074      345.908       23.774      860.669
07/20/2014  03:54:00     -158.366      -49.093        5.486       83.049       60.313       38.571     6897.164     3637.717     1487.750        1.977        0.601      165.801       40.931        0.061      345.988       23.909      860.693
07/20/2014  03:55:00     -124.052      -61.009        5.097       63.118       52.050       35.742     3983.859     2709.231     1277.512        1.355        0.399      138.243       33.800        0.060      346.067       24.047      860.720
07/20/2014  03:56:00     -126.135      -93.117       10.327       88.802       59.266       42.896     7885.867     3512.450     1840.067        1.896        0.662      156.783       39.626        0.064      346.058       24.030      860.724
07/20/2014  03:57:00     -118.180      -99.146       -6.407       57.182       51.652       33.878     3269.828     2667.916     1147.741        1.546        0.354      154.261       18.959        0.015      346.040       24.001      860.728
07/20/2014  03:58:00     -207.077     -121.779       -4.511      116.853       70.121       44.775    13654.641     4916.987     2004.779        3.915        1.029      240.231       30.236        0.016      346.051       24.018      860.724
07/20/2014  03:59:00     -183.176      -94.660        1.277      104.996       74.024       53.065    11024.234     5479.618     2815.912        3.091        0.966      206.189       63.934        0.096      345.984       23.902      860.728
07/20/2014  04:00:00     -215.264      -95.943        0.243       77.671       67.620       40.825     6032.730     4572.403     1666.700        3.391        0.614      235.677       42.395        0.032      345.941       23.829      860.721
07/20/2014  04:01:00     -192.736     -106.982        7.432      110.899       87.772       52.755    12298.535     7703.957     2783.107        3.571        1.139      220.436       62.284        0.080      346.038       23.995      860.724
07/20/2014  04:02:00     -144.057       21.447      -17.213       53.995       53.002       28.559     2915.473     2809.183      815.611        1.402        0.327      145.645       23.511        0.026      345.929       23.810      860.724
07/20/2014  04:03:00     -107.041       25.105      -15.781       27.850       36.137       17.869      775.627     1305.868      319.294        0.737        0.120      109.946       15.147        0.019      345.818       23.620      860.718
07/20/2014  04:04:00     -129.356      -46.422       10.505      100.138       77.673       48.993    10027.576     6033.147     2400.267        1.873        0.923      137.434       48.225        0.123      345.971       23.883      860.717
07/20/2014  04:05:00     -307.329      -26.568      -24.240      107.535      102.109       46.765    11563.738    10426.303     2186.940        5.996        1.209      308.475       41.466        0.018      346.143       24.174      860.687
07/20/2014  04:06:00     -234.999      -91.864      -11.884       75.279      107.924       47.714     5666.859    11647.547     2276.664        4.169        0.980      252.316       39.246        0.024      346.230       24.325      860.681
07/20/2014  04:07:00     -201.214      -77.439      -13.126       83.749       70.630       39.372     7013.923     4988.588     1550.180        3.010        0.678      215.602       33.010        0.023      346.214       24.299      860.676
07/20/2014  04:08:00     -237.356      -77.524      -15.008      121.976       95.296       53.450    14878.072     9081.246     2856.876        4.469        1.341      249.696       65.094        0.068      346.168       24.219      860.682
07/20/2014  04:09:00     -168.309      -67.025       -9.019      104.757       67.859       43.400    10973.978     4604.798     1883.567        2.518        0.873      181.164       54.651        0.091      346.134       24.161      860.711
07/20/2014  04:10:00     -144.060      -45.235       -0.125       87.540       54.932       37.327     7663.314     3017.504     1393.285        1.743        0.604      150.995       40.172        0.071      346.147       24.183      860.734
07/20/2014  04:11:00     -133.649      -38.061      -11.916       77.235       46.387       26.016     5965.219     2151.721      676.857        1.412        0.440      138.963       18.942        0.019      346.188       24.255      860.736
07/20/2014  04:12:00     -101.841      -45.618       -8.098       65.922       50.792       22.074     4345.763     2579.817      487.249        0.996        0.371      111.591       20.484        0.034      346.115       24.131      860.750
07/20/2014  04:13:00     -195.403      -53.031       -6.376       55.935       52.466       35.142     3128.699     2752.673     1234.983        2.407        0.356      202.471       29.395        0.021      346.084       24.073      860.774
07/20/2014  04:14:00      -61.662      -29.283       15.370       73.252       43.142       37.970     5365.889     1861.228     1441.742        0.678        0.433       68.262       34.091        0.249      345.986       23.909      860.790
07/20/2014  04:15:00     -146.081      -20.484       -0.869       61.585       51.808       33.937     3792.756     2684.101     1151.715        1.469        0.381      147.510       28.990        0.039      346.020       23.967      860.802
07/20/2014  04:16:00     -141.066        6.663       -9.471       39.543       43.530       23.524     1563.665     1894.894      553.386        1.202        0.201      141.224       19.903        0.020      346.015       23.959      860.824
07/20/2014  04:17:00      -48.010       19.023       -2.720       38.725       45.501       16.673     1499.653     2070.341      277.974        0.326        0.192       51.642       14.726        0.081      345.938       23.826      860.854
07/20/2014  04:18:00      -60.718       30.977       -1.585       38.073       30.887       19.867     1449.521      954.029      394.679        0.372        0.140       68.164       19.222        0.080      345.873       23.716      860.879
07/20/2014  04:19:00     -151.961        8.424      -13.540       60.097       48.528       21.955     3611.653     2354.951      482.041        1.490        0.322      152.194       24.576        0.026      345.948       23.845      860.906
07/20/2014  04:20:00      -42.474       12.181       10.931       35.402       38.989       22.629     1253.311     1520.152      512.089        0.268        0.164       44.186       19.883        0.202      345.809       23.605      860.911
07/20/2014  04:21:00      -47.369       10.104       -6.075       25.046       14.459       17.098      627.318      209.061      292.327        0.176        0.056       48.435       10.715        0.049      345.873       23.719      860.909
07/20/2014  04:22:00        7.057       -5.516        5.313       12.876       19.479       13.783      165.793      379.420      189.976        0.042        0.037        8.957       14.148        2.495      345.823       23.628      860.926
07/20/2014  04:23:00      -34.115       40.595       -6.962       24.705       18.732       15.512      610.319      350.877      240.624        0.203        0.060       53.026       17.727        0.112      345.785       23.564      860.942
07/20/2014  04:24:00      -69.877       47.187      -13.952       27.330       26.568       14.897      746.946      705.835      221.911        0.449        0.084       84.317       14.763        0.031      345.778       23.552      860.958
07/20/2014  04:25:00      -55.455       68.165      -15.099       23.914       27.879       20.991      571.891      777.214      440.629        0.487        0.089       87.873       13.249        0.023      345.719       23.450      860.969
07/20/2014  04:26:00     -104.161       45.635      -20.471       64.077       26.841       20.761     4105.845      720.453      431.036        0.930        0.263      113.720       18.686        0.027      345.804       23.597      860.980
07/20/2014  04:27:00     -169.277       39.176      -27.624       36.299       21.255       24.213     1317.626      451.781      586.256        1.665        0.118      173.751       14.107        0.007      345.910       23.779      860.987
07/20/2014  04:28:00     -155.900      -19.617      -12.793       45.115       47.361       26.472     2035.399     2243.103      700.743        1.492        0.249      157.129       26.986        0.029      345.829       23.637      860.998
07/20/2014  04:29:00     -199.384      -72.965       -8.963       59.397       43.906       23.976     3527.980     1927.775      574.829        2.559        0.302      212.316       22.599        0.011      345.773       23.541      861.013
07/20/2014  04:30:00     -110.679      -54.794       -0.187       68.174       43.631       28.425     4647.740     1903.636      808.003        1.130        0.368      123.500       28.321        0.053      345.729       23.468      861.018
07/20/2014  04:31:00     -120.165      -58.604       -4.592       83.942       87.462       46.875     7046.322     7649.551     2197.284        1.739        0.845      133.694       40.677        0.093      345.821       23.625      861.015
07/20/2014  04:32:00     -228.852      -32.398       -8.132       89.087       92.366       49.749     7936.539     8531.429     2474.928        3.621        0.947      231.134       49.946        0.047      346.097       24.095      861.027
07/20/2014  04:33:00     -195.319       67.560      -19.580       94.353       46.799       32.192     8902.399     2190.191     1036.322        2.761        0.606      206.673       39.712        0.037      346.240       24.343      861.047
07/20/2014  04:34:00     -163.309      -81.052        6.750       87.093       96.256       45.135     7585.181     9265.218     2037.157        2.608        0.944      182.316       43.708        0.057      346.096       24.094      861.042
07/20/2014  04:35:00     -182.502      -34.089      -15.701       66.661       54.253       32.010     4443.674     2943.381     1024.626        2.156        0.421      185.659       34.931        0.035      346.056       24.027      861.044
07/20/2014  04:36:00      -52.678      -29.787       14.670       70.636       59.035       35.955     4989.480     3485.072     1292.773        0.682        0.488       60.517       38.012        0.395      345.926       23.807      861.033
07/20/2014  04:37:00      -15.425      -29.003       11.862       55.138       35.368       33.884     3040.195     1250.872     1148.093        0.333        0.272       32.850       33.702        1.053      345.983       23.904      861.029
07/20/2014  04:38:00     -124.529       35.416       -3.101       59.860       41.544       29.938     3583.228     1725.871      896.289        1.149        0.310      129.467       30.881        0.057      345.988       23.914      861.040
07/20/2014  04:39:00      -93.162       20.971       -9.168       81.765       87.294       31.333     6685.536     7620.282      981.730        1.224        0.764       95.493       21.698        0.052      345.926       23.807      861.061
07/20/2014  04:40:00     -164.793      -57.648       -6.978       78.746       59.806       38.830     6200.954     3576.722     1507.745        2.090        0.564      174.586       42.824        0.060      345.841       23.658      861.061
07/20/2014  04:41:00     -197.971      -16.651      -10.813       80.368       71.237       37.573     6458.999     5074.727     1411.750        2.626        0.647      198.670       31.200        0.025      345.893       23.748      861.075
07/20/2014  04:42:00      -51.775       13.623        8.629       53.753       31.551       27.585     2889.408      995.468      760.907        0.379        0.232       53.537       29.624        0.306      345.840       23.658      861.058
07/20/2014  04:43:00     -126.059       44.375      -26.905       35.209       54.322       21.200     1239.668     2950.884      449.424        1.161        0.232      133.642       26.596        0.040      345.896       23.752      861.064
07/20/2014  04:44:00      -68.637        0.232       -8.112       64.084       36.932       24.720     4106.719     1364.002      611.079        0.543        0.304       68.637       30.437        0.197      345.865       23.701      861.082
07/20/2014  04:45:00     -157.123      -51.177       -0.332       81.824       53.681       31.711     6695.236     2881.606     1005.568        1.894        0.529      165.248       37.535        0.052      345.758       23.517      861.082
07/20/2014  04:46:00     -119.043      -46.252        0.056       72.302       46.504       27.805     5227.553     2162.623      773.115        1.224        0.408      127.712       35.823        0.079      345.681       23.385      861.089
07/20/2014  04:47:00     -139.373      -23.619      -19.123       47.835       46.100       26.156     2288.160     2125.252      684.117        1.272        0.255      141.360       13.048        0.009      345.704       23.425      861.086
07/20/2014  04:48:00     -149.546      -57.028      -13.589       57.996       58.886       31.585     3363.523     3467.609      997.635        1.681        0.391      160.051       22.630        0.020      345.721       23.453      861.090
07/20/2014  04:49:00      -94.099       20.784      -20.877       54.088       43.652       21.137     2925.480     1905.515      446.783        0.750        0.264       96.367       25.620        0.071      345.717       23.448      861.085
07/20/2014  04:50:00      -74.477       67.035      -12.896       50.514       81.368       33.351     2551.697     6620.815     1112.304        1.024        0.514      100.202       35.213        0.123      345.671       23.368      861.089
07/20/2014  04:51:00     -124.248      -56.748       -1.409      102.477       67.344       41.924    10501.533     4535.150     1757.616        1.772        0.840      136.594       37.408        0.075      345.664       23.354      861.077
07/20/2014  04:52:00     -235.946      -74.793      -16.895       95.312       52.396       42.693     9084.466     2745.298     1822.721        3.760        0.683      247.517       43.021        0.030      345.680       23.380      861.068
07/20/2014  04:53:00     -179.655      -59.571       -3.833       81.242       59.015       37.906     6600.289     3482.725     1436.888        2.368        0.576      189.274       39.289        0.043      345.641       23.314      861.076
07/20/2014  04:54:00     -100.118      -54.175       -3.703       70.291       72.005       44.159     4940.876     5184.658     1950.027        1.252        0.604      113.835       38.775        0.116      345.688       23.397      861.075
07/20/2014  04:55:00      -87.783       22.984       -2.082       66.487       56.892       31.387     4420.460     3236.645      985.140        0.844        0.432       90.742       36.191        0.159      345.792       23.575      861.081
07/20/2014  04:56:00     -100.932      -27.238       -8.888       74.375       47.818       35.980     5531.684     2286.529     1294.545        1.006        0.456      104.543       29.517        0.080      345.896       23.753      861.103
07/20/2014  04:57:00     -150.312      -55.643       -3.409       71.483       47.249       30.945     5109.784     2232.455      957.566        1.700        0.415      160.281       27.846        0.030      345.854       23.682      861.134
07/20/2014  04:58:00     -121.461      -18.077       -9.719       63.642       54.997       28.771     4050.279     3024.638      827.771        1.154        0.395      122.799       25.937        0.045      345.818       23.622      861.160
07/20/2014  04:59:00      -96.118       -8.588      -15.106       46.449       46.261       21.056     2157.474     2140.038      443.340        0.714        0.237       96.501       16.730        0.030      345.867       23.705      861.183
07/20/2014  05:00:00      -53.379      -43.962        2.473       46.556       36.839       26.893     2167.460     1357.142      723.240        0.452        0.212       69.152       29.303        0.180      345.854       23.682      861.192
07/20/2014  05:01:00     -112.969      -95.916        2.642       53.129       46.990       31.169     2822.689     2208.078      971.509        1.398        0.300      148.195       23.276        0.025      345.771       23.541      861.205
07/20/2014  05:02:00     -119.993      -53.815       -0.768       50.133       34.703       27.419     2513.363     1204.301      751.809        1.088        0.223      131.508       21.554        0.027      345.699       23.418      861.199
07/20/2014  05:03:00      -87.867      -71.928        2.781       54.266       40.508       23.702     2944.813     1640.919      561.772        0.902        0.257      113.553       24.035        0.045      345.652       23.337      861.206
07/20/2014  05:04:00      -87.529      -59.939        3.988       53.449       41.855       24.970     2856.825     1751.881      623.489        0.825        0.262      106.085       33.111        0.097      345.657       23.343      861.220
07/20/2014  05:05:00      -96.740      -57.586       -0.199       30.734       47.142       18.159      944.594     2222.362      329.751        0.809        0.175      112.582       17.161        0.023      345.778       23.549      861.217
07/20/2014  05:06:00      -24.453      -12.000       -1.149       14.596       13.017       11.439      213.036      169.436      130.856        0.063        0.026       27.238        9.991        0.135      345.847       23.671      861.207
07/20/2014  05:07:00      -42.236      -19.276        4.324       27.479       21.321       11.197      755.105      454.576      125.372        0.175        0.067       46.427       11.862        0.065      345.764       23.529      861.211
07/20/2014  05:08:00      -77.030      -35.314        2.750       27.781       21.777       16.103      771.801      474.219      259.310        0.435        0.075       84.739       13.650        0.026      345.728       23.465      861.218
07/20/2014  05:09:00      -87.575      -34.060       -1.694       32.446       27.058       14.817     1052.726      732.149      219.530        0.542        0.100       93.965       10.016        0.011      345.706       23.427      861.224
07/20/2014  05:10:00      -51.014       -8.032        1.270       31.095       27.391       15.769      966.919      750.243      248.669        0.232        0.098       51.643       15.552        0.091      345.675       23.374      861.214
07/20/2014  05:11:00       14.000      -60.940      -11.833       40.634       31.695       23.813     1651.141     1004.544      567.073        0.364        0.161       62.528       28.768        0.212      345.760       23.519      861.209
07/20/2014  05:12:00      -19.048        4.967        8.333       62.995       40.693       30.491     3968.351     1655.960      929.682        0.350        0.328       19.685        9.203        0.219      345.661       23.350      861.211
07/20/2014  05:13:00      -75.716       47.198      -13.811       27.957       29.665       11.370      781.574      879.997      129.277        0.497        0.090       89.223        6.091        0.005      345.693       23.406      861.225
07/20/2014  05:14:00      -78.293       45.984       -7.205       37.818       32.419       26.825     1430.208     1051.005      719.570        0.575        0.160       90.798       25.445        0.079      345.776       23.550      861.228
07/20/2014  05:15:00      -85.130        8.506      -10.555       27.158       33.334       15.561      737.541     1111.183      242.141        0.476        0.105       85.554       12.812        0.022      345.925       23.805      861.228
07/20/2014  05:16:00      -90.180      -58.955       -7.205       37.560       25.687       17.210     1410.741      659.820      296.198        0.701        0.118      107.741       12.538        0.014      345.788       23.569      861.242
07/20/2014  05:17:00      -95.624      -42.865        3.260       42.217       30.156       16.351     1782.303      909.397      267.340        0.697        0.148      104.792       16.820        0.026      345.840       23.658      861.263
07/20/2014  05:18:00      -74.141      -19.424       -1.369       28.579       20.131       12.860      816.731      405.243      165.381        0.363        0.069       76.643       13.871        0.033      345.833       23.646      861.281
07/20/2014  05:19:00      -57.806       -4.191       -0.252       30.879       20.797       14.554      953.524      432.528      211.810        0.248        0.080       57.957       16.077        0.077      345.569       23.195      861.298
07/20/2014  05:20:00      -87.376        3.043       -8.155       21.134       17.686       12.807      446.629      312.806      164.014        0.432        0.046       87.429        8.669        0.010      345.593       23.235      861.311
07/20/2014  05:21:00     -100.027      -22.522       -5.417       25.321       27.933       14.989      641.136      780.245      224.683        0.609        0.082      102.531        6.884        0.005      345.596       23.241      861.328
07/20/2014  05:22:00      -89.510      -34.454       -3.758       26.239       10.949        9.744      688.461      119.876       94.940        0.506        0.045       95.912       12.105        0.016      345.667       23.361      861.338
07/20/2014  05:23:00      -26.568      -28.515       -2.975       15.373       11.212        5.723      236.342      125.720       32.753        0.096        0.020       38.973        6.476        0.028      345.628       23.293      861.333
07/20/2014  05:24:00       -4.236      -36.206        3.697       22.502       16.941       12.499      506.332      286.986      156.215        0.115        0.047       36.453        7.593        0.043      345.713       23.440      861.328
07/20/2014  05:25:00      -38.668      -61.366        1.831       38.523       38.284       17.264     1484.016     1465.687      298.030        0.426        0.162       72.533       13.398        0.034      345.736       23.481      861.329
07/20/2014  05:26:00      -81.177      -67.066       10.287       45.077       38.025       22.074     2031.952     1445.863      487.244        0.758        0.198      105.297       23.489        0.050      345.632       23.300      861.333
07/20/2014  05:27:00     -122.632      -81.432        7.752       51.819       35.716       28.049     2685.180     1275.628      786.764        1.324        0.237      147.206       24.357        0.027      345.572       23.197      861.343
07/20/2014  05:28:00      -95.069      -22.061       -4.201       46.386       39.027       18.454     2151.701     1523.112      340.559        0.678        0.201       97.595       20.315        0.043      345.584       23.219      861.333
07/20/2014  05:29:00     -102.919      -10.925       -6.795       52.787       25.316       17.125     2786.480      640.924      293.260        0.724        0.186      103.497       21.974        0.045      345.583       23.216      861.306
07/20/2014  05:30:00      -28.674       -8.600        5.253       34.148       22.520       14.911     1166.098      507.165      222.323        0.141        0.095       29.936       10.282        0.118      345.411       22.921      861.293
07/20/2014  05:31:00      -26.986      -42.204       -4.895       42.289       23.134       14.660     1788.335      535.171      214.904        0.254        0.127       50.094       13.713        0.075      345.577       23.206      861.267
07/20/2014  05:32:00      -91.003      -44.851       10.666       63.092       45.559       29.352     3980.601     2075.647      861.516        0.866        0.346      101.455       26.348        0.067      345.648       23.327      861.275
07/20/2014  05:33:00     -140.043     -111.936        1.758       72.036       44.264       34.853     5189.226     1959.336     1214.748        2.025        0.418      179.281       31.297        0.030      345.583       23.215      861.293
07/20/2014  05:34:00     -128.617      -44.928        3.973       56.904       52.331       26.496     3238.058     2738.501      702.053        1.263        0.334      136.238       28.535        0.044      345.517       23.104      861.294
07/20/2014  05:35:00      -36.456      -36.049       -0.787       36.500       28.098       19.307     1332.238      789.506      372.747        0.256        0.125       51.270        9.895        0.037      345.628       23.292      861.248
07/20/2014  05:36:00     -125.749      -20.101       -4.271       46.808       32.705       20.022     2190.971     1069.629      400.865        0.995        0.183      127.345       23.871        0.035      345.577       23.206      861.233
07/20/2014  05:37:00     -136.042      -43.692       -4.649       50.436       31.906       23.029     2543.832     1017.969      530.354        1.226        0.205      142.886       22.929        0.026      345.351       22.820      861.245
07/20/2014  05:38:00     -176.813      -69.054        5.578       85.412       47.681       35.414     7295.245     2273.521     1254.118        2.344        0.541      189.819       36.676        0.037      345.627       23.291      861.242
07/20/2014  05:39:00     -122.961      -38.999       -0.737       60.470       75.222       31.648     3656.572     5658.337     1001.601        1.348        0.516      128.998       31.216        0.059      345.568       23.191      861.239
07/20/2014  05:40:00      -61.549       26.917       -0.367       41.590       26.330       23.397     1729.713      693.273      547.418        0.374        0.149       67.178       20.160        0.090      345.467       23.018      861.247
07/20/2014  05:41:00      -65.493       64.626      -12.318       25.425       28.340       19.381      646.443      803.129      375.631        0.522        0.091       92.010       19.572        0.045      345.575       23.203      861.247
07/20/2014  05:42:00     -118.744        8.941      -15.039       42.851       42.349       19.828     1836.238     1793.401      393.135        0.921        0.201      119.080       16.807        0.020      345.940       23.829      861.251
07/20/2014  05:43:00      -40.070      -35.142        0.131       48.938       52.186       26.598     2394.929     2723.379      707.444        0.433        0.291       53.297       28.055        0.277      345.912       23.783      861.260
07/20/2014  05:44:00      -83.773      -45.986        7.322       74.113       55.890       31.433     5492.714     3123.728      988.051        0.939        0.480       95.565       41.420        0.188      345.560       23.177      861.300
07/20/2014  05:45:00      -40.458      -19.047        9.860       57.915       35.561       31.721     3354.157     1264.553     1006.239        0.386        0.281       44.717       32.575        0.531      345.499       23.073      861.322
07/20/2014  05:46:00       -6.833      -38.668        6.638       36.933       32.223       18.197     1364.042     1038.329      331.137        0.216        0.137       39.267       18.934        0.232      345.514       23.098      861.333
07/20/2014  05:47:00      -19.989        4.518       -1.981       24.670       11.646       10.358      608.627      135.620      107.287        0.064        0.043       20.493       10.898        0.283      345.424       22.945      861.354
07/20/2014  05:48:00      -44.112        1.053       -1.484       27.665       12.342        8.174      765.332      152.318       66.819        0.147        0.049       44.125        9.745        0.049      345.361       22.837      861.371
07/20/2014  05:49:00        3.664      -58.270      -13.618       18.032       24.158       12.858      325.139      583.613      165.321        0.233        0.054       58.385       10.754        0.034      345.507       23.084      861.376
07/20/2014  05:50:00       33.584      -46.214       -1.814       22.300       18.286       20.405      497.306      334.365      416.378        0.226        0.062       57.128       14.367        0.063      345.508       23.088      861.394
07/20/2014  05:51:00        4.388      -45.853      -12.110       14.950       19.706       18.827      223.489      388.322      354.437        0.162        0.048       46.063       13.526        0.086      345.449       22.986      861.405
07/20/2014  05:52:00        5.218       12.900       14.022       10.293       27.113       10.831      105.952      735.093      117.312        0.067        0.048       13.916       14.015        1.014      345.353       22.821      861.404
07/20/2014  05:53:00       -4.125      -18.716       -3.675       10.972       19.902       10.361      120.394      396.072      107.357        0.050        0.031       19.165       10.348        0.292      345.336       22.794      861.419
07/20/2014  05:54:00      -16.482      -16.612       -1.285       14.987       15.990        8.634      224.604      255.674       74.539        0.055        0.028       23.401        7.813        0.111      345.422       22.942      861.436
07/20/2014  05:55:00      -25.497      -31.144       -7.486       24.785       22.285       16.492      614.321      496.642      271.974        0.153        0.069       40.250       13.388        0.111      345.428       22.950      861.457
07/20/2014  05:56:00        9.469      -67.862       -5.537       27.731       23.742       11.708      769.013      563.661      137.085        0.310        0.073       68.520        4.588        0.004      345.473       23.027      861.478
07/20/2014  05:57:00      -26.520      -79.995       -1.359       27.575       28.758       13.805      760.392      827.008      190.572        0.444        0.089       84.276       17.872        0.045      345.522       23.110      861.496
07/20/2014  05:58:00      -10.607      -50.763       -0.522       17.640       24.269       14.861      311.167      589.005      220.849        0.191        0.056       51.859        9.328        0.032      345.536       23.137      861.501
07/20/2014  05:59:00      -27.557      -38.985       10.335       10.404       12.172       15.817      108.240      148.152      250.183        0.145        0.025       47.741        4.203        0.008      345.433       22.958      861.510
07/20/2014  06:00:00      -27.199      -33.982        7.020       17.041       15.466       11.987      290.384      239.191      143.680        0.131        0.034       43.527        8.998        0.043      345.540       23.144      861.518
07/20/2014  06:01:00      -17.752      -34.374        2.708       13.605       17.085        8.211      185.099      291.902       67.420        0.102        0.027       38.687        6.596        0.029      345.577       23.208      861.512
07/20/2014  06:02:00      -20.366      -41.099       -2.572       24.290       17.434       17.301      590.013      303.930      299.327        0.165        0.060       45.868       12.606        0.076      345.620       23.279      861.515
07/20/2014  06:03:00       -6.946      -48.908        6.815       14.272       17.343       11.101      203.678      300.770      123.231        0.156        0.031       49.399        7.075        0.021      345.660       23.349      861.507
07/20/2014  06:04:00        0.033      -26.205        4.808       10.139       16.683        9.521      102.804      278.309       90.648        0.059        0.024       26.205        9.996        0.146      345.670       23.364      861.505
07/20/2014  06:05:00        5.203      -23.198       -2.756       12.152       14.493       12.062      147.682      210.049      145.486        0.054        0.025       23.774        9.946        0.175      345.597       23.239      861.512
07/20/2014  06:06:00      -65.153      -33.220       -5.167       22.300       11.316        8.859      497.280      128.062       78.484        0.304        0.035       73.133        4.956        0.005      345.449       22.989      861.531
07/20/2014  06:07:00      -95.236      -80.459       -2.617       53.567       39.763       25.306     2869.418     1581.061      640.370        1.032        0.255      124.674       22.687        0.033      345.256       22.654      861.554
07/20/2014  06:08:00      -89.166      -33.245       10.747       59.204       37.526       28.400     3505.137     1408.177      806.541        0.744        0.286       95.162       29.808        0.098      345.347       22.812      861.579
07/20/2014  06:09:00      -53.525      -35.526        8.286       56.829       31.207       22.923     3229.592      973.904      525.472        0.446        0.236       64.242       27.200        0.179      345.366       22.844      861.581
07/20/2014  06:10:00      -24.259      -17.090       11.515       28.154       24.812       15.913      792.640      615.626      253.238        0.134        0.083       29.674       18.138        0.374      345.473       23.028      861.577
07/20/2014  06:11:00      -37.621       -4.242        6.137       32.114       18.832       19.332     1031.287      354.642      373.744        0.161        0.088       37.859       19.647        0.269      345.435       22.963      861.569
07/20/2014  06:12:00      -57.931      -13.726        0.865       15.199       26.385       11.949      231.002      696.145      142.785        0.231        0.053       59.535        6.751        0.013      345.296       22.725      861.569
07/20/2014  06:13:00      -58.056      -10.737        0.187       26.469       14.133       12.878      700.628      199.742      165.841        0.228        0.053       59.041       13.196        0.050      345.214       22.583      861.574
07/20/2014  06:14:00      -33.756      -11.367       -2.065       19.991       13.211       11.873      399.660      174.541      140.971        0.099        0.036       35.618       10.534        0.087      345.185       22.534      861.581
07/20/2014  06:15:00      -36.134      -15.730       -0.235       12.676       15.810       10.400      160.679      249.955      108.162        0.104        0.026       39.409        9.549        0.059      345.326       22.776      861.580
07/20/2014  06:16:00      -28.798       -9.900        3.794       10.160        8.869       11.197      103.228       78.654      125.378        0.062        0.015       30.452        3.078        0.010      345.330       22.783      861.581
07/20/2014  06:17:00      -44.104      -33.859       -2.583       19.634       17.938       13.889      385.502      321.781      192.915        0.200        0.045       55.602       11.107        0.040      345.326       22.775      861.598
07/20/2014  06:18:00      -33.776      -40.063        0.465       22.242       27.873       17.134      494.719      776.896      293.574        0.216        0.078       52.401       17.258        0.108      345.341       22.805      861.617
07/20/2014  06:19:00      -47.667      -60.233       -8.717       30.420       30.308       12.619      925.375      918.560      159.249        0.399        0.100       76.812       12.618        0.027      345.359       22.831      861.622
07/20/2014  06:20:00      -66.680      -28.694        0.735       23.274       27.426       17.152      541.657      752.208      294.177        0.343        0.079       72.592       15.355        0.045      345.315       22.756      861.631
07/20/2014  06:21:00      -61.447      -38.834        2.481       24.836       28.125       17.005      616.851      790.998      289.154        0.349        0.085       72.690       16.318        0.050      345.305       22.741      861.634
07/20/2014  06:22:00      -56.309       -1.473       -1.440       25.569       13.271       11.887      653.760      176.118      141.305        0.207        0.049       56.328       13.349        0.056      345.223       22.600      861.633
07/20/2014  06:23:00      -68.341      -40.838       -3.865       25.399       18.652       14.724      645.088      347.890      216.808        0.378        0.060       79.613        4.618        0.003      345.361       22.836      861.639
07/20/2014  06:24:00      -29.334      -62.346        1.299       38.278       40.467       15.996     1465.218     1637.563      255.882        0.405        0.168       68.902       23.582        0.117      345.465       23.014      861.641
07/20/2014  06:25:00      -23.850      -96.180        7.046       43.532       32.751       26.408     1894.998     1072.615      697.373        0.677        0.183       99.093       28.492        0.083      345.551       23.162      861.651
07/20/2014  06:26:00      -84.895     -114.120        0.484       48.869       38.752       23.869     2388.153     1501.749      569.716        1.234        0.223      142.234       16.300        0.013      345.446       22.981      861.673
07/20/2014  06:27:00      -56.064      -70.499        7.525       37.869       48.911       28.817     1434.072     2392.297      830.397        0.641        0.233       90.074       20.249        0.051      345.377       22.864      861.693
07/20/2014  06:28:00      -65.137      -86.850        3.026       36.199       37.334       25.115     1310.391     1393.844      630.768        0.756        0.167      108.563       19.945        0.034      345.378       22.866      861.697
07/20/2014  06:29:00      -40.321      -30.862       11.806       24.667       45.061       18.407      608.463     2030.486      338.828        0.285        0.149       50.776       15.686        0.095      345.324       22.773      861.707
07/20/2014  06:30:00      -41.303      -67.111        3.987       39.134       48.503       18.825     1531.438     2352.571      354.383        0.523        0.212       78.802       13.372        0.029      345.312       22.752      861.714
07/20/2014  06:31:00      -50.279      -68.163        5.861       37.213       49.443       19.178     1384.818     2444.574      367.795        0.570        0.210       84.700       21.328        0.063      345.308       22.746      861.716
07/20/2014  06:32:00      -55.284      -96.308       -6.591       19.697       28.237       20.188      387.983      797.323      407.552        0.698        0.080      111.048        8.868        0.006      345.360       22.836      861.728
07/20/2014  06:33:00      -23.188      -51.701        0.856       30.626       25.784       15.529      937.925      664.790      241.152        0.253        0.092       56.663       12.762        0.051      345.367       22.849      861.726
07/20/2014  06:34:00       -4.532        1.310       12.117       17.076       13.219       10.648      291.574      174.751      113.387        0.037        0.029        4.718        8.240        3.051      345.354       22.825      861.715
07/20/2014  06:35:00      -16.368        1.601       10.233       11.060       15.597       10.245      122.321      243.253      104.967        0.042        0.024       16.446       10.213        0.386      345.351       22.819      861.698
07/20/2014  06:36:00      -14.704       12.641        1.201       11.878       12.153       13.610      141.078      147.692      185.231        0.043        0.024       19.391        8.964        0.214      345.309       22.747      861.681
07/20/2014  06:37:00      -13.491       11.743        0.034       10.395        9.948        9.929      108.062       98.957       98.587        0.031        0.015       17.886        8.338        0.217      345.202       22.565      861.680
07/20/2014  06:38:00      -29.926       -5.487       -1.518       20.315       27.804       11.176      412.693      773.061      124.902        0.112        0.066       30.425        7.265        0.057      345.124       22.431      861.674
07/20/2014  06:39:00      -14.386      -31.932        2.836       22.016       16.624       16.286      484.710      276.343      265.219        0.113        0.051       35.023       14.532        0.172      345.203       22.567      861.670
07/20/2014  06:40:00      -38.632      -41.347        4.280       29.919       16.549       17.874      895.164      273.873      319.470        0.235        0.074       56.587       17.957        0.101      345.189       22.541      861.665
07/20/2014  06:41:00      -35.557      -32.052       -5.522       24.111       12.812       10.778      581.353      164.142      116.162        0.159        0.043       47.871       12.056        0.063      345.139       22.454      861.657
07/20/2014  06:42:00      -76.691      -26.250       -9.639       22.061       12.890        8.478      486.672      166.139       71.876        0.369        0.036       81.060        7.473        0.009      345.060       22.322      861.651
07/20/2014  06:43:00      -65.455      -18.417       -4.762       15.036       14.041        8.811      226.085      197.142       77.642        0.257        0.025       67.997        8.113        0.014      345.166       22.503      861.646
07/20/2014  06:44:00      -29.841      -33.094       -3.860       23.507       24.424        8.776      552.571      596.531       77.026        0.161        0.061       44.561        8.298        0.035      345.182       22.530      861.651
07/20/2014  06:45:00       19.245       -9.894       12.790       17.388       24.993       15.469      302.354      624.667      239.303        0.090        0.058       21.640       17.116        0.626      345.247       22.640      861.660
07/20/2014  06:46:00      -43.461      -44.187       -4.485       22.558       37.511       16.805      508.851     1407.088      282.408        0.303        0.110       61.979       15.611        0.063      345.242       22.630      861.676
07/20/2014  06:47:00        3.783      -41.006       13.700       12.451       31.434       11.881      155.035      988.083      141.151        0.158        0.064       41.180        8.480        0.042      345.229       22.608      861.695
07/20/2014  06:48:00      -20.670      -48.573       -2.435        9.741        9.305       10.398       94.889       86.585      108.119        0.154        0.014       52.788        3.442        0.004      345.233       22.616      861.708
07/20/2014  06:49:00       -1.577      -39.005       -3.370       19.140       12.607       14.711      366.349      158.937      216.401        0.114        0.037       39.037       10.626        0.074      345.276       22.690      861.725
07/20/2014  06:50:00      -13.026       -7.252        2.963       17.700       14.343       10.424      313.303      205.725      108.652        0.043        0.031       14.909        4.950        0.110      345.240       22.630      861.747
07/20/2014  06:51:00      -37.076       35.788      -10.377        8.815       13.786        7.525       77.709      190.050       56.621        0.154        0.016       51.531        7.862        0.023      345.098       22.389      861.756
07/20/2014  06:52:00      -55.964       28.286       -5.138       20.007       17.548       13.578      400.267      307.919      184.374        0.243        0.045       62.707        9.255        0.022      344.985       22.193      861.772
07/20/2014  06:53:00      -54.974       39.749       -8.782       20.718       19.259       15.324      429.248      370.902      234.822        0.286        0.052       67.840       13.947        0.042      344.973       22.170      861.777
07/20/2014  06:54:00      -59.143       43.205      -12.240       14.241       21.633        7.777      202.804      467.996       60.480        0.312        0.037       73.243        6.174        0.007      345.015       22.246      861.776
07/20/2014  06:55:00      -56.935       35.560      -10.174       23.579       17.024       14.278      555.967      289.829      203.859        0.283        0.052       67.128       13.918        0.043      345.015       22.245      861.786
07/20/2014  06:56:00      -32.534       58.909       -6.384       15.944       18.348       12.904      254.201      336.643      166.519        0.266        0.038       67.296        8.651        0.017      345.019       22.250      861.801
07/20/2014  06:57:00      -53.287       59.607      -15.353       11.671       14.561       11.679      136.207      212.026      136.399        0.356        0.024       79.953        7.322        0.008      345.033       22.276      861.816
07/20/2014  06:58:00      -30.685       87.408       -8.169       18.060       31.992       12.146      326.179     1023.501      147.524        0.507        0.075       92.638       11.393        0.015      345.035       22.277      861.831
07/20/2014  06:59:00      -23.838      116.841      -15.625       14.819       17.650       11.483      219.603      311.510      131.856        0.756        0.033      119.248        5.679        0.002      345.123       22.429      861.843
07/20/2014  07:00:00      -13.104        9.661       -1.884       15.464       30.910       10.689      239.142      955.407      114.245        0.079        0.065       16.280       15.673        0.927      345.083       22.360      861.858
07/20/2014  07:01:00       -4.905        9.801       -1.554       23.942        9.681       15.712      573.214       93.720      246.857        0.052        0.046       10.960       13.904        1.609      345.120       22.426      861.867
07/20/2014  07:02:00       22.544       38.176       -7.274       18.443       10.553        5.770      340.162      111.373       33.292        0.125        0.024       44.335        2.497        0.003      345.172       22.510      861.857
07/20/2014  07:03:00        7.155       -4.176        3.934       11.250        7.981       10.577      126.564       63.690      111.864        0.019        0.015        8.285        9.225        1.240      345.165       22.500      861.865
07/20/2014  07:04:00      -16.786       12.100       -8.158       17.109       12.176       10.271      292.715      148.253      105.493        0.052        0.027       20.692       11.244        0.295      345.194       22.553      861.871
07/20/2014  07:05:00      -26.109        1.747       -3.907        9.175        9.566        5.118       84.186       91.501       26.192        0.045        0.010       26.168        5.189        0.039      345.234       22.618      861.887
07/20/2014  07:06:00      -15.070      -28.110        1.434       12.866        8.614       10.004      165.522       74.196      100.078        0.068        0.017       31.895        8.219        0.066      345.291       22.716      861.897
07/20/2014  07:07:00      -30.647      -23.295        3.767       42.391       21.874       16.621     1796.963      478.461      276.256        0.202        0.128       38.496       20.199        0.275      345.343       22.807      861.908
07/20/2014  07:08:00     -159.295      -59.545       -0.885       44.349       27.925       22.975     1966.824      779.778      527.856        1.610        0.164      170.060       22.467        0.017      345.341       22.801      861.912
07/20/2014  07:09:00     -141.246        5.932      -10.608       43.615       31.933       20.690     1902.310     1019.720      428.090        1.172        0.168      141.370       20.691        0.021      345.522       23.113      861.902
07/20/2014  07:10:00      -56.091      -47.750       -1.280       42.203       19.515       19.479     1781.114      380.852      379.413        0.398        0.127       73.663       21.242        0.083      345.410       22.921      861.896
07/20/2014  07:11:00      -80.606      -42.464       -4.962       30.353       23.249       17.989      921.292      540.495      323.612        0.505        0.089       91.107       10.558        0.013      345.379       22.868      861.892
07/20/2014  07:12:00      -78.903      -40.839        1.155       41.504       26.143       21.021     1722.565      683.447      441.901        0.537        0.142       88.846       19.784        0.050      345.428       22.952      861.887
07/20/2014  07:13:00      -84.468      -23.402       -2.333       24.007       25.136       14.946      576.330      631.830      223.372        0.456        0.072       87.649       10.274        0.014      345.384       22.874      861.887
07/20/2014  07:14:00      -77.517        1.733        7.453       39.892       38.970       24.374     1591.380     1518.662      594.070        0.489        0.185       77.537       23.113        0.089      345.353       22.823      861.888
07/20/2014  07:15:00      -98.752      -22.814        2.584       44.982       38.432       25.699     2023.375     1477.054      660.415        0.722        0.208      101.353       23.806        0.055      345.395       22.894      861.889
07/20/2014  07:16:00     -104.488      -23.156        2.761       32.368       23.325       16.009     1047.679      544.036      256.303        0.665        0.092      107.023       18.029        0.028      345.399       22.900      861.885
07/20/2014  07:17:00      -69.405      -31.456        3.603       29.009       19.189       12.301      841.536      368.234      151.323        0.359        0.068       76.201       13.942        0.033      345.370       22.851      861.886
07/20/2014  07:18:00      -44.440      -23.099        0.838       27.619       30.180       14.061      762.788      910.842      197.716        0.219        0.094       50.084       15.602        0.097      345.414       22.925      861.886
07/20/2014  07:19:00      -64.634      -48.811       -4.276       31.275       23.697       17.607      978.118      561.553      310.004        0.421        0.092       80.994       14.539        0.032      345.447       22.983      861.890
07/20/2014  07:20:00      -95.047      -19.798       -3.618       21.174       22.107       15.599      448.353      488.719      243.325        0.531        0.059       97.087       12.954        0.018      345.468       23.020      861.895
07/20/2014  07:21:00      -59.644      -28.170       -3.877       34.073       17.143       14.849     1160.943      293.868      220.491        0.302        0.084       65.962       16.508        0.063      345.471       23.026      861.894
07/20/2014  07:22:00      -17.016      -39.873       -0.068       24.375       10.281        8.819      594.159      105.702       77.766        0.133        0.039       43.352        8.095        0.035      345.485       23.048      861.881
07/20/2014  07:23:00        2.225      -24.012       -4.171       20.246       12.650        8.508      409.901      160.018       72.388        0.062        0.032       24.115       10.147        0.177      345.525       23.119      861.859
07/20/2014  07:24:00        1.558      -30.270       -0.077        9.504       13.437        9.869       90.328      180.551       97.388        0.064        0.018       30.310        8.958        0.087      345.559       23.180      861.837
07/20/2014  07:25:00        0.685      -11.680       10.607       13.120       13.418        9.114      172.135      180.039       83.064        0.034        0.022       11.700        4.724        0.163      345.628       23.296      861.828
07/20/2014  07:26:00       -8.554       -3.222        4.699        8.341        7.516        6.724       69.566       56.488       45.209        0.014        0.009        9.141        3.130        0.117      345.625       23.290      861.815
07/20/2014  07:27:00      -41.369        9.734       -3.310       16.562        7.986       10.311      274.316       63.782      106.307        0.113        0.022       42.499        3.521        0.007      345.544       23.151      861.804
07/20/2014  07:28:00      -61.752      -11.145       -9.392        7.516       12.520        8.072       56.494      156.753       65.164        0.215        0.014       62.750        7.632        0.015      345.524       23.114      861.792
07/20/2014  07:29:00      -20.720      -14.565        4.498       21.437       15.679       11.279      459.536      245.828      127.221        0.075        0.042       25.327       15.211        0.361      345.644       23.321      861.793
07/20/2014  07:30:00      -52.040       -9.097       -3.593       18.666       15.830        9.642      348.408      250.591       92.961        0.175        0.035       52.829        8.372        0.025      345.556       23.172      861.794
07/20/2014  07:31:00      -59.981      -24.429       -4.323       10.888       11.049        8.558      118.553      122.071       73.239        0.226        0.016       64.765        5.101        0.006      345.524       23.114      861.793
07/20/2014  07:32:00      -57.440      -22.778       -5.703       10.821        7.967        7.724      117.096       63.475       59.656        0.205        0.012       61.792        6.058        0.010      345.521       23.108      861.781
07/20/2014  07:33:00      -33.704      -13.322       -4.233        9.943       15.741        7.616       98.863      247.784       57.999        0.087        0.020       36.242        9.488        0.069      345.519       23.106      861.777
07/20/2014  07:34:00      -29.104        6.533       -0.782        5.819        5.093        6.512       33.864       25.937       42.408        0.050        0.005       29.828        3.908        0.017      345.531       23.122      861.771
07/20/2014  07:35:00      -41.069       10.994       -4.753       11.344        7.577        6.603      128.697       57.405       43.600        0.103        0.011       42.515        4.644        0.012      345.553       23.164      861.766
07/20/2014  07:36:00      -32.452       14.522       -1.939        7.050        7.535        5.951       49.703       56.777       35.409        0.070        0.007       35.553        2.849        0.006      345.538       23.144      861.763
07/20/2014  07:37:00      -31.372        2.671       -4.005       10.232       12.974        9.490      104.701      168.317       90.069        0.069        0.018       31.485        8.066        0.066      345.598       23.240      861.754
07/20/2014  07:38:00      -36.575      -16.655       -0.617       15.889       11.852        8.761      252.461      140.470       76.760        0.104        0.023       40.189        9.048        0.051      345.630       23.299      861.757
07/20/2014  07:39:00      -16.992      -28.308       -3.890       16.960        8.856        9.035      287.656       78.430       81.631        0.078        0.022       33.016        6.613        0.040      345.668       23.363      861.766
07/20/2014  07:40:00      -16.260      -26.512       -1.758       13.778       13.499        9.346      189.842      182.230       87.350        0.071        0.023       31.101        5.830        0.035      345.697       23.413      861.765
07/20/2014  07:41:00      -21.510      -18.925       -3.888       11.734        8.905        7.409      137.675       79.306       54.887        0.055        0.014       28.650        5.739        0.040      345.708       23.428      861.758
07/20/2014  07:42:00      -14.836      -17.702       -1.288       11.082       11.724        8.131      122.808      137.458       66.106        0.043        0.016       23.097        6.253        0.073      345.709       23.432      861.743
07/20/2014  07:43:00        3.378      -44.126      -12.960       14.848       15.661       11.315      220.453      245.257      128.035        0.136        0.030       44.255        7.820        0.031      345.695       23.409      861.740
07/20/2014  07:44:00      -19.430      -41.036        6.867       24.034       24.977       25.019      577.627      623.867      625.954        0.197        0.091       45.403       19.996        0.194      345.765       23.530      861.737
07/20/2014  07:45:00      -22.982      -12.322        2.733       25.657       16.483       16.588      658.269      271.701      275.159        0.095        0.060       26.077        2.213        0.007      345.777       23.551      861.729
07/20/2014  07:46:00      -18.358      -42.161       12.423       36.532       20.418       21.645     1334.604      416.898      468.521        0.224        0.111       45.984       20.994        0.208      345.710       23.434      861.727
07/20/2014  07:47:00      -27.846      -26.709        1.199       21.692       20.201       13.816      470.542      408.076      190.888        0.128        0.053       38.585       12.951        0.113      345.668       23.363      861.719
07/20/2014  07:48:00      -20.165      -32.684       -1.639        8.205       14.941        7.028       67.319      223.247       49.393        0.091        0.017       38.404        4.663        0.015      345.617       23.274      861.702
07/20/2014  07:49:00      -13.757       -9.220       -0.584        9.966        7.544        6.480       99.316       56.917       41.990        0.024        0.010       16.561        6.643        0.161      345.729       23.469      861.677
07/20/2014  07:50:00       -9.161       -6.411       -0.250        5.671        3.997        6.601       32.158       15.973       43.573        0.011        0.005       11.181        2.213        0.039      345.760       23.520      861.661
07/20/2014  07:51:00      -11.305        9.884        8.755       16.104       13.662        7.897      259.336      186.662       62.358        0.041        0.025       15.017       10.900        0.527      345.886       23.736      861.653
07/20/2014  07:52:00      -53.493       13.587       -3.130        9.734        6.913        4.877       94.746       47.785       23.785        0.161        0.008       55.192        1.766        0.001      345.608       23.260      861.655
07/20/2014  07:53:00      -43.445       23.453       -7.099       10.046        9.408        7.194      100.917       88.502       51.748        0.136        0.012       49.371        4.931        0.010      345.613       23.270      861.657
07/20/2014  07:54:00      -24.091       18.530       -4.000       13.248        7.628        8.676      175.503       58.186       75.280        0.062        0.015       30.393        7.977        0.069      345.680       23.380      861.661
07/20/2014  07:55:00       -2.540       40.924       -4.788       13.946       10.036       10.013      194.496      100.721      100.260        0.105        0.020       41.003        4.715        0.013      345.713       23.443      861.671
07/20/2014  07:56:00        9.648       53.278       -7.649       10.411       12.831        6.417      108.399      164.629       41.177        0.165        0.016       54.145        6.189        0.013      345.727       23.467      861.677
07/20/2014  07:57:00       13.527       69.255       -7.706        8.073        8.139        6.340       65.173       66.244       40.196        0.261        0.009       70.563        4.230        0.004      345.718       23.451      861.679
07/20/2014  07:58:00       16.872       57.602       -3.310       10.560       15.723       10.796      111.519      247.223      116.553        0.204        0.024       60.022        8.851        0.022      345.750       23.508      861.698
07/20/2014  07:59:00       30.617       53.034       -4.423       20.071       20.103       14.482      402.865      404.137      209.724        0.239        0.051       61.237       13.751        0.050      345.749       23.505      861.713
07/20/2014  08:00:00       71.135       40.809        3.270       22.046       13.127       13.020      486.044      172.320      169.510        0.378        0.041       82.009       11.290        0.019      345.732       23.476      861.723
07/20/2014  08:01:00       76.979       59.563       18.262       16.306       12.671       15.687      265.894      160.555      246.090        0.524        0.034       97.332       10.429        0.011      345.723       23.457      861.738
07/20/2014  08:02:00       82.029       66.585       13.692       19.382       15.600       22.685      375.652      243.371      514.625        0.624        0.057      105.652        9.710        0.008      345.743       23.494      861.758
07/20/2014  08:03:00       80.418       46.112        8.374       12.430       29.033       15.608      154.501      842.893      243.625        0.495        0.062       92.701        6.566        0.005      345.749       23.504      861.778
07/20/2014  08:04:00       66.355       53.415       20.229       24.092       25.690       21.692      580.410      659.988      470.557        0.469        0.086       85.183       14.047        0.027      345.772       23.542      861.791
07/20/2014  08:05:00       69.358       44.689       12.590       22.419       21.523       20.061      502.594      463.254      402.437        0.417        0.068       82.509       14.689        0.032      345.765       23.528      861.815
07/20/2014  08:06:00      115.813       64.787       14.736       24.653       20.475       22.933      607.792      419.238      525.902        0.969        0.078      132.703       14.455        0.012      345.739       23.487      861.835
07/20/2014  08:07:00       61.642       61.320       37.060       29.757       21.728       21.667      885.493      472.120      469.468        0.538        0.091       86.947       21.704        0.062      345.746       23.497      861.832
07/20/2014  08:08:00       50.019       33.223       14.473       31.097       25.400       21.852      966.996      645.166      477.502        0.295        0.104       60.047        7.676        0.016      345.760       23.523      861.841
07/20/2014  08:09:00       42.085       28.175       20.690       29.306       17.208       16.919      858.838      296.105      286.236        0.222        0.072       50.646       11.690        0.053      345.796       23.582      861.860
07/20/2014  08:10:00       56.143       41.923       13.238       27.702       20.940       15.814      767.419      438.482      250.082        0.327        0.073       70.068       13.174        0.035      345.763       23.526      861.870
07/20/2014  08:11:00       71.141       51.117       27.616       21.691       24.622       17.803      470.514      606.232      316.945        0.491        0.070       87.601        3.792        0.002      345.743       23.493      861.864
07/20/2014  08:12:00       62.935       47.258       41.719       21.984       18.981       20.109      483.276      360.281      404.363        0.459        0.062       78.703       12.445        0.025      345.789       23.571      861.876
07/20/2014  08:13:00       23.513       23.137       25.742       25.364       23.255       23.656      643.353      540.775      559.585        0.175        0.087       32.988       17.631        0.286      345.827       23.636      861.897
07/20/2014  08:14:00      -14.253        0.188       -3.337       21.181       24.846       17.628      448.624      617.345      310.731        0.080        0.069       14.254       15.257        1.146      345.864       23.699      861.912
07/20/2014  08:15:00       -4.352      -47.225        9.373       21.270       21.417       16.587      452.432      458.706      275.117        0.176        0.059       47.425       14.710        0.096      345.881       23.730      861.917
07/20/2014  08:16:00       32.879      -71.261       -1.406       30.259       22.977       17.463      915.611      527.926      304.944        0.395        0.087       78.480       13.551        0.030      345.887       23.739      861.934
07/20/2014  08:17:00       52.681      -67.847      -11.929       23.244       33.282       16.997      540.281     1107.697      288.907        0.473        0.097       85.898       16.138        0.035      345.831       23.640      861.946
07/20/2014  08:18:00       37.257      -62.363       -7.988       30.634       38.846       31.758      938.415     1509.042     1008.539        0.440        0.173       72.644       26.608        0.134      345.882       23.730      861.962
07/20/2014  08:19:00        8.355      -54.712       24.784       27.616       45.301       37.256      762.639     2052.188     1388.023        0.394        0.210       55.346       25.338        0.210      346.027       23.979      861.970
07/20/2014  08:20:00        6.605      -36.723       28.063       24.632       43.412       28.828      606.743     1884.605      831.057        0.275        0.166       37.313       15.750        0.178      346.008       23.946      861.976
07/20/2014  08:21:00       22.723      -30.354       20.387       28.652       36.112       25.943      820.911     1304.071      673.047        0.233        0.140       37.916       20.308        0.287      345.985       23.906      861.992
07/20/2014  08:22:00       53.280      -63.250       -0.540       30.532       44.482       25.551      932.204     1978.661      652.857        0.520        0.178       82.700       26.919        0.106      345.877       23.723      862.008
07/20/2014  08:23:00       47.262      -52.550        5.101       28.447       36.744       27.742      809.215     1350.097      769.613        0.397        0.146       70.677       21.609        0.093      345.883       23.734      862.016
07/20/2014  08:24:00       13.619      -19.188       22.700       15.534       32.540       12.908      241.296     1058.834      166.620        0.127        0.073       23.530        8.612        0.134      345.979       23.898      862.015
07/20/2014  08:25:00        4.854      -14.363       12.857       11.365       22.421       11.433      129.155      502.697      130.702        0.058        0.038       15.161        9.025        0.354      345.995       23.925      862.013
07/20/2014  08:26:00       14.589      -65.791       -1.843       19.017       15.687       14.214      361.652      246.080      202.027        0.268        0.040       67.389       11.689        0.030      345.908       23.774      862.009
07/20/2014  08:27:00       14.861      -37.530       -2.204       14.123       18.818       10.845      199.464      354.132      117.606        0.115        0.034       40.365        8.168        0.041      345.957       23.860      862.004
07/20/2014  08:28:00      -51.011      -39.664       -3.266       39.967       19.333       11.024     1597.366      373.760      121.525        0.314        0.105       64.617        4.664        0.005      345.882       23.732      861.989
07/20/2014  08:29:00      -64.979      -22.479       -4.613       22.162       16.557       12.418      491.164      274.148      154.194        0.283        0.046       68.757       10.758        0.024      345.832       23.647      861.967
07/20/2014  08:30:00      -50.981       -2.649       -3.495       10.249        9.735        9.593      105.043       94.763       92.020        0.146        0.015       51.050        5.276        0.011      345.866       23.700      861.943
07/20/2014  08:31:00      -31.214      -26.513       -3.099       18.284        8.286        7.336      334.315       68.659       53.823        0.107        0.023       40.954        6.142        0.022      345.894       23.754      861.915
07/20/2014  08:32:00      -73.798      -23.108       -9.190       16.455       13.511        7.207      270.758      182.560       51.937        0.328        0.025       77.331        7.823        0.010      345.904       23.771      861.893
07/20/2014  08:33:00      -96.635      -52.194       -5.191       29.531       26.670       17.119      872.107      711.270      293.045        0.698        0.094      109.830       12.544        0.013      345.923       23.802      861.870
07/20/2014  08:34:00      -78.471      -56.152        7.938       44.309       33.283       21.843     1963.266     1107.776      477.108        0.646        0.177       96.492       22.182        0.053      345.907       23.774      861.849
07/20/2014  08:35:00      -89.969      -92.521       -4.494       34.812       27.740       24.662     1211.862      769.489      608.208        0.963        0.129      129.053       22.466        0.030      345.918       23.794      861.824
07/20/2014  08:36:00      -50.552      -23.011        0.483       39.489       27.332       24.519     1559.413      747.038      601.206        0.300        0.145       55.543       23.867        0.185      345.952       23.851      861.796
07/20/2014  08:37:00     -103.447      -14.769       -7.886       35.251       27.013       18.802     1242.639      729.712      353.531        0.665        0.116      104.496       19.623        0.035      345.968       23.876      861.773
07/20/2014  08:38:00      -85.700      -28.321       -0.410       45.962       26.757       18.980     2112.496      715.952      360.232        0.567        0.159       90.259       22.477        0.062      345.993       23.922      861.745
07/20/2014  08:39:00      -77.919       19.688       -6.334       33.525       17.864       14.544     1123.928      319.114      211.516        0.408        0.083       80.368       10.812        0.018      345.948       23.844      861.718
07/20/2014  08:40:00      -85.014      -17.843       -5.967       32.396       19.240       14.563     1049.507      370.179      212.078        0.461        0.082       86.866       12.708        0.021      345.941       23.830      861.703
07/20/2014  08:41:00      -38.824       11.645       -3.973       22.405       18.647       16.648      502.001      347.715      277.161        0.139        0.056       40.532       15.943        0.155      345.977       23.893      861.686
07/20/2014  08:42:00      -45.620       21.439       -6.436       21.063       13.423       11.355      443.669      180.183      128.946        0.167        0.038       50.407        5.878        0.014      345.943       23.835      861.680
07/20/2014  08:43:00       -9.201       31.205       -6.408       11.193       14.328       10.425      125.290      205.300      108.677        0.077        0.022       32.533        3.368        0.011      345.965       23.874      861.675
07/20/2014  08:44:00      -85.019       15.430      -10.419       31.391       14.836       10.225      985.405      220.114      104.556        0.444        0.066       86.408       12.561        0.021      345.977       23.898      861.678
07/20/2014  08:45:00      -59.586      -15.920       -2.395       19.708       24.169       16.116      388.409      584.159      259.717        0.252        0.062       61.676       12.139        0.039      345.986       23.912      861.685
07/20/2014  08:46:00       -0.691       -5.764        9.215       44.396       13.247       19.749     1971.043      175.489      390.026        0.133        0.127        5.805       23.649       16.594      346.037       23.996      861.682
07/20/2014  08:47:00      -16.292        0.690       -0.591       17.362       15.486       14.922      301.432      239.824      222.672        0.051        0.038       16.307       14.232        0.762      346.047       24.011      861.685
07/20/2014  08:48:00       -2.595      -27.988       -3.059       14.874       21.036       11.549      221.229      442.496      133.385        0.080        0.040       28.108        8.084        0.083      346.073       24.058      861.684
07/20/2014  08:49:00       14.235        2.116       10.216       30.495       20.274       19.934      929.931      411.045      397.354        0.102        0.087       14.391       13.998        0.946      346.129       24.156      861.689
07/20/2014  08:50:00      -22.325       -7.801        3.133       14.437       17.704       14.601      208.414      313.432      213.199        0.065        0.037       23.649       10.878        0.212      346.099       24.103      861.691
07/20/2014  08:51:00       -1.318       32.401        6.118       23.372       29.000       26.360      546.254      840.994      694.870        0.159        0.104       32.428       16.395        0.256      346.157       24.201      861.692
07/20/2014  08:52:00       19.219       28.255       15.965       27.695       22.617       17.140      766.993      511.519      293.787        0.150        0.079       34.172       12.968        0.144      346.164       24.215      861.697
07/20/2014  08:53:00        9.894       -7.012        2.842       16.953        8.247       15.326      287.417       68.006      234.883        0.037        0.030       12.127       10.525        0.753      346.193       24.267      861.703
07/20/2014  08:54:00       16.402       24.365       -1.824       13.392       12.855       10.328      179.339      165.252      106.675        0.066        0.023       29.372        8.948        0.093      346.145       24.181      861.703
07/20/2014  08:55:00       17.166       24.077       -2.142        9.074       10.039        9.145       82.343      100.784       83.624        0.057        0.013       29.570        5.057        0.029      346.140       24.174      861.701
07/20/2014  08:56:00        9.020       11.511        6.845       12.563        8.879        9.071      157.829       78.832       82.288        0.029        0.016       14.624        9.125        0.389      346.180       24.243      861.704
07/20/2014  08:57:00       16.720        0.437        5.100        7.214       10.180       11.368       52.037      103.622      129.226        0.030        0.014       16.726        8.169        0.239      346.196       24.272      861.705
07/20/2014  08:58:00        4.786       13.801       13.686        8.150        8.617        6.067       66.427       74.250       36.804        0.029        0.009       14.607        4.019        0.076      346.258       24.376      861.698
07/20/2014  08:59:00       38.314       31.469        2.110       15.468       12.489       12.529      239.248      155.971      156.968        0.151        0.028       49.581        9.219        0.035      346.116       24.134      861.687
07/20/2014  09:00:00       45.035       34.975        4.669       32.703       20.673       20.745     1069.479      427.381      430.337        0.260        0.096       57.021       13.990        0.060      346.038       23.999      861.678
07/20/2014  09:01:00       88.690       54.769        8.346       35.868       25.556       26.677     1286.510      653.095      711.638        0.679        0.133      104.238       19.344        0.034      345.987       23.910      861.648
07/20/2014  09:02:00      110.504       53.373        4.799       38.932       27.761       23.895     1515.701      770.647      570.949        0.897        0.143      122.718       17.921        0.021      345.922       23.802      861.630
07/20/2014  09:03:00       55.953       50.033       23.093       55.277       37.187       27.363     3055.564     1382.849      748.715        0.568        0.259       75.060       28.372        0.143      345.947       23.843      861.611
07/20/2014  09:04:00       95.083       60.012       16.138       43.417       38.567       27.876     1885.043     1487.391      777.080        0.853        0.207      112.438       22.708        0.041      345.903       23.769      861.604
07/20/2014  09:05:00      107.218       59.218       10.860       26.853       26.429       19.535      721.091      698.484      381.628        0.846        0.090      122.485        9.678        0.006      345.903       23.766      861.601
07/20/2014  09:06:00       54.881       46.306       46.614       40.846       30.932       24.765     1668.373      956.801      613.307        0.528        0.162       71.807        8.953        0.016      345.974       23.888      861.596
07/20/2014  09:07:00       84.142       47.744        5.743       54.127       59.605       25.445     2929.714     3552.759      647.424        0.826        0.356       96.744       23.660        0.060      345.919       23.797      861.600
07/20/2014  09:08:00       10.975       -6.418       27.123       24.279       27.387       19.180      589.485      750.058      367.861        0.130        0.085       12.713        9.233        0.527      346.022       23.970      861.601
07/20/2014  09:09:00       23.025      -19.829       10.159       43.690       29.821       32.209     1908.845      889.285     1037.398        0.243        0.192       30.386       20.015        0.434      346.004       23.939      861.606
07/20/2014  09:10:00       10.895      -51.660       27.405       31.687       38.292       35.686     1004.071     1466.273     1273.486        0.364        0.187       52.796       25.615        0.235      346.107       24.115      861.617
07/20/2014  09:11:00       34.298      -93.079       -5.539       41.173       23.989       24.380     1695.195      575.468      594.406        0.637        0.143       99.197       23.663        0.057      346.088       24.084      861.620
07/20/2014  09:12:00       40.000      -34.269        0.814       33.359       33.014       25.735     1112.798     1089.909      662.314        0.282        0.143       52.672       23.986        0.207      346.061       24.037      861.612
07/20/2014  09:13:00       25.616       22.351       24.930       30.205       43.266       23.443      912.316     1871.974      549.565        0.255        0.167       33.996       29.040        0.730      346.019       23.967      861.585
07/20/2014  09:14:00       96.892       69.994       29.918       62.512       33.267       29.408     3907.733     1106.691      864.841        1.053        0.294      119.529       31.426        0.069      345.994       23.923      861.549
07/20/2014  09:15:00      108.697       80.190       16.211       55.171       42.709       34.282     3043.803     1824.018     1175.237        1.227        0.302      135.076       20.060        0.022      345.968       23.877      861.496
07/20/2014  09:16:00      105.828       72.157       15.491       71.339       46.282       28.278     5089.291     2142.030      799.662        1.234        0.402      128.087       11.271        0.008      345.926       23.806      861.442
07/20/2014  09:17:00      114.684      100.337       14.976       75.071       45.450       43.103     5635.665     2065.717     1857.892        1.650        0.478      152.381       31.231        0.042      345.883       23.731      861.414
07/20/2014  09:18:00       69.977       87.760       -1.162       55.156       45.614       34.524     3042.224     2080.682     1191.929        0.946        0.316      112.243       28.689        0.065      345.838       23.654      861.400
07/20/2014  09:19:00       54.542       32.800       11.341       32.629       28.087       22.599     1064.678      788.903      510.711        0.327        0.118       63.645        7.601        0.014      345.861       23.694      861.399
07/20/2014  09:20:00       32.205       34.437       -2.057       29.646       32.803       18.684      878.892     1076.055      349.100        0.227        0.115       47.150       14.751        0.098      345.859       23.693      861.409
07/20/2014  09:21:00       84.615       68.458       31.490       40.054       28.198       31.694     1604.297      795.155     1004.485        0.812        0.170      108.840       16.165        0.022      345.933       23.819      861.429
07/20/2014  09:22:00       62.539       58.045        8.594       39.637       37.021       33.690     1571.116     1370.541     1135.028        0.571        0.204       85.325       28.601        0.112      345.944       23.838      861.445
07/20/2014  09:23:00       69.071       27.885        6.266       39.072       20.062       23.229     1526.587      402.469      539.572        0.403        0.123       74.488       11.628        0.024      345.961       23.865      861.458
07/20/2014  09:24:00       15.183      -19.010       20.893       25.305       50.399       27.022      640.367     2540.075      730.203        0.247        0.196       24.329       19.498        0.642      346.078       24.066      861.468
07/20/2014  09:25:00       35.354       -0.360       38.388       53.272       59.380       33.691     2837.903     3526.031     1135.076        0.511        0.375       35.355       35.985        1.036      346.143       24.177      861.474
07/20/2014  09:26:00       51.902        4.767       56.220       62.387       75.514       53.057     3892.185     5702.301     2814.994        0.914        0.620       52.120       57.830        1.231      346.126       24.148      861.488
07/20/2014  09:27:00      107.596     -150.200       -4.781       70.055      103.524       44.734     4907.707    10717.250     2001.105        2.589        0.881      184.762       51.310        0.077      346.053       24.020      861.496
07/20/2014  09:28:00       88.199      -82.853       13.475       73.601       75.123       57.529     5417.113     5643.410     3309.593        1.459        0.719      121.011       48.907        0.163      346.111       24.123      861.522
07/20/2014  09:29:00       82.760     -106.978        1.498       74.648       82.699       60.640     5572.339     6839.173     3677.214        1.719        0.804      135.254       62.273        0.212      346.111       24.123      861.553
07/20/2014  09:30:00      103.757     -184.239      -17.897       48.954       35.798       21.359     2396.491     1281.494      456.205        2.458        0.207      211.446       17.092        0.007      346.061       24.036      861.578
07/20/2014  09:31:00      103.317     -142.573      -16.537       38.789       41.451       28.923     1504.618     1718.213      836.541        1.767        0.203      176.072       20.806        0.014      346.108       24.117      861.606
07/20/2014  09:32:00       83.537      -88.539        4.364       52.057       85.733       42.628     2709.948     7350.083     1817.132        1.335        0.594      121.727       54.023        0.197      346.163       24.212      861.618
07/20/2014  09:33:00       69.404      -60.569       12.942       49.857       60.310       32.813     2485.753     3637.350     1076.701        0.792        0.360       92.117       41.341        0.201      346.211       24.297      861.623
07/20/2014  09:34:00       15.735       25.161       41.770       32.966       34.558       29.477     1086.736     1194.265      868.900        0.289        0.157       29.675       26.544        0.800      346.337       24.511      861.616
07/20/2014  09:35:00        4.996       15.047       46.816       21.672       26.436       24.238      469.660      698.877      587.459        0.210        0.088       15.855       17.248        1.184      346.383       24.590      861.604
07/20/2014  09:36:00       33.409        1.305       18.749       32.895       20.181       22.731     1082.056      407.292      516.689        0.174        0.100       33.434       18.437        0.304      346.331       24.502      861.586
07/20/2014  09:37:00       15.092        4.174       20.345       16.745       20.585       19.921      280.385      423.733      396.865        0.088        0.055       15.659       15.105        0.931      346.418       24.652      861.574
07/20/2014  09:38:00        5.171      -22.852       12.893       16.559       25.140       16.303      274.197      632.002      265.804        0.094        0.059       23.430       14.065        0.360      346.432       24.675      861.573
07/20/2014  09:39:00       28.549      -58.616       -8.843       19.150       18.826       16.113      366.714      354.403      259.613        0.265        0.049       65.199        9.347        0.021      346.440       24.690      861.571
07/20/2014  09:40:00       12.311      -65.658      -13.884       17.719       11.588       13.737      313.967      134.272      188.700        0.265        0.032       66.803        4.652        0.005      346.402       24.624      861.582
07/20/2014  09:41:00       15.702      -65.056       -9.380       24.280       25.699       19.552      589.501      660.425      382.272        0.310        0.082       66.924       11.168        0.028      346.417       24.649      861.597
07/20/2014  09:42:00      -12.780      -20.416        0.972       31.713       24.305       21.837     1005.712      590.750      476.854        0.133        0.104       24.086        9.856        0.167      346.503       24.798      861.616
07/20/2014  09:43:00      -44.903      -33.259        8.365       39.183       37.294       20.637     1535.334     1390.831      425.868        0.327        0.168       55.879       15.761        0.080      346.534       24.850      861.625
07/20/2014  09:44:00      -59.879      -63.400        5.618       47.307       31.631       17.951     2237.928     1000.502      322.244        0.560        0.178       87.207        4.774        0.003      346.396       24.614      861.615
07/20/2014  09:45:00       -4.810      -51.489        9.208       49.535       42.577       26.452     2453.761     1812.786      699.727        0.386        0.248       51.713       15.339        0.088      346.432       24.675      861.602
07/20/2014  09:46:00      -65.910      -41.550       -4.780       22.295       26.487       15.827      497.062      701.554      250.493        0.377        0.072       77.913       10.199        0.017      346.396       24.613      861.590
07/20/2014  09:47:00      -36.833      -46.345       -7.805       21.647       29.180       16.948      468.572      851.446      287.243        0.259        0.080       59.199       14.442        0.060      346.419       24.655      861.572
07/20/2014  09:48:00      -11.560       12.512        5.148       13.252       12.242       15.497      175.608      149.877      240.165        0.044        0.028       17.035       11.098        0.424      346.525       24.836      861.546
07/20/2014  09:49:00       13.872       29.744       14.773       29.942       17.677       12.112      896.509      312.474      146.708        0.133        0.068       32.820       10.460        0.102      346.529       24.841      861.513
07/20/2014  09:50:00       38.261       39.612       15.137       21.122       19.433       20.518      446.159      377.660      420.990        0.225        0.062       55.073       15.501        0.079      346.571       24.915      861.496
07/20/2014  09:51:00        3.432       16.044       34.077       18.379       26.449       15.329      337.777      699.557      234.993        0.135        0.064       16.406       11.546        0.495      346.790       25.291      861.493
07/20/2014  09:52:00       10.690      -30.499       21.667       16.392       32.011       20.927      268.713     1024.724      437.921        0.162        0.087       32.318       21.194        0.430      346.746       25.216      861.489
07/20/2014  09:53:00       23.397      -75.551        1.309       12.490       16.294       13.094      155.998      265.486      171.442        0.342        0.030       79.091        6.901        0.008      346.468       24.737      861.494
07/20/2014  09:54:00       25.372      -19.997       17.525       28.391       26.018       24.272      806.042      676.961      589.129        0.171        0.104       32.305       23.497        0.529      346.703       25.143      861.509
07/20/2014  09:55:00      -12.498      -36.601      -10.441       20.647       24.382       28.495      426.308      594.486      811.943        0.172        0.092       38.676       20.275        0.275      346.669       25.081      861.513
07/20/2014  09:56:00      -18.895      -40.027       -8.278       20.338       32.311       13.287      413.629     1044.018      176.539        0.183        0.082       44.263        8.267        0.035      346.667       25.079      861.515
07/20/2014  09:57:00      -20.106      -37.749        4.744       20.296       19.386       18.024      411.928      375.824      324.871        0.148        0.056       42.770        9.435        0.049      346.683       25.107      861.517
07/20/2014  09:58:00       32.629      -27.492       13.385       52.238       49.760       36.237     2728.813     2476.039     1313.121        0.426        0.326       42.667       38.404        0.810      346.712       25.156      861.497
07/20/2014  09:59:00      -13.653      -60.118       14.085       20.257       42.746       27.838      410.356     1827.238      774.956        0.351        0.151       61.649       22.314        0.131      346.707       25.150      861.488
07/20/2014  10:00:00      -18.834      -49.882        5.063       21.624       31.374       18.748      467.594      984.334      351.500        0.234        0.090       53.319       15.230        0.082      346.725       25.179      861.477
07/20/2014  10:01:00      -55.962        4.138       -3.691       12.080       12.180       11.386      145.930      148.352      129.641        0.179        0.021       56.114        6.110        0.012      346.593       24.951      861.456
07/20/2014  10:02:00      -38.012        7.680       -4.692       14.451        9.687        7.885      208.829       93.833       62.172        0.095        0.018       38.780        7.167        0.034      346.629       25.015      861.449
07/20/2014  10:03:00      -37.975      -25.623       -0.411       25.460       20.165       12.706      648.205      406.638      161.445        0.166        0.061       45.811       14.241        0.097      346.790       25.291      861.445
07/20/2014  10:04:00      -45.973      -32.914       -7.600       12.065       14.438        9.250      145.567      208.453       85.560        0.185        0.022       56.541        3.422        0.004      346.631       25.018      861.437
07/20/2014  10:05:00      -40.856       -7.582        3.437       19.890       16.048       15.254      395.597      257.552      232.698        0.131        0.044       41.554       12.519        0.091      346.692       25.121      861.441
07/20/2014  10:06:00       -4.551      -28.016       10.024       25.143       23.889       14.505      632.182      570.695      210.388        0.116        0.071       28.383       13.574        0.229      346.811       25.328      861.436
07/20/2014  10:07:00       -5.228      -10.655       19.544       14.005       17.029       13.825      196.150      289.977      191.123        0.060        0.034       11.869       11.402        0.923      347.066       25.767      861.442
07/20/2014  10:08:00      -15.142      -40.604       11.429       22.419       20.634       18.410      502.632      425.779      338.926        0.164        0.063       43.335       15.093        0.121      346.759       25.238      861.429
07/20/2014  10:09:00       -7.931      -26.655       23.273       14.329       28.466       26.443      205.320      810.312      699.227        0.151        0.086       27.810        7.843        0.080      347.013       25.675      861.427
07/20/2014  10:10:00       15.145       -7.750       33.033       22.343       29.160       24.846      499.200      850.288      617.318        0.167        0.098       17.012       12.374        0.529      347.032       25.709      861.411
07/20/2014  10:11:00        6.972       -3.808       28.220       25.132       31.996       29.124      631.618     1023.764      848.213        0.168        0.125        7.944       14.702        3.425      346.981       25.620      861.412
07/20/2014  10:12:00       14.029       -6.379       22.378       25.886       23.497       21.452      670.110      552.089      460.199        0.121        0.084       15.411       13.230        0.737      347.021       25.688      861.405
07/20/2014  10:13:00       44.912      -56.145       -0.583       34.457       48.840       22.891     1187.273     2385.360      523.995        0.463        0.205       71.898       30.921        0.185      346.892       25.466      861.413
07/20/2014  10:14:00      -21.996      -51.985      -12.418       43.963       22.038       18.357     1932.741      485.692      336.988        0.305        0.138       56.447       18.159        0.103      346.828       25.356      861.409
07/20/2014  10:15:00      -63.574      -49.397        2.754       29.877       25.195       16.336      892.631      634.797      266.876        0.414        0.090       80.509        8.927        0.012      346.828       25.356      861.427
07/20/2014  10:16:00      -50.574      -46.912        2.246       22.657       21.160       16.142      513.356      447.728      260.574        0.299        0.061       68.982       13.566        0.039      346.811       25.327      861.419
07/20/2014  10:17:00      -43.229      -54.787       -3.180       43.516       20.873       14.736     1893.667      435.685      217.164        0.371        0.127       69.788       14.964        0.046      346.830       25.359      861.430
07/20/2014  10:18:00      -36.836      -23.397        6.380       24.754       16.269       15.446      612.774      264.687      238.575        0.153        0.056       43.638       12.855        0.087      346.863       25.417      861.422
07/20/2014  10:19:00      -27.866       -7.630        3.717       39.580       24.865       19.201     1566.591      618.260      368.671        0.170        0.128       28.891       24.740        0.733      347.032       25.708      861.427
07/20/2014  10:20:00       11.283        7.862        2.481       13.075       11.243       17.590      170.948      126.397      309.417        0.040        0.030       13.752        7.193        0.274      347.085       25.800      861.414
07/20/2014  10:21:00       -5.778        2.557       15.835        8.758        9.411        8.725       76.701       88.568       76.120        0.027        0.012        6.318        5.057        0.641      347.444       26.417      861.424
07/20/2014  10:22:00        4.984        4.835       20.990       18.236       18.212       15.049      332.552      331.686      226.484        0.069        0.045        6.943        9.232        1.768      347.317       26.199      861.427
07/20/2014  10:23:00       41.076      -27.353       -5.660       29.183       30.071       24.020      851.637      904.261      576.979        0.240        0.117       49.350       19.186        0.151      346.810       25.326      861.424
07/20/2014  10:24:00        3.432       10.429       27.879       16.107       18.568       12.229      259.448      344.782      149.556        0.083        0.038       10.979        7.412        0.456      347.303       26.176      861.420
07/20/2014  10:25:00        9.445        2.351       31.743       26.075       33.089       24.053      679.897     1094.880      578.560        0.173        0.118        9.733       16.442        2.854      347.208       26.012      861.421
07/20/2014  10:26:00        6.527       33.504       84.406       35.413       47.720       29.454     1254.094     2277.164      867.567        0.634        0.220       34.134       31.707        0.863      347.079       25.788      861.421
07/20/2014  10:27:00        2.557       42.798       52.180       23.676       32.440       25.067      560.567     1052.380      628.337        0.340        0.112       42.874       11.374        0.070      347.071       25.775      861.417
07/20/2014  10:28:00       49.653      -56.057        3.419       52.625       56.630       35.960     2769.346     3206.927     1293.096        0.644        0.363       74.885       38.668        0.267      346.999       25.651      861.426
07/20/2014  10:29:00        8.782        9.294       54.772       35.910       60.849       34.971     1289.562     3702.617     1222.984        0.469        0.311       12.787       37.641        8.665      347.226       26.041      861.432
07/20/2014  10:30:00        2.111       -3.022       27.838       18.608       24.811       16.206      346.247      615.592      262.640        0.101        0.061        3.686       10.887        8.722      347.292       26.155      861.452
07/20/2014  10:31:00       12.876        8.008       33.448       39.048       31.000       27.977     1524.765      961.001      782.707        0.231        0.163       15.163       15.557        1.053      347.238       26.063      861.447
07/20/2014  10:32:00       30.160      -40.458       21.591       32.896       51.251       32.280     1082.130     2626.614     1042.006        0.388        0.238       50.463       33.900        0.451      347.063       25.761      861.465
07/20/2014  10:33:00       39.842     -110.388        1.138       46.805       58.134       31.238     2190.702     3379.521      975.794        1.016        0.327      117.358       29.052        0.061      346.955       25.574      861.462
07/20/2014  10:34:00       26.484      -78.040        5.423       28.116       30.717       20.724      790.512      943.547      429.503        0.449        0.108       82.412       12.259        0.022      346.983       25.625      861.469
07/20/2014  10:35:00       62.143      -66.687       -9.669       24.837       45.513       16.319      616.862     2071.473      266.299        0.568        0.148       91.153       11.091        0.015      346.864       25.418      861.475
07/20/2014  10:36:00       -3.256      -22.367       13.128       23.446       44.598       21.227      549.736     1988.971      450.570        0.184        0.149       22.603       17.381        0.591      347.178       25.960      861.479
07/20/2014  10:37:00       28.955      -47.460       15.494       39.362       52.155       33.567     1549.333     2720.153     1126.768        0.436        0.270       55.596       34.616        0.388      347.188       25.976      861.487
07/20/2014  10:38:00       -6.397       13.981       25.025       24.637       27.461       27.723      606.998      754.133      768.578        0.150        0.106       15.375       20.770        1.825      347.149       25.910      861.493
07/20/2014  10:39:00        9.598       -1.752       23.929       20.194       18.117       17.787      407.779      328.242      316.382        0.086        0.053        9.757       10.830        1.232      347.242       26.070      861.487
07/20/2014  10:40:00        9.181       16.434       28.212       25.606       19.718       16.228      655.689      388.796      263.352        0.123        0.065       18.825       10.149        0.291      347.143       25.898      861.492
07/20/2014  10:41:00       19.927       -0.745       19.607       22.887       15.574       17.552      523.808      242.541      308.080        0.093        0.054       19.941       14.561        0.533      347.210       26.014      861.496
07/20/2014  10:42:00       13.647        6.083       11.740       18.456       19.351       18.218      340.629      374.458      331.904        0.070        0.052       14.941       14.135        0.895      347.146       25.904      861.501
07/20/2014  10:43:00        1.181       13.199       28.397       19.115       16.610       13.630      365.385      275.876      185.774        0.090        0.041       13.251       10.651        0.646      347.321       26.205      861.517
07/20/2014  10:44:00        0.062      -24.455        9.607       15.994       27.980       19.729      255.810      782.866      389.229        0.106        0.071       24.455       13.315        0.296      347.264       26.108      861.520
07/20/2014  10:45:00        8.420       -4.480       29.355       22.470       20.682       15.483      504.923      427.757      239.731        0.106        0.059        9.538       12.009        1.585      347.500       26.515      861.522
07/20/2014  10:46:00        5.904        2.831       28.910       20.837       26.631       19.865      434.199      709.215      394.620        0.121        0.077        6.547       20.968       10.257      347.370       26.290      861.527
07/20/2014  10:47:00       40.692      -66.156        4.280       39.301       54.651       25.868     1544.573     2986.680      669.162        0.562        0.260       77.669       34.604        0.199      347.196       25.990      861.513
07/20/2014  10:48:00       20.356      -79.086        4.102       37.360       21.236       25.199     1395.737      450.978      634.998        0.458        0.124       81.664       16.940        0.043      347.102       25.830      861.521
07/20/2014  10:49:00       21.743      -80.312       -2.389       27.478       25.314       13.873      755.029      640.817      192.473        0.426        0.079       83.203       10.013        0.014      346.915       25.506      861.526
07/20/2014  10:50:00       20.350      -22.298        7.720       27.148       25.147       19.992      737.027      632.351      399.664        0.137        0.088       30.188       13.598        0.203      347.116       25.851      861.521
07/20/2014  10:51:00       -1.552        1.303        8.592       15.512       12.345       15.513      240.610      152.405      240.643        0.036        0.032        2.026        7.211       12.664      347.273       26.124      861.522
07/20/2014  10:52:00      -20.687       13.718        4.523       23.861       10.920       15.677      569.324      119.248      245.761        0.079        0.047       24.822       10.999        0.196      347.145       25.902      861.516
07/20/2014  10:53:00        8.922        3.505       18.586       17.704       13.082       12.592      313.435      171.135      158.560        0.054        0.032        9.586        4.564        0.227      347.519       26.546      861.502
07/20/2014  10:54:00      -32.340      -52.462       -3.380       26.741       31.000       17.019      715.098      960.982      289.651        0.289        0.098       61.629        6.087        0.010      347.189       25.979      861.499
07/20/2014  10:55:00       -9.251      -28.665       -0.384       29.988       23.484       15.285      899.290      551.482      233.644        0.130        0.084       30.121       18.728        0.387      347.264       26.107      861.488
07/20/2014  10:56:00       -5.292      -17.439       10.234       25.793       17.629       19.125      665.272      310.767      365.750        0.089        0.067       18.224       16.701        0.840      347.434       26.401      861.474
07/20/2014  10:57:00      -40.056       -5.893        7.443       28.829       21.240       16.341      831.116      451.157      267.014        0.162        0.077       40.487       18.804        0.216      347.307       26.182      861.466
07/20/2014  10:58:00       -7.796       -9.489       16.809       19.821       15.175       13.499      392.873      230.272      182.216        0.062        0.040       12.281       11.015        0.804      347.413       26.364      861.467
07/20/2014  10:59:00      -45.014      -28.212       -2.483       25.866       16.553       13.418      669.072      273.986      180.032        0.198        0.056       53.124       14.467        0.074      347.156       25.921      861.462
07/20/2014  11:00:00      -16.567      -18.276        3.524       18.304       24.624       16.573      335.029      606.344      274.674        0.092        0.061       24.667       17.025        0.476      347.279       26.134      861.447
07/20/2014  11:01:00      -13.225      -22.436        4.243       13.303       11.561       10.610      176.964      133.645      112.569        0.056        0.021       26.043        6.089        0.055      347.254       26.091      861.451
07/20/2014  11:02:00       -7.074        0.451        6.182       14.088       18.365       10.394      198.467      337.269      108.028        0.037        0.032        7.088        8.721        1.514      347.415       26.367      861.441
07/20/2014  11:03:00      -22.320      -29.977        4.807       24.534       34.731       14.964      601.919     1206.223      223.929        0.173        0.102       37.374       13.524        0.131      347.287       26.147      861.432
07/20/2014  11:04:00       -4.118        0.887       20.367       24.518       39.580       16.120      601.111     1566.543      259.854        0.143        0.121        4.213       12.279        8.497      347.403       26.348      861.434
07/20/2014  11:05:00      -56.890      -39.368       10.328       43.270       26.923       27.457     1872.272      724.824      753.893        0.412        0.168       69.183       28.246        0.167      347.210       26.012      861.444
07/20/2014  11:06:00      -10.334       27.170        3.044       16.960       21.121       16.954      287.637      446.084      287.425        0.094        0.051       29.069       14.018        0.233      347.448       26.424      861.440
07/20/2014  11:07:00        1.813       31.415       10.269       23.452       21.137       19.913      549.975      446.790      396.541        0.124        0.070       31.467       18.714        0.354      347.408       26.356      861.437
07/20/2014  11:08:00        1.299       17.443       21.527       12.497       15.677        9.260      156.172      245.774       85.742        0.063        0.024       17.491        8.357        0.228      347.611       26.705      861.442
07/20/2014  11:09:00       -8.036       21.786        2.901       16.381       19.253       14.649      268.340      370.675      214.598        0.070        0.043       23.221       11.251        0.235      347.470       26.465      861.435
07/20/2014  11:10:00       -5.677        0.433       17.074        6.942        5.832        7.805       48.196       34.009       60.921        0.023        0.007        5.694        3.907        0.471      348.015       27.402      861.413
07/20/2014  11:11:00      -11.682        4.996       16.289       12.247        9.764        7.287      149.987       95.326       53.105        0.036        0.015       12.706        2.383        0.035      347.862       27.140      861.409
07/20/2014  11:12:00      -92.459      -28.138       -0.769       37.087       28.963       20.481     1375.453      838.856      419.473        0.599        0.132       96.645       18.034        0.035      347.281       26.137      861.405
07/20/2014  11:13:00     -126.052        7.874        0.249       47.917       28.164       23.273     2296.075      793.226      541.613        0.979        0.182      126.298       25.016        0.039      347.210       26.015      861.396
07/20/2014  11:14:00     -148.323       56.978        0.420       63.877       48.106       32.999     4080.270     2314.181     1088.967        1.636        0.374      158.890       26.977        0.029      347.272       26.121      861.387
07/20/2014  11:15:00     -150.583       27.472      -15.056       53.621       54.469       30.282     2875.187     2966.892      917.030        1.521        0.338      153.069       20.891        0.019      347.309       26.184      861.386
07/20/2014  11:16:00     -157.762      -61.012      -16.550       63.285       58.784       33.569     4004.953     3455.533     1126.872        1.873        0.429      169.149       33.271        0.039      347.263       26.105      861.380
07/20/2014  11:17:00      -42.820       -0.060       14.803       36.320       35.357       24.694     1319.173     1250.129      609.789        0.262        0.159       42.820       20.333        0.225      347.542       26.587      861.370
07/20/2014  11:18:00     -102.377        1.375       -8.138       66.283       37.991       24.278     4393.394     1443.310      589.416        0.849        0.321      102.386       31.916        0.097      347.330       26.222      861.369
07/20/2014  11:19:00        4.151       -0.763       23.676       12.055       19.105       11.595      145.333      364.994      134.447        0.061        0.032        4.220        6.101        2.090      348.054       27.471      861.361
07/20/2014  11:20:00      -31.351       -3.948        9.612       22.844       25.545       17.313      521.863      652.559      299.727        0.128        0.074       31.598       17.785        0.317      347.743       26.934      861.366
07/20/2014  11:21:00     -116.139      -59.782       -6.388       66.167       57.573       31.552     4378.009     3314.615      995.521        1.289        0.434      130.623       24.302        0.035      347.400       26.341      861.359
07/20/2014  11:22:00      -72.069      -47.344       -1.967       76.416       52.047       34.254     5839.437     2708.903     1173.333        0.858        0.486       86.229       43.894        0.259      347.542       26.586      861.354
07/20/2014  11:23:00      -32.165       -7.067       -3.904       22.553       24.325       15.893      508.636      591.730      252.601        0.123        0.068       32.932        7.443        0.051      347.578       26.651      861.346
07/20/2014  11:24:00      -54.069      -26.012       -2.051       34.049       31.534       18.812     1159.355      994.413      353.906        0.306        0.125       60.001       19.583        0.107      347.574       26.642      861.329
07/20/2014  11:25:00     -173.366     -122.994       -3.373       53.246       50.526       33.845     2835.087     2552.900     1145.480        2.586        0.327      212.563       23.796        0.013      347.442       26.411      861.320
07/20/2014  11:26:00      -35.138        5.006       23.378       41.480       48.721       26.720     1720.608     2373.730      713.946        0.331        0.240       35.492       26.571        0.560      347.671       26.809      861.302
07/20/2014  11:27:00      -89.359       -8.418       -2.790       48.347       40.451       20.198     2337.416     1636.289      407.946        0.622        0.219       89.755       18.895        0.044      347.438       26.406      861.280
07/20/2014  11:28:00     -101.380      -68.979      -10.140       63.475       65.172       39.216     4029.088     4247.396     1537.891        1.247        0.491      122.622       38.409        0.098      347.480       26.478      861.264
07/20/2014  11:29:00     -164.055      -76.890        4.323       73.343       58.316       41.741     5379.176     3400.736     1742.321        2.168        0.526      181.180       27.940        0.024      347.547       26.594      861.247
07/20/2014  11:30:00      -30.449      -24.595        0.882       59.243       35.668       18.520     3509.715     1272.220      342.975        0.333        0.256       39.142       17.802        0.207      347.691       26.844      861.229
07/20/2014  11:31:00      -45.642      -68.021        4.733       27.908       50.011       18.359      778.856     2501.093      337.054        0.517        0.181       81.915       19.675        0.058      347.541       26.584      861.222
07/20/2014  11:32:00      -37.864        7.594        6.331       30.247       19.911       17.524      914.906      396.455      307.095        0.157        0.081       38.618       11.747        0.093      347.749       26.944      861.200
07/20/2014  11:33:00       -4.177        1.057       20.143       25.081       13.256       13.346      629.070      175.723      178.120        0.070        0.049        4.309       13.630       10.008      348.057       27.476      861.185
07/20/2014  11:34:00      -91.486      -49.134       -0.901       45.355       50.804       23.525     2057.078     2581.025      553.441        0.799        0.260      103.845        8.933        0.007      347.574       26.642      861.188
07/20/2014  11:35:00     -108.479      -43.201        0.295       62.846       52.093       33.775     3949.663     2713.697     1140.724        1.072        0.390      116.765       30.975        0.070      347.606       26.696      861.171
07/20/2014  11:36:00      -50.621      -13.543       17.036       63.204       45.435       45.492     3994.794     2064.302     2069.511        0.558        0.406       52.402       37.549        0.513      347.803       27.037      861.149
07/20/2014  11:37:00     -137.081      -38.456        6.565       78.873       55.076       34.776     6220.880     3033.390     1209.390        1.539        0.523      142.373       39.591        0.077      347.757       26.955      861.144
07/20/2014  11:38:00      -62.231       28.879       19.578       62.741       51.987       38.043     3936.415     2702.675     1447.235        0.659        0.404       68.606       36.958        0.290      347.979       27.342      861.132
07/20/2014  11:39:00      -65.616        9.323       21.716       83.963       64.608       42.316     7049.779     4174.143     1790.672        0.894        0.651       66.275       47.138        0.506      348.037       27.441      861.128
07/20/2014  11:40:00     -138.514      -85.403        1.077      112.023       68.784       50.449    12549.169     4731.179     2545.055        2.315        0.991      162.726       62.292        0.147      347.881       27.169      861.129
07/20/2014  11:41:00     -151.552      -77.524        0.049       97.374       94.176       56.471     9481.752     8869.103     3188.951        2.525        1.077      170.229       62.144        0.133      347.874       27.158      861.102
07/20/2014  11:42:00     -207.265     -105.164       -3.897       90.103       50.333       43.910     8118.636     2533.391     1928.051        3.330        0.629      232.418       44.155        0.036      347.887       27.177      861.085
07/20/2014  11:43:00     -118.261      -12.371        7.025       57.061       64.234       32.322     3255.903     4125.994     1044.731        1.131        0.421      118.907       32.249        0.074      347.941       27.275      861.084
07/20/2014  11:44:00     -152.875      -84.164       -0.188      109.934       82.726       41.148    12085.375     6843.667     1693.158        2.553        1.031      174.512       41.327        0.056      347.973       27.328      861.072
07/20/2014  11:45:00     -140.579      -61.483        9.012       88.892      110.822       56.530     7901.833    12281.447     3195.673        2.350        1.169      153.436       48.134        0.098      347.962       27.309      861.059
07/20/2014  11:46:00     -202.842     -140.603       -5.048      128.243       97.877       49.333    16446.295     9579.928     2433.764        4.469        1.423      246.808       55.411        0.050      347.893       27.190      861.048
07/20/2014  11:47:00     -191.482      -83.723       -4.468       65.243       65.062       45.653     4256.618     4233.006     2084.205        2.713        0.529      208.986       42.335        0.041      347.931       27.254      861.046
07/20/2014  11:48:00     -123.474      -69.938        6.732       74.991       62.363       39.070     5623.722     3889.101     1526.447        1.561        0.552      141.905       36.131        0.065      348.037       27.441      861.041
07/20/2014  11:49:00     -249.825      -77.896       -7.602       93.582       59.002       46.730     8757.654     3481.196     2183.694        4.148        0.721      261.687       38.270        0.021      347.969       27.320      861.041
07/20/2014  11:50:00     -195.362      -93.888       -1.270       88.772       65.530       42.493     7880.468     4294.171     1805.682        3.048        0.699      216.752       39.686        0.034      348.028       27.421      861.036
07/20/2014  11:51:00     -114.814     -119.839        5.613       79.995       61.287       39.456     6399.262     3756.042     1556.773        1.964        0.586      165.962       42.168        0.065      348.090       27.530      861.020
07/20/2014  11:52:00      -80.955      -26.988       17.565       72.916       45.688       37.916     5316.773     2087.358     1437.619        0.821        0.442       85.335       48.524        0.323      348.458       28.171      861.007
07/20/2014  11:53:00      -28.276        8.097       14.269       28.362       32.729       20.070      804.391     1071.218      402.791        0.167        0.114       29.413       17.781        0.365      348.686       28.563      861.007
07/20/2014  11:54:00      -24.045      -50.271        8.064       66.684       42.410       28.733     4446.798     1798.591      825.589        0.512        0.354       55.726       31.472        0.319      348.367       28.010      860.999
07/20/2014  11:55:00     -184.589     -134.212      -15.771       76.575       83.287       40.480     5863.686     6936.741     1638.641        3.338        0.722      228.223       38.029        0.028      348.133       27.601      860.979
07/20/2014  11:56:00     -125.550      -39.125        6.069       86.847       55.586       39.894     7542.397     3089.791     1591.566        1.477        0.611      131.505       41.959        0.102      348.384       28.040      860.960
07/20/2014  11:57:00     -140.629      -83.903        3.014       88.897       86.114       46.788     7902.700     7415.566     2189.088        2.216        0.875      163.757       46.943        0.082      348.274       27.848      860.936
07/20/2014  11:58:00     -169.833     -119.734       -3.249      144.201       89.554       57.090    20793.964     8019.991     3259.269        3.763        1.604      207.797       70.044        0.114      348.193       27.708      860.914
07/20/2014  11:59:00     -177.201      -95.815       11.298      114.595       64.301       41.014    13131.985     4134.642     1682.117        2.982        0.947      201.446       43.912        0.048      348.240       27.788      860.901
07/20/2014  12:00:00      -70.187      -64.165       18.638       88.283       68.367       43.862     7793.930     4674.065     1923.862        1.189        0.720       95.096       50.745        0.285      348.520       28.275      860.901
07/20/2014  12:01:00     -106.917        6.840        9.244       88.826       43.027       36.772     7889.987     1851.330     1352.190        1.133        0.555      107.135       47.229        0.194      348.503       28.247      860.881
07/20/2014  12:02:00      -79.800        7.772       10.695       63.405       46.688       33.518     4020.176     2179.735     1123.434        0.693        0.366       80.177       38.172        0.227      348.545       28.320      860.865
07/20/2014  12:03:00      -49.016       22.958       27.765       53.877       37.513       21.235     2902.760     1407.206      450.919        0.423        0.238       54.127       15.797        0.085      348.540       28.311      860.844
07/20/2014  12:04:00      -67.532       19.753       13.839       56.168       61.419       38.546     3154.836     3772.341     1485.818        0.678        0.421       70.362       29.266        0.173      348.599       28.413      860.823
07/20/2014  12:05:00      -62.248      -50.604       12.755       86.538       60.384       41.768     7488.852     3646.200     1744.605        0.974        0.644       80.222       43.064        0.288      348.416       28.095      860.818
07/20/2014  12:06:00      -83.612      -37.854        8.257       60.064       48.551       30.499     3607.729     2357.242      930.216        0.769        0.345       91.782       33.261        0.131      348.356       27.993      860.804
07/20/2014  12:07:00     -140.836      -86.668       -0.755      113.564       72.962       45.155    12896.749     5323.399     2038.932        2.380        1.013      165.367       55.728        0.114      348.363       28.002      860.783
07/20/2014  12:08:00      -57.463      -31.098        5.882       82.619       62.472       37.037     6825.920     3902.753     1371.739        0.820        0.605       65.338       43.052        0.434      348.583       28.385      860.780
07/20/2014  12:09:00     -184.267      -76.061        0.242      158.122       88.196       49.373    25002.487     7778.504     2437.738        3.747        1.761      199.347       53.829        0.073      348.422       28.104      860.770
07/20/2014  12:10:00     -160.457      -83.959       11.958      122.322       85.782       48.715    14962.775     7358.483     2373.122        2.881        1.235      181.095       60.339        0.111      348.293       27.883      860.755
07/20/2014  12:11:00     -235.471     -104.064        0.687      129.298       93.102       56.084    16718.079     8667.996     3145.454        4.740        1.427      257.441       55.783        0.047      348.254       27.812      860.751
07/20/2014  12:12:00     -186.789     -102.241        0.444       88.282       70.451       46.693     7793.684     4963.387     2180.195        3.014        0.747      212.940       49.072        0.053      348.199       27.719      860.748
07/20/2014  12:13:00     -169.438      -25.313       13.500      119.081       77.871       50.932    14180.248     6063.848     2594.114        2.618        1.142      171.318       61.906        0.131      348.380       28.033      860.745
07/20/2014  12:14:00     -221.186      -71.891      -20.796       97.783       73.811       48.939     9561.562     5448.064     2394.995        3.596        0.870      232.576       46.819        0.041      348.200       27.719      860.736
07/20/2014  12:15:00      -64.494      -50.029        3.322       74.435       63.893       35.044     5540.521     4082.273     1228.115        0.876        0.543       81.623       38.180        0.219      348.525       28.285      860.717
07/20/2014  12:16:00      -87.339      -47.830       11.105       80.206       56.992       47.409     6433.072     3248.092     2247.599        1.098        0.596       99.578       43.436        0.190      348.529       28.292      860.711
07/20/2014  12:17:00        0.019       11.607       21.897       57.660       36.949       30.884     3324.684     1365.203      953.824        0.313        0.282       11.607       24.847        4.583      348.719       28.620      860.708
07/20/2014  12:18:00     -229.571      -38.843      -10.619       86.798       94.348       48.565     7533.898     8901.626     2358.523        3.656        0.940      232.834       50.734        0.047      348.394       28.055      860.702
07/20/2014  12:19:00     -190.131      -51.368       -6.799       96.692       66.651       45.427     9349.305     4442.384     2063.628        2.734        0.793      196.947       50.849        0.067      348.469       28.185      860.690
07/20/2014  12:20:00     -105.929      -22.853       -1.246       51.998       30.141       33.622     2703.763      908.478     1130.452        0.824        0.237      108.366       28.780        0.071      348.661       28.521      860.689
07/20/2014  12:21:00      -89.792      -47.301        1.013       59.006       53.494       30.066     3481.681     2861.560      903.935        0.877        0.362      101.489       29.507        0.085      348.743       28.662      860.675
07/20/2014  12:22:00     -150.551      -62.664       -7.079      127.448       78.822       42.855    16242.923     6212.920     1836.561        2.546        1.215      163.071       42.602        0.068      348.538       28.306      860.657
07/20/2014  12:23:00     -225.791     -113.866        4.512      142.855      113.625       60.639    20407.597    12910.701     3677.117        5.047        1.850      252.878       73.616        0.085      348.479       28.201      860.630
07/20/2014  12:24:00     -192.779     -115.922      -11.018      105.610       89.022       48.030    11153.384     7924.962     2306.893        3.605        1.069      224.948       56.306        0.063      348.559       28.339      860.627
07/20/2014  12:25:00     -194.877       48.572       -9.937      102.482       96.375       49.193    10502.543     9288.157     2419.973        3.132        1.111      200.839       42.984        0.046      348.488       28.218      860.616
07/20/2014  12:26:00     -261.673     -131.125       -1.757      150.002      129.293       63.321    22500.716    16716.570     4009.560        6.444        2.161      292.689       66.460        0.052      348.422       28.102      860.600
07/20/2014  12:27:00     -263.562      -85.827      -15.725       95.679       79.839       45.787     9154.410     6374.199     2096.443        4.735        0.881      277.184       43.965        0.025      348.413       28.088      860.588
07/20/2014  12:28:00     -345.632     -154.844      -21.112       76.466       93.353       54.713     5847.011     8714.835     2993.536        8.072        0.878      378.733       41.519        0.012      348.465       28.176      860.579
07/20/2014  12:29:00     -264.309      -72.991       -7.780      131.164      105.555       57.496    17204.009    11141.787     3305.739        5.344        1.583      274.202       68.512        0.062      348.691       28.570      860.563
07/20/2014  12:30:00     -103.998       15.937       14.414      126.235       66.611       71.284    15935.312     4437.063     5081.427        1.836        1.273      105.212       81.413        0.599      348.965       29.046      860.559
07/20/2014  12:31:00     -149.001      -16.567      -16.273       80.686       66.402       39.344     6510.160     4409.227     1547.972        1.760        0.623      149.919       41.888        0.078      348.951       29.019      860.554
07/20/2014  12:32:00     -158.558       37.220       -8.524      115.787      114.999       54.470    13406.592    13224.782     2966.947        2.809        1.480      162.868       59.677        0.134      348.964       29.043      860.538
07/20/2014  12:33:00     -100.934      -84.973       18.715      131.571      138.075       66.094    17310.831    19064.707     4368.373        2.924        2.037      131.940       78.523        0.354      349.226       29.498      860.515
07/20/2014  12:34:00     -173.411     -133.498       13.903      132.800       94.067       71.551    17635.782     8848.644     5119.493        3.984        1.580      218.845       74.842        0.117      349.032       29.159      860.504
07/20/2014  12:35:00     -333.377      -64.765      -19.473      143.605       94.664       62.368    20622.505     8961.289     3889.791        7.459        1.674      339.609       57.580        0.029      348.628       28.458      860.500
07/20/2014  12:36:00     -328.040       -0.344      -12.157      155.363      118.237       62.654    24137.517    13979.875     3925.545        7.489        2.102      328.040       74.515        0.052      349.014       29.129      860.471
07/20/2014  12:37:00     -188.894      -66.709      -12.324       74.062       59.187       39.024     5485.147     3503.044     1522.883        2.539        0.526      200.328       27.320        0.019      348.771       28.707      860.460
07/20/2014  12:38:00     -260.657     -225.411       -5.544      133.834      100.015       64.669    17911.592    10002.996     4182.086        7.543        1.605      344.605       57.397        0.028      348.813       28.777      860.457
07/20/2014  12:39:00     -160.324     -167.460        3.771       94.479      118.553       56.238     8926.277    14054.887     3162.752        3.995        1.307      231.833       53.082        0.052      348.798       28.754      860.426
07/20/2014  12:40:00     -250.555     -166.816       -0.311      140.588      110.228       62.701    19765.040    12150.191     3931.440        6.322        1.792      301.007       69.220        0.053      348.968       29.048      860.402
07/20/2014  12:41:00     -147.099      -80.174       11.570      126.330      116.770       72.767    15959.197    13635.273     5295.030        3.154        1.744      167.529       79.509        0.225      349.330       29.676      860.378
07/20/2014  12:42:00     -193.201       64.525       -8.348      135.150       94.162       56.365    18265.542     8866.538     3177.041        3.593        1.515      203.691       59.608        0.086      349.301       29.628      860.377
07/20/2014  12:43:00     -211.942       36.392       -8.543       63.665       67.944       44.250     4053.281     4616.415     1958.085        2.847        0.531      215.043       41.759        0.038      349.038       29.169      860.362
07/20/2014  12:44:00     -249.497      -29.926        7.908      155.802       87.821       67.961    24274.187     7712.466     4618.734        4.990        1.830      251.285       78.888        0.099      349.454       29.892      860.323
07/20/2014  12:45:00      -90.865      -67.031       11.101      132.200       93.989       57.181    17476.873     8833.980     3269.669        2.122        1.479      112.914       60.986        0.292      349.461       29.905      860.299
07/20/2014  12:46:00     -263.102     -107.452       11.116      133.152      107.235       72.973    17729.370    11499.268     5325.124        5.772        1.728      284.198       72.255        0.065      349.102       29.279      860.288
07/20/2014  12:47:00     -269.819      -32.539       -8.963      130.832      108.659       51.137    17117.047    11806.836     2614.997        5.273        1.577      271.774       55.777        0.042      349.307       29.636      860.274
07/20/2014  12:48:00     -313.057      -33.108       -5.458      120.237      128.403       62.645    14456.852    16487.223     3924.364        6.699        1.743      314.803       60.200        0.037      349.061       29.209      860.254
07/20/2014  12:49:00     -198.268      -45.040      -15.133      144.502      129.932       57.546    20880.827    16882.306     3311.522        4.131        2.054      203.319       58.617        0.083      349.342       29.697      860.237
07/20/2014  12:50:00      -40.916      -32.003       19.719       70.175       69.294       35.879     4924.544     4801.637     1287.323        0.705        0.551       51.945       32.651        0.395      349.620       30.183      860.221
07/20/2014  12:51:00      -89.529       53.924       -2.112       69.803       49.960       35.359     4872.447     2496.012     1250.241        0.977        0.431      104.514       18.699        0.032      349.711       30.339      860.219
07/20/2014  12:52:00      -82.311      -22.393       -0.298      100.519       74.103       45.853    10104.037     5491.219     2102.484        1.248        0.885       85.303       47.709        0.313      350.221       31.226      860.214
07/20/2014  12:53:00     -295.933      -74.735      -18.649      102.697      119.453       56.723    10546.675    14269.016     3217.446        6.077        1.402      305.224       45.368        0.022      349.055       29.198      860.221
07/20/2014  12:54:00     -271.139      -64.486       -9.774      119.732       58.467       44.354    14335.842     3418.448     1967.263        4.874        0.986      278.702       48.344        0.030      349.071       29.227      860.232
07/20/2014  12:55:00     -131.265      -50.435       15.164      131.363       91.074       52.227    17256.156     8294.477     2727.674        2.414        1.414      140.621       68.567        0.238      349.705       30.329      860.213
07/20/2014  12:56:00     -200.781      -53.397       -7.103      136.330      120.654       62.595    18585.775    14557.441     3918.141        4.013        1.853      207.760       47.832        0.053      349.416       29.825      860.210
07/20/2014  12:57:00     -243.193        9.642       -9.485      127.402      100.441       49.527    16231.207    10088.346     2452.918        4.404        1.439      243.384       55.995        0.053      349.573       30.098      860.196
07/20/2014  12:58:00     -367.994      -45.289      -28.616      134.744      133.136       55.088    18155.978    17725.185     3034.656        8.859        1.946      370.770       66.320        0.032      349.269       29.569      860.197
07/20/2014  12:59:00     -170.154      -82.976       -1.068      149.606      112.085       79.360    22381.995    12562.954     6297.981        3.853        2.062      189.308       73.584        0.151      349.452       29.886      860.170
07/20/2014  13:00:00     -261.138     -105.899       -6.811      175.782      107.727       57.734    30899.260    11605.073     3333.161        6.264        2.292      281.794       65.094        0.053      349.429       29.848      860.174
07/20/2014  13:01:00     -335.493     -158.123      -13.232      171.938      132.025       75.825    29562.780    17430.486     5749.385        9.523        2.637      370.888       81.033        0.048      349.303       29.628      860.146
07/20/2014  13:02:00     -149.100     -166.429       -1.745      176.367      157.731       73.125    31105.281    24879.218     5347.274        5.562        3.067      223.450       90.528        0.164      349.245       29.530      860.149
07/20/2014  13:03:00     -389.763     -235.954       -1.511      198.217      112.104       69.485    39289.891    12567.344     4828.227       13.213        2.834      455.620       66.257        0.021      349.008       29.116      860.109
07/20/2014  13:04:00     -281.248      -91.990      -11.250      119.882      139.245       58.938    14371.593    19389.090     3473.718        6.245        1.862      295.909       54.712        0.034      349.213       29.473      860.105
07/20/2014  13:05:00      -90.420       18.632       10.547      132.981       91.542       56.224    17683.963     8379.894     3161.185        1.892        1.461       92.320       54.074        0.343      349.719       30.352      860.131
07/20/2014  13:06:00      -18.066      -77.138       24.572       90.606      110.875       51.097     8209.416    12293.297     2610.898        1.499        1.156       79.225       46.774        0.349      349.900       30.668      860.113
07/20/2014  13:07:00     -154.227     -135.177        0.209      109.257      100.059       55.751    11937.044    10011.837     3108.207        3.355        1.253      205.082       63.271        0.095      349.300       29.624      860.116
07/20/2014  13:08:00     -161.710     -100.869      -12.807       59.145       65.868       37.672     3498.170     4338.549     1419.208        2.287        0.463      190.590       32.503        0.029      349.224       29.492      860.103
07/20/2014  13:09:00     -132.453      -42.862       -0.550       68.581       51.662       31.678     4703.340     2669.002     1003.472        1.388        0.419      139.215       31.734        0.052      349.442       29.872      860.090
07/20/2014  13:10:00     -190.629     -134.032        3.723      127.548       85.022       43.647    16268.576     7228.714     1905.048        3.986        1.270      233.033       44.044        0.036      349.392       29.782      860.090
07/20/2014  13:11:00     -212.496     -214.983      -10.761      154.270      139.208       65.378    23799.220    19378.948     4274.239        6.946        2.373      302.278       59.682        0.039      349.227       29.496      860.058
07/20/2014  13:12:00     -318.508     -125.621       -5.049      153.631      131.684       62.852    23602.351    17340.650     3950.329        8.106        2.245      342.386       66.176        0.037      349.418       29.828      860.072
07/20/2014  13:13:00     -181.770     -129.774       -0.017      156.408      124.257       82.042    24463.487    15439.752     6730.908        4.825        2.332      223.342       82.617        0.137      349.603       30.148      860.066
07/20/2014  13:14:00     -112.335      -66.185       11.483      124.148       78.940       59.848    15412.611     6231.553     3581.781        2.117        1.261      130.382       48.038        0.136      349.839       30.560      860.080
07/20/2014  13:15:00     -171.380     -131.323        8.595      135.585       89.677       77.947    18383.341     8041.948     6075.711        3.959        1.625      215.909       73.113        0.115      349.604       30.152      860.061
07/20/2014  13:16:00     -190.404     -112.792        4.264      103.565       81.177       51.098    10725.746     6589.779     2611.054        3.446        0.996      221.305       55.024        0.062      349.408       29.809      860.055
07/20/2014  13:17:00     -316.672     -195.895      -13.410      120.285       95.787       60.475    14468.573     9175.177     3657.223        8.306        1.365      372.365       48.170        0.017      349.312       29.644      860.029
07/20/2014  13:18:00     -262.890     -101.278       -6.431      155.679      155.787       70.666    24235.976    24269.567     4993.667        6.644        2.675      281.724       60.039        0.045      349.497       29.964      860.018
07/20/2014  13:19:00     -233.972      -19.184      -12.666       60.903       85.647       39.202     3709.209     7335.488     1536.758        3.392        0.629      234.757       29.432        0.016      349.501       29.972      860.032
07/20/2014  13:20:00     -100.860        9.246       21.302      108.106       78.699       52.523    11686.815     6193.522     2758.685        1.567        1.032      101.283       66.775        0.435      350.021       30.878      860.000
07/20/2014  13:21:00     -122.973      210.682       -5.870      198.953      143.681       71.775    39582.462    20644.258     5151.643        6.245        3.269      243.945       68.592        0.079      349.852       30.580      859.982
07/20/2014  13:22:00     -272.923        7.848      -16.733      164.934      132.418       78.789    27203.128    17534.529     6207.699        6.288        2.547      273.036       94.306        0.119      349.569       30.089      859.956
07/20/2014  13:23:00     -294.985     -110.409      -24.628      157.481      114.435       81.313    24800.175    13095.308     6611.781        7.215        2.225      314.971       86.975        0.076      349.408       29.811      859.876
07/20/2014  13:24:00     -294.578        0.948      -35.318      200.144      136.379       70.991    40057.691    18599.109     5039.701        7.585        3.185      294.580       82.315        0.078      349.562       30.079      859.863
07/20/2014  13:25:00     -267.957      114.551      -31.421      131.244      172.888       60.057    17225.088    29890.107     3606.879        6.831        2.536      291.415       47.552        0.027      349.609       30.159      859.876
07/20/2014  13:26:00     -182.965      135.539       -4.255      170.258      114.332       89.026    28987.775    13071.863     7925.547        5.092        2.499      227.699       94.007        0.170      349.757       30.417      859.879
07/20/2014  13:27:00     -150.097      264.837      -22.702      167.736      179.743       83.344    28135.339    32307.659     6946.182        8.027        3.369      304.413       84.484        0.077      349.613       30.165      859.856
07/20/2014  13:28:00     -168.433      308.088      -31.928       99.115      146.608       64.537     9823.693    21493.817     4165.036        7.989        1.774      351.124       66.870        0.036      349.484       29.941      859.850
07/20/2014  13:29:00     -180.808      324.138      -46.692      131.215      146.165       75.692    17217.285    21364.099     5729.252        9.212        2.216      371.156       69.557        0.035      349.406       29.808      859.833
07/20/2014  13:30:00     -252.945      223.119      -66.521      115.069       98.652       61.202    13240.820     9732.159     3745.714        7.245        1.336      337.288       54.545        0.026      349.456       29.893      859.804
07/20/2014  13:31:00     -204.939      242.162      -36.452      156.810      195.174       81.121    24589.501    38092.749     6580.652        8.560        3.463      317.242       96.886        0.093      349.543       30.045      859.781
07/20/2014  13:32:00     -178.789      263.764      -24.646      125.098      168.152       82.755    15649.470    28274.943     6848.429        7.645        2.539      318.649       97.903        0.094      349.730       30.369      859.722
07/20/2014  13:33:00     -165.328      285.621      -37.409      123.405      131.145       75.784    15228.718    17198.976     5743.142        7.423        1.909      330.019       67.608        0.042      349.668       30.261      859.714
07/20/2014  13:34:00     -141.902      307.870      -17.911      103.167      152.103       70.646    10643.444    23135.340     4990.871        7.700        1.938      338.999       62.194        0.034      349.663       30.253      859.703
07/20/2014  13:35:00     -269.482      132.645      -39.483      137.067      186.627       71.068    18787.284    34829.564     5050.616        7.521        2.933      300.358       78.513        0.068      349.691       30.300      859.686
07/20/2014  13:36:00     -111.610      103.637      -22.430      159.686      152.296       70.699    25499.716    23194.060     4998.346        3.869        2.685      152.307       94.127        0.382      349.811       30.513      859.691
07/20/2014  13:37:00     -230.515      140.292      -32.735      139.077      120.442       71.926    19342.502    14506.214     5173.352        5.645        1.951      269.849       85.147        0.100      349.735       30.377      859.706
07/20/2014  13:38:00     -480.085      122.850      -76.131      123.013      143.842       74.474    15132.258    20690.541     5546.312       14.636        2.068      495.554       69.750        0.020      349.376       29.753      859.708
07/20/2014  13:39:00     -175.975      213.420       -4.217      159.419      201.062       86.343    25414.440    40426.006     7455.046        7.490        3.665      276.614      101.243        0.134      349.716       30.345      859.697
07/20/2014  13:40:00     -193.042      309.573      -40.473       93.580      121.884       69.774     8757.281    14855.676     4868.375        8.160        1.424      364.829       75.408        0.043      349.398       29.794      859.751
07/20/2014  13:41:00      -64.780      364.086      -30.812       63.684      151.032       60.481     4055.705    22810.742     3658.000        8.411        1.526      369.804       73.965        0.040      349.207       29.463      859.711
07/20/2014  13:42:00     -132.365      371.248      -31.968      105.932      137.796       62.522    11221.627    18987.810     3908.943        9.524        1.706      394.139       55.677        0.020      349.357       29.722      859.687
07/20/2014  13:43:00     -158.162      405.807      -29.885      138.827      165.232       87.210    19273.053    27301.703     7605.506       12.237        2.709      435.539       86.782        0.040      349.389       29.778      859.686
07/20/2014  13:44:00     -182.917      421.954      -34.644      109.758      181.656       81.171    12046.842    32999.023     6588.754       13.216        2.582      459.895       70.248        0.023      349.602       30.145      859.647
07/20/2014  13:45:00     -211.039      240.403      -29.461      148.304      142.040       81.664    21994.189    20175.399     6669.035        7.601        2.442      319.892       80.870        0.064      349.802       30.494      859.652
07/20/2014  13:46:00     -116.509      291.720      -29.847       99.657      160.445       74.974     9931.489    25742.723     5621.123        7.042        2.065      314.125       76.790        0.060      349.651       30.231      859.695
07/20/2014  13:47:00      -31.039      293.226      -20.211      101.050      147.602       69.751    10211.005    21786.454     4865.144        6.210        1.843      294.864       80.916        0.075      349.605       30.153      859.639
07/20/2014  13:48:00      -18.925      327.062      -37.271       73.979      112.274       59.266     5472.940    12605.559     3512.515        6.515        1.080      327.609       59.216        0.033      349.506       29.980      859.595
07/20/2014  13:49:00     -190.339      291.134      -47.793      149.617      207.682       73.894    22385.208    43131.984     5460.379        9.711        3.549      347.833       91.112        0.069      349.816       30.518      859.594
07/20/2014  13:50:00     -156.087       34.657      -13.440      208.666      122.919       84.250    43541.412    15109.128     7098.086        4.573        3.287      159.888       82.638        0.267      349.873       30.620      859.614
07/20/2014  13:51:00     -190.969      184.217      -42.068      114.202      165.971       75.194    13042.075    27546.407     5654.115        5.920        2.312      265.340       87.027        0.108      349.781       30.458      859.603
07/20/2014  13:52:00     -300.181      146.325      -45.925      168.799      123.397       73.002    28492.974    15226.888     5329.262        8.133        2.452      333.945       57.543        0.030      349.691       30.299      859.596
07/20/2014  13:53:00     -268.858      397.706      -72.496      165.866      184.030       80.894    27511.391    33867.007     6543.878       15.180        3.396      480.057      113.481        0.056      349.408       29.810      859.632
07/20/2014  13:54:00     -134.492      239.351      -11.444      129.941      182.554       75.835    16884.689    33325.787     5750.927        6.572        2.798      274.549       83.674        0.093      349.606       30.155      859.589
07/20/2014  13:55:00      -61.332      457.582      -50.141       78.281      156.923       66.537     6127.973    24624.869     4427.212       12.541        1.759      461.674       75.187        0.027      349.444       29.875      859.528
07/20/2014  13:56:00       19.702      507.396      -49.519      137.588      187.423       82.697    18930.532    35127.427     6838.729       16.058        3.045      507.778       89.108        0.031      349.320       29.657      859.498
07/20/2014  13:57:00     -101.146      354.321      -32.502      166.913      167.585       85.115    27860.104    28084.869     7244.577       10.000        3.159      368.475       96.457        0.069      349.577       30.103      859.470
07/20/2014  13:58:00      -84.562      279.340       -8.135      121.555      136.382       70.267    14775.737    18600.031     4937.417        6.177        1.916      291.859       76.025        0.068      349.597       30.138      859.450
07/20/2014  13:59:00      -99.557      222.513      -22.418      111.729      133.068       64.321    12483.326    17707.132     4137.252        4.712        1.716      243.770       42.153        0.030      349.989       30.819      859.423
07/20/2014  14:00:00     -127.624      299.044      -30.833      134.633      146.124       67.542    18126.110    21352.153     4561.970        7.534        2.202      325.139       75.299        0.054      349.789       30.472      859.431
07/20/2014  14:01:00       12.686      285.994      -18.357       97.438      132.085       84.347     9494.154    17446.478     7114.352        5.817        1.703      286.276       85.600        0.089      349.570       30.091      859.420
07/20/2014  14:02:00      -33.710      287.717      -46.501       91.549      138.358       58.619     8381.302    19142.960     3436.134        5.851        1.548      289.686       54.260        0.035      349.562       30.076      859.399
07/20/2014  14:03:00     -169.742      189.805      -38.608      117.835      101.853       73.783    13885.123    10374.134     5443.962        4.801        1.485      254.634       65.223        0.066      349.695       30.310      859.386
07/20/2014  14:04:00     -114.554      272.732      -16.439      162.783      159.385       73.822    26498.307    25403.708     5449.713        7.255        2.868      295.813       74.400        0.063      349.587       30.122      859.353
07/20/2014  14:05:00     -198.655      209.912      -40.603      103.767      120.568       57.004    10767.596    14536.644     3249.478        5.686        1.428      289.010       60.174        0.043      349.439       29.865      859.339
07/20/2014  14:06:00     -236.372      128.108      -23.740      110.002      131.329       69.802    12100.479    17247.260     4872.322        5.353        1.711      268.856       56.458        0.044      349.535       30.031      859.314
07/20/2014  14:07:00     -135.748      110.663      -16.272      102.569      116.169       58.902    10520.356    13495.274     3469.452        2.921        1.374      175.140       62.371        0.127      349.862       30.599      859.305
07/20/2014  14:08:00     -109.132      197.706      -19.325      173.500      189.605       86.424    30102.397    35950.197     7469.069        6.243        3.676      225.826      113.559        0.253      349.771       30.442      859.300
07/20/2014  14:09:00     -169.484      317.767      -31.920      146.023      128.854       94.726    21322.687    16603.309     8972.944        8.880        2.345      360.139       80.458        0.050      349.484       29.941      859.333
07/20/2014  14:10:00      -69.259      245.996      -21.665      112.404      174.989       68.195    12634.748    30621.161     4650.617        5.683        2.395      255.560       78.869        0.095      349.397       29.792      859.305
07/20/2014  14:11:00      -55.866      582.446      -45.231       95.232      268.714      103.996     9069.166    72206.963    10815.109       21.823        4.605      585.119      130.651        0.050      349.216       29.477      859.237
07/20/2014  14:12:00     -216.477      168.921      -12.438      139.065      235.648       80.747    19339.092    55530.148     6520.044        7.845        4.069      274.584       79.763        0.084      349.437       29.861      859.223
07/20/2014  14:13:00     -480.564      187.796      -81.582      203.640      176.831       89.856    41469.292    31269.261     8074.030       17.682        4.041      515.954       98.465        0.036      349.292       29.609      859.218
07/20/2014  14:14:00     -178.897       55.436      -16.571      152.176      119.571       78.507    23157.590    14297.304     6163.354        3.948        2.181      187.289       68.037        0.132      349.426       29.843      859.207
07/20/2014  14:15:00      -60.845      282.923      -12.713       98.610      165.837       76.512     9723.972    27502.041     5854.154        6.349        2.154      289.392       78.340        0.073      349.500       29.970      859.226
07/20/2014  14:16:00     -241.123      377.610      -60.853      155.522      180.297       87.005    24187.004    32506.891     7569.941       13.434        3.213      448.028       93.065        0.043      349.221       29.487      859.207
07/20/2014  14:17:00      -58.131      370.067      -36.913      106.834      150.585       68.260    11413.574    22675.703     4659.411        9.021        1.937      374.605       64.290        0.029      349.442       29.868      859.162
07/20/2014  14:18:00      -66.298      383.576      -52.253       80.631      169.680       50.127     6501.371    28791.228     2512.671        9.602        1.890      389.263       65.744        0.029      349.473       29.924      859.153
07/20/2014  14:19:00     -106.819      288.525      -29.962       91.647      143.583       62.696     8399.179    20615.988     3930.850        6.424        1.647      307.663       66.819        0.047      349.366       29.736      859.143
07/20/2014  14:20:00      -20.382      457.086      -59.501      127.146      147.329       79.558    16166.085    21705.937     6329.514       12.853        2.210      457.540       85.575        0.035      349.385       29.770      859.119
07/20/2014  14:21:00     -185.108      149.215      -44.495      104.105      114.528       65.267    10837.889    13116.615     4259.802        4.336        1.411      237.761       42.517        0.032      349.410       29.814      859.124
07/20/2014  14:22:00     -156.534      209.364      -37.774       74.979       78.614       46.736     5621.798     6180.167     2184.260        4.187        0.699      261.412       35.340        0.018      349.503       29.972      859.115
07/20/2014  14:23:00     -141.126      172.674      -16.798       99.780      156.094       76.075     9955.982    24365.230     5787.448        4.505        2.005      223.009       65.303        0.086      349.611       30.164      859.125
07/20/2014  14:24:00     -180.873      278.974      -46.394      114.046      122.747       69.021    13006.427    15066.798     4763.871        7.276        1.642      332.478       57.574        0.030      349.404       29.802      859.141
07/20/2014  14:25:00      -94.639      145.825      -16.727       75.972      139.702       46.800     5771.820    19516.535     2190.201        2.898        1.374      173.843       42.446        0.060      349.416       29.824      859.116
07/20/2014  14:26:00     -133.806      377.065      -47.007      110.939      145.801       69.653    12307.372    21257.798     4851.514       10.035        1.921      400.102       70.962        0.031      349.316       29.649      859.111
07/20/2014  14:27:00     -121.267      278.334      -32.977       98.948      220.045       58.747     9790.616    48419.727     3451.258        7.745        3.083      303.604       72.260        0.057      349.433       29.855      859.079
07/20/2014  14:28:00     -160.896      495.932      -47.151      117.148      201.336       81.856    13723.549    40536.117     6700.376       16.750        3.048      521.379       83.547        0.026      349.240       29.519      859.061
07/20/2014  14:29:00     -254.196      340.275      -57.079      102.273      158.985       87.530    10459.701    25276.189     7661.526       11.352        2.170      424.739       59.596        0.020      349.299       29.621      859.051
07/20/2014  14:30:00     -305.120      290.132      -71.314      106.288      122.812       74.479    11297.168    15082.793     5547.140       10.714        1.596      421.040       71.705        0.029      349.326       29.667      859.056
07/20/2014  14:31:00     -133.483      416.267      -43.754      123.818      160.462       66.430    15330.912    25747.933     4412.953       11.924        2.275      437.146       61.152        0.020      349.323       29.663      859.050
07/20/2014  14:32:00     -118.331      139.747      -21.335       87.295      155.460       61.026     7620.466    24167.694     3724.233        3.474        1.776      183.115       48.446        0.070      349.437       29.861      859.044
07/20/2014  14:33:00     -114.955      122.754       -1.264      100.004      116.982       50.985    10000.830    13684.704     2599.517        2.728        1.314      168.176       54.130        0.104      349.506       29.983      859.057
07/20/2014  14:34:00     -203.140       52.648      -16.304      145.618      105.542       57.910    21204.505    11139.120     3353.540        3.999        1.785      209.851       56.306        0.072      349.409       29.814      859.049
07/20/2014  14:35:00     -125.238      204.034      -17.795       74.469       94.052       68.964     5545.681     8845.809     4756.074        3.839        0.957      239.405       55.150        0.053      349.250       29.537      859.051
07/20/2014  14:36:00     -169.413      212.209      -34.677      112.203      125.792       68.325    12589.404    15823.639     4668.240        5.400        1.654      271.539       67.091        0.061      349.322       29.661      859.045
07/20/2014  14:37:00     -150.621       15.687      -14.163       78.790       86.190       45.635     6207.891     7428.687     2082.584        1.942        0.786      151.436       23.113        0.023      349.409       29.814      859.037
07/20/2014  14:38:00     -255.724       29.315      -62.351      107.385      104.031       57.984    11531.523    10822.415     3362.148        4.792        1.286      257.399       30.517        0.014      349.188       29.429      859.070
07/20/2014  14:39:00     -306.243      -61.054      -23.108      161.929      122.511       64.710    26221.147    15008.930     4187.448        7.172        2.271      312.270       61.030        0.038      349.172       29.400      859.057
07/20/2014  14:40:00     -365.434      -74.257      -32.904      197.598      104.655       73.861    39045.132    10952.712     5455.419        9.779        2.773      372.903       69.775        0.035      349.212       29.472      859.103
07/20/2014  14:41:00     -316.594      -78.015      -24.850      112.890      122.413       73.048    12744.192    14985.026     5335.995        6.999        1.653      326.065       50.851        0.024      349.194       29.440      859.158
07/20/2014  14:42:00     -296.186     -108.770        2.012      173.777      172.582       78.200    30198.339    29784.547     6115.204        8.282        3.305      315.527       63.943        0.041      349.109       29.292      859.123
07/20/2014  14:43:00     -190.851      -92.607       20.559      161.830      125.224       69.013    26188.995    15681.156     4762.754        4.602        2.332      212.133       80.652        0.145      349.224       29.493      859.129
07/20/2014  14:44:00     -349.385      -14.130      -46.170      103.025       99.856       62.609    10614.111     9971.147     3919.893        7.445        1.225      349.671       55.853        0.026      349.269       29.570      859.169
07/20/2014  14:45:00     -506.395      -66.757      -28.906      185.422      166.204       79.686    34381.272    27623.786     6349.900       16.503        3.418      510.777       78.847        0.024      348.948       29.013      859.206
07/20/2014  14:46:00     -368.399      -29.662      -16.211      160.476      103.078       66.296    25752.569    10625.079     4395.183        8.881        2.039      369.591       75.042        0.041      349.030       29.154      859.202
07/20/2014  14:47:00     -162.351      -84.880        4.560      138.754      121.535       66.788    19252.711    14770.712     4460.620        3.603        1.924      183.200       71.324        0.152      349.133       29.335      859.217
07/20/2014  14:48:00     -151.042     -154.375        5.878      143.999      138.269       77.198    20735.821    19118.301     5959.574        4.624        2.291      215.975       72.995        0.114      349.104       29.284      859.197
07/20/2014  14:49:00     -277.017     -104.266       12.113      188.327      153.276       84.407    35467.041    23493.658     7124.578        7.691        3.304      295.990       98.462        0.111      348.993       29.092      859.168
07/20/2014  14:50:00     -492.772      -40.263      -29.983      318.852      220.916       80.067   101666.560    48803.861     6410.737       20.108        7.844      494.414      106.421        0.046      348.763       28.695      859.164
07/20/2014  14:51:00     -386.587      -67.968      -15.478      213.891      130.525       88.707    45749.360    17036.678     7868.923       11.247        3.533      392.516      103.314        0.069      348.569       28.357      859.146
07/20/2014  14:52:00     -431.040      -61.538      -37.645      200.276      169.284       88.277    40110.423    28657.139     7792.884       13.376        3.828      435.411       88.012        0.041      348.525       28.280      859.166
07/20/2014  14:53:00     -380.147      -97.968        5.950      210.915      171.593      104.929    44485.183    29444.134    11010.165       11.953        4.247      392.568      126.381        0.104      348.572       28.362      859.185
07/20/2014  14:54:00     -490.681      -73.933      -29.514      225.602      180.810       92.285    50896.266    32692.120     8516.575       16.959        4.605      496.220       93.596        0.036      348.410       28.083      859.186
07/20/2014  14:55:00     -424.216     -196.367       -7.942      251.780      193.620      112.017    63393.304    37488.788    12547.783       16.598        5.671      467.460      126.757        0.074      348.294       27.882      859.198
07/20/2014  14:56:00     -436.870      -99.272       -5.044      245.591      159.302       94.647    60314.849    25377.029     8958.142       14.767        4.733      448.007      103.750        0.054      348.218       27.750      859.251
07/20/2014  14:57:00     -372.357     -119.063      -11.628      162.521      115.351       68.822    26412.925    13305.789     4736.479        9.870        2.223      390.930       69.981        0.032      348.271       27.841      859.310
07/20/2014  14:58:00     -486.802      -49.889      -31.357      219.825      159.159       82.544    48323.034    25331.526     6813.525       16.044        4.023      489.351       95.439        0.038      348.154       27.639      859.325
07/20/2014  14:59:00     -278.228     -124.045        0.495      260.537      132.138       81.150    67879.697    17460.323     6585.373        9.234        4.596      304.628      111.569        0.134      348.317       27.922      859.368
07/20/2014  15:00:00     -169.926      -83.108       -4.025      159.475      101.206       62.335    25432.196    10242.577     3885.649        3.767        1.978      189.161       63.971        0.114      348.450       28.153      859.446
07/20/2014  15:01:00      -98.524     -165.109       16.214      166.002      132.508       77.046    27556.578    17558.424     5936.027        4.413        2.553      192.270       86.587        0.203      348.474       28.194      859.584
07/20/2014  15:02:00      -26.825       13.157       40.487      146.909      148.862      120.229    21582.111    22159.791    14454.994        3.035        2.910       29.878      100.909       11.407      348.366       28.008      859.785
07/20/2014  15:03:00      154.473      154.937      178.261      175.323      166.037      125.660    30738.050    27568.370    15790.421        7.686        3.705      218.786      125.737        0.330      347.404       26.348      859.807
07/20/2014  15:04:00      422.553      313.603      242.911      253.370      223.719      201.851    64196.473    50049.991    40743.627       24.542        7.750      526.211      151.149        0.083      345.979       23.893      859.632
07/20/2014  15:05:00      363.361      248.324      223.126      241.502      243.742      193.373    58323.251    59410.047    37393.163       19.927        7.756      440.109      172.621        0.154      345.744       23.491      859.335
07/20/2014  15:06:00      556.195     -326.445       90.809      409.709      645.306      372.400   167861.231   416420.180   138681.875       57.342       36.148      644.919      482.159        0.559      345.621       23.279      859.058
07/20/2014  15:07:00      171.424      -17.121      270.156      291.061      387.373      252.139    84716.624   150057.690    63574.101       20.045       14.917      172.276      272.297        2.498      345.540       23.140      859.318
07/20/2014  15:08:00      491.365     -465.678       31.543      339.209      359.613      199.255   115062.712   129321.790    39702.651       37.163       14.204      676.975      232.094        0.118      345.201       22.558      859.694
07/20/2014  15:09:00      412.813     -343.658       40.245      317.152      434.039      297.070   100585.418   188390.158    88250.535       33.361       18.861      537.136      338.784        0.398      345.149       22.469      859.824
07/20/2014  15:10:00      392.650     -154.496      133.235      364.062      421.717      231.941   132541.192   177845.147    53796.433       27.992       18.209      421.951      294.127        0.486      345.145       22.463      859.859
07/20/2014  15:11:00      183.218      -54.227      182.191      215.133      284.635      189.198    46282.238    81017.047    35795.860       11.637        8.155      191.075      198.873        1.083      345.243       22.631      859.769
07/20/2014  15:12:00      454.214     -275.911       99.222      307.896      400.513      235.735    94800.247   160411.006    55570.881       30.147       15.539      531.448      288.808        0.295      345.133       22.443      859.580
07/20/2014  15:13:00      243.557     -293.946      141.613      325.780      375.321      244.239   106132.485   140866.150    59652.526       23.615       15.333      381.739      260.271        0.465      345.088       22.365      859.560
07/20/2014  15:14:00      553.772     -447.337      -15.169      307.698      371.884      234.790    94678.141   138297.505    55126.417       39.749       14.405      711.881      260.668        0.134      344.955       22.138      859.569
07/20/2014  15:15:00      563.406     -484.413      -83.660      341.385      354.069      206.534   116544.056   125365.087    42656.437       42.177       14.228      743.022      235.030        0.100      344.866       21.985      859.532
07/20/2014  15:16:00      360.951     -228.599      102.477      279.915      420.994      233.643    78352.130   177236.156    54588.834       25.155       15.509      427.250      298.531        0.488      345.050       22.301      859.599
07/20/2014  15:17:00      309.150     -373.081       34.402      215.555      303.202      165.570    46464.106    91931.686    27413.451       20.084        8.290      484.524      202.167        0.174      345.189       22.537      859.584
07/20/2014  15:18:00      219.874     -244.631       82.560      243.278      298.520      189.684    59184.232    89114.344    35980.018       14.960        9.214      328.921      201.227        0.374      345.280       22.694      859.584
07/20/2014  15:19:00      160.137     -195.482       18.718      255.644      268.733      131.429    65353.686    72217.367    17273.625       10.950        7.742      252.699      146.189        0.335      345.363       22.836      859.648
07/20/2014  15:20:00      347.531     -243.083       76.004      293.243      347.942      190.952    85991.361   121063.651    36462.851       21.453       12.176      424.107      254.684        0.361      345.303       22.732      859.641
07/20/2014  15:21:00      172.836     -160.476       80.389      235.631      249.207      140.211    55522.041    62104.312    19659.186        9.966        6.864      235.849      169.728        0.518      345.439       22.967      859.678
07/20/2014  15:22:00       41.384     -210.521        2.656      207.258      152.866       90.802    42955.970    23367.862     8244.998        6.029        3.728      214.550       90.992        0.180      345.553       23.161      859.777
07/20/2014  15:23:00       88.836     -163.967       43.734      172.003      195.444      120.728    29585.103    38198.498    14575.267        5.951        4.118      186.486      124.836        0.448      345.499       23.068      859.869
07/20/2014  15:24:00      140.009     -212.052      -10.379      138.508      104.996       72.779    19184.344    11024.255     5296.795        5.008        1.775      254.104       81.112        0.102      345.528       23.120      859.981
07/20/2014  15:25:00      -41.141     -116.137       37.386      195.908      153.878       76.994    38379.870    23678.460     5928.081        4.227        3.399      123.209       81.891        0.442      345.580       23.209      860.090
07/20/2014  15:26:00       22.417     -134.064       25.204      101.174      117.765       74.899    10236.084    13868.582     5609.836        2.441        1.486      135.926       52.707        0.150      345.549       23.157      860.136
07/20/2014  15:27:00       89.026       20.440      148.984      182.550      206.545      156.416    33324.448    42660.943    24466.089        6.548        5.023       91.342      181.131        3.932      345.539       23.139      860.065
07/20/2014  15:28:00       46.008        4.095      121.048      102.979      143.522       72.077    10604.766    20598.590     5195.049        2.659        1.820       46.190       71.331        2.385      345.542       23.144      860.077
07/20/2014  15:29:00      115.514     -120.531       33.967      115.110      140.692       79.857    13250.291    19794.183     6377.196        3.422        1.971      166.946       83.723        0.252      345.564       23.181      860.091
07/20/2014  15:30:00      133.021     -109.324       74.343      169.355      254.752      145.499    28681.233    64898.752    21170.002        7.494        5.737      172.181      160.921        0.873      345.464       23.009      860.040
07/20/2014  15:31:00       69.084     -287.640        7.544       97.966      116.028       79.250     9597.409    13462.548     6280.608        5.845        1.467      295.820       52.341        0.031      345.460       23.001      860.055
07/20/2014  15:32:00      135.104     -130.013       41.090      143.388      240.017      101.068    20560.050    57608.309    10214.691        6.260        4.419      187.501      143.323        0.584      345.444       22.976      860.059
07/20/2014  15:33:00      162.057      -53.989      110.200      171.067      225.988      129.991    29263.881    51070.380    16897.596        6.926        4.862      170.814      158.394        0.860      345.444       22.977      859.998
07/20/2014  15:34:00      126.551     -238.316      -15.577       93.888      108.080       48.178     8814.898    11681.292     2321.082        4.793        1.141      269.832       57.639        0.046      345.361       22.833      860.039
07/20/2014  15:35:00       28.797      -28.616       26.976      142.587       98.910       51.386    20331.023     9783.161     2640.571        1.756        1.638       40.598       56.059        1.907      345.553       23.165      860.115
07/20/2014  15:36:00     -247.228     -171.858       -7.926      217.188      192.748       79.875    47170.575    37151.806     6380.065        9.069        4.535      301.092      102.357        0.116      345.314       22.753      860.202
07/20/2014  15:37:00     -255.477     -211.913      -15.984      251.182      140.078       92.185    63092.551    19621.832     8498.046       10.080        4.561      331.927      107.346        0.105      344.940       22.114      860.176
07/20/2014  15:38:00     -176.113      -94.085       -2.436       88.294       68.366       52.929     7795.840     4673.861     2801.518        2.757        0.764      199.669       41.013        0.042      345.027       22.262      860.250
07/20/2014  15:39:00     -142.513      -89.348        3.253      105.533       73.737       44.618    11137.179     5437.116     1990.767        2.343        0.928      168.205       52.141        0.096      344.988       22.196      860.221
07/20/2014  15:40:00     -202.992     -183.957       -7.994      143.909      164.673       60.874    20709.909    27117.035     3705.696        6.331        2.577      273.945       73.595        0.072      344.998       22.212      860.166
07/20/2014  15:41:00     -262.674     -213.581       -6.992      137.754      158.196       68.955    18976.287    25026.051     4754.782        8.170        2.438      338.548       70.425        0.043      344.982       22.185      860.202
07/20/2014  15:42:00     -224.495     -240.446       -4.613      110.342      137.601       63.891    12175.404    18934.146     4082.064        7.171        1.760      328.956       60.273        0.034      345.225       22.599      860.188
07/20/2014  15:43:00      -22.458     -120.049      -11.623      103.803       70.978       54.312    10775.011     5037.941     2949.839        1.690        0.938      122.131       37.704        0.095      345.517       23.101      860.189
07/20/2014  15:44:00      -27.172     -137.806       -4.103       77.552       96.278       40.813     6014.260     9269.457     1665.703        1.834        0.847      140.459       26.393        0.035      345.393       22.890      860.214
07/20/2014  15:45:00     -101.085      -89.360       -8.394      115.908       76.122       55.227    13434.742     5794.541     3049.970        2.027        1.114      134.920       33.827        0.063      345.636       23.305      860.284
07/20/2014  15:46:00       98.994     -142.238       33.589      136.777      203.781       73.459    18708.066    41526.696     5396.260        4.838        3.282      173.296      102.019        0.347      345.675       23.373      860.374
07/20/2014  15:47:00       41.795     -104.437       53.510      105.474      117.187       87.180    11124.721    13732.730     7600.322        2.398        1.623      112.490       69.853        0.386      345.542       23.146      860.342
07/20/2014  15:48:00       20.764     -172.788       -4.672      119.083      181.139       77.645    14180.866    32811.316     6028.789        4.165        2.651      174.031       84.753        0.237      345.559       23.174      860.434
07/20/2014  15:49:00      102.890      -95.310       78.766      163.330      202.665      119.639    26676.846    41073.300    14313.596        5.395        4.103      140.252      134.299        0.917      345.513       23.093      860.397
07/20/2014  15:50:00       74.432     -129.831       40.324      143.727      145.887       80.897    20657.377    21282.896     6544.312        3.624        2.424      149.653       53.538        0.128      345.536       23.134      860.425
07/20/2014  15:51:00       70.161      -38.095       92.189      154.657      175.634      120.293    23918.641    30847.169    14470.515        4.204        3.462       79.836      125.670        2.478      345.431       22.954      860.477
07/20/2014  15:52:00       29.967     -290.808        6.319      164.024      223.576       97.471    26903.709    49986.131     9500.509        8.593        4.320      292.348       90.097        0.095      345.512       23.093      860.635
07/20/2014  15:53:00      141.588     -176.963       28.538      152.165      225.878       98.839    23154.320    51020.654     9769.119        6.804        4.197      226.635      125.347        0.306      345.263       22.666      860.639
07/20/2014  15:54:00       91.334     -138.712       62.574      132.886      186.067      113.576    17658.754    34620.982    12899.440        4.833        3.259      166.082      126.183        0.577      345.252       22.646      860.604
07/20/2014  15:55:00       54.955     -212.926        5.885      144.820      226.252       76.255    20972.827    51190.045     5814.872        6.317        3.899      219.903       81.867        0.139      345.345       22.806      860.607
07/20/2014  15:56:00      129.525      -90.306       14.651      137.348      124.217       98.994    18864.406    15429.969     9799.833        3.461        2.205      157.898       85.798        0.295      345.244       22.634      860.588
07/20/2014  15:57:00       41.210      -84.056       38.006       66.338       98.801       53.402     4400.679     9761.693     2851.731        1.361        0.851       93.615       54.902        0.344      345.219       22.593      860.654
07/20/2014  15:58:00     -118.191      -27.622      -10.287      119.519       55.416       37.871    14284.755     3070.963     1434.212        1.681        0.939      121.376       30.037        0.061      345.281       22.699      860.688
07/20/2014  15:59:00      -16.940     -146.096       -3.633       75.355       98.894       46.210     5678.318     9780.076     2135.333        1.962        0.880      147.075       34.605        0.055      345.184       22.533      860.770
07/20/2014  16:00:00     -142.381      -93.419        4.889       91.410       86.373       48.945     8355.840     7460.233     2395.637        2.361        0.911      170.292       41.780        0.060      345.248       22.640      860.818
07/20/2014  16:01:00     -227.352      -27.707       -2.351      108.272       79.552       49.730    11722.733     6328.586     2473.031        3.649        1.026      229.034       45.991        0.040      345.189       22.538      860.806
07/20/2014  16:02:00     -283.448     -109.888        0.512      121.391       93.453       60.129    14735.865     8733.534     3615.476        5.975        1.354      304.003       53.994        0.032      345.264       22.665      860.826
07/20/2014  16:03:00     -222.048     -164.152       14.505      190.963      127.501       84.353    36466.950    16256.592     7115.366        6.814        2.992      276.136       65.144        0.056      345.303       22.734      860.916
07/20/2014  16:04:00       -1.343       33.711        8.746       89.571      149.251       73.197     8023.009    22275.865     5357.801        1.843        1.783       33.738       46.825        1.926      345.408       22.916      860.761
07/20/2014  16:05:00      108.531     -209.931       10.539      137.981      253.681      106.110    19038.817    64353.830    11259.235        7.529        4.733      236.326      104.888        0.197      345.487       23.049      860.703
07/20/2014  16:06:00      104.030     -516.839      -13.723      251.736      205.846      119.350    63371.182    42372.772    14244.407       19.904        5.999      527.205       88.088        0.028      345.408       22.912      860.882
07/20/2014  16:07:00      129.426       51.381      206.882      192.046      270.254      173.772    36881.564    73037.088    30196.713       10.113        7.006      139.252      200.808        2.080      345.440       22.966      860.541
07/20/2014  16:08:00      229.336       72.148      182.129      225.837      264.893      178.435    51002.413    70168.282    31839.059       12.196        7.650      240.417      209.250        0.758      345.419       22.932      860.327
07/20/2014  16:09:00      419.898     -463.828      -58.108      255.341      263.946      140.074    65198.920    69667.552    19620.685       27.463        7.724      625.660      147.498        0.056      345.490       23.053      860.286
07/20/2014  16:10:00      147.283     -297.516       32.225      218.043      267.826      159.181    47542.792    71730.686    25338.682       12.790        7.231      331.976      172.387        0.270      345.794       23.575      860.364
07/20/2014  16:11:00      -72.022      -60.535       25.739      119.109      122.971       71.087    14187.018    15121.923     5053.374        2.193        1.718       94.083       59.122        0.395      345.935       23.819      860.608
07/20/2014  16:12:00      141.243     -226.171       20.468      151.157      179.771      103.025    22848.360    32317.671    10614.150        6.864        3.289      266.651      101.281        0.144      345.862       23.693      860.635
07/20/2014  16:13:00       91.688     -204.116       19.043      137.666      172.267       85.615    18951.938    29676.072     7329.978        5.318        2.798      223.764       85.456        0.146      345.807       23.599      860.568
07/20/2014  16:14:00       -5.382     -160.745        1.705      130.652      120.779       60.036    17069.958    14587.685     3604.292        3.056        1.763      160.835       47.984        0.089      345.864       23.698      860.676
07/20/2014  16:15:00      -72.594     -104.781       -9.534       82.235       73.554       37.208     6762.559     5410.118     1384.466        1.495        0.678      127.471       31.986        0.063      345.686       23.391      860.823
07/20/2014  16:16:00      -57.775       -9.229       18.709      106.981       61.313       40.909    11445.007     3759.227     1673.569        1.032        0.844       58.508       31.856        0.296      345.769       23.535      860.887
07/20/2014  16:17:00       36.241      -74.172      -23.989       63.500       69.805       50.220     4032.194     4872.770     2522.002        0.941        0.571       82.552       22.203        0.072      345.566       23.187      860.895
07/20/2014  16:18:00     -120.695      -66.985       -8.038      155.041       85.022       48.572    24037.743     7228.800     2359.192        2.637        1.681      138.038       38.081        0.076      345.499       23.071      860.885
07/20/2014  16:19:00     -283.169      -94.529       -9.829      127.762      100.236       65.018    16323.208    10047.198     4227.284        5.990        1.530      298.530       58.179        0.038      345.539       23.138      860.988
07/20/2014  16:20:00     -331.799     -193.427      -10.162      135.080      107.767       63.109    18246.615    11613.735     3982.788        9.072        1.692      384.063       58.050        0.023      345.520       23.106      861.059
07/20/2014  16:21:00       -4.240     -281.913      -20.156      151.605      222.845       78.728    22984.159    49659.688     6198.169        7.935        3.942      281.945       84.231        0.089      345.592       23.230      861.069
07/20/2014  16:22:00      212.180     -295.257      -22.208      133.315      227.753      103.553    17772.943    51871.654    10723.180       10.651        4.018      363.589      125.836        0.120      345.595       23.235      860.959
07/20/2014  16:23:00      -12.457      -22.859       95.715       94.507      171.338       93.920     8931.508    29356.694     8820.964        2.846        2.355       26.033      104.971       16.259      345.730       23.468      860.920
07/20/2014  16:24:00      -46.359     -102.167       -6.004       72.349       84.392       52.571     5234.449     7121.973     2763.724        1.387        0.756      112.193       46.388        0.171      345.809       23.604      861.012
07/20/2014  16:25:00      138.040     -225.390      -15.941      124.686      134.189       85.058    15546.555    18006.714     7234.853        5.544        2.039      264.303       77.615        0.086      345.856       23.685      861.036
07/20/2014  16:26:00      100.586      -42.666      100.471      152.001      190.922      131.510    23104.367    36451.047    17294.971        4.943        3.843      109.260      142.963        1.712      345.869       23.705      860.911
07/20/2014  16:27:00      154.295     -254.598      -14.284      167.986      128.720       86.675    28219.212    16568.917     7512.559        7.056        2.615      297.703       73.794        0.061      345.796       23.579      860.890
07/20/2014  16:28:00      -15.441      -73.138        5.380       52.520       53.046       40.487     2758.303     2813.931     1639.208        0.641        0.361       74.750       16.140        0.047      346.087       24.083      861.059
07/20/2014  16:29:00       13.288     -102.976      -12.430       84.922       80.326       55.185     7211.669     6452.326     3045.395        1.382        0.835      103.830       33.663        0.105      345.958       23.860      861.113
07/20/2014  16:30:00       72.615       13.999       80.774       80.408       87.198       66.690     6465.467     7603.407     4447.504        1.525        0.926       73.952       58.291        0.621      345.945       23.837      861.064
07/20/2014  16:31:00       38.987      -60.216       57.228       95.164      127.234       94.614     9056.202    16188.504     8951.762        2.130        1.710       71.736      101.880        2.017      345.852       23.677      861.057
07/20/2014  16:32:00      117.298     -124.595       35.323      108.657      176.572       91.106    11806.259    31177.717     8300.299        4.090        2.564      171.122      109.127        0.407      345.558       23.170      861.077
07/20/2014  16:33:00       73.080      -72.170       26.680      197.858       96.155       82.823    39147.934     9245.814     6859.695        3.325        2.763      102.709       85.015        0.685      345.495       23.064      861.218
07/20/2014  16:34:00     -167.521      -41.100       13.668       97.689       73.728       51.940     9543.150     5435.750     2697.744        2.380        0.884      172.489       50.591        0.086      345.653       23.333      861.303
07/20/2014  16:35:00      -99.654      -45.229        8.404       75.306       62.696       26.682     5670.991     3930.838      711.934        1.118        0.516      109.438       24.456        0.050      345.681       23.384      861.402
07/20/2014  16:36:00       -5.472      -21.899       32.814       22.090       65.376       40.564      487.948     4274.041     1645.410        0.400        0.320       22.573       18.844        0.697      345.899       23.758      861.423
07/20/2014  16:37:00      123.786      -71.281       55.319      149.268      193.807      124.842    22280.929    37561.267    15585.450        4.943        3.771      142.843      141.923        0.987      345.480       23.039      861.350
07/20/2014  16:38:00       91.328      -45.286      115.591      114.487      206.771      141.223    13107.166    42754.308    19944.007        4.976        3.790      101.939      157.676        2.392      345.198       22.555      861.273
07/20/2014  16:39:00      169.968     -192.170       39.187      218.676      303.475      177.714    47819.165    92096.826    31582.230       11.939        8.575      256.551      217.318        0.718      344.788       21.853      861.260
07/20/2014  16:40:00       53.927     -151.471       42.586      143.854      155.133       92.305    20694.078    24066.251     8520.299        4.046        2.664      160.785       98.722        0.377      344.949       22.129      861.292
07/20/2014  16:41:00       95.649     -266.008       -6.452      184.264      136.166       99.518    33953.070    18541.286     9903.737        7.116        3.120      282.681      100.958        0.128      344.863       21.981      861.337
07/20/2014  16:42:00       58.012     -125.808       -0.566      119.085      133.967       80.032    14181.349    17947.079     6405.165        2.886        1.927      138.539       84.263        0.370      344.814       21.898      861.335
07/20/2014  16:43:00      -51.636     -253.911       -4.481      126.171      180.405       63.972    15919.115    32546.013     4092.376        5.985        2.628      259.108       55.292        0.046      344.838       21.938      861.281
07/20/2014  16:44:00      -15.539       34.050       98.962      109.063      135.306       96.340    11894.847    18307.801     9281.452        2.533        1.974       37.428      100.038        7.144      344.990       22.198      861.218
07/20/2014  16:45:00     -136.892     -118.655       -2.832      153.712      119.404       59.673    23627.490    14257.386     3560.912        3.713        2.072      181.158       69.176        0.146      344.979       22.178      861.281
07/20/2014  16:46:00       60.393      -13.581       29.757      155.063      214.193       89.965    24044.673    45878.657     8093.722        4.135        3.901       61.901       92.057        2.212      344.880       22.011      861.224
07/20/2014  16:47:00       25.242      -68.877       25.082      187.245      139.112       65.865    35060.726    19352.284     4338.150        3.237        2.938       73.357       57.622        0.617      344.989       22.200      861.167
07/20/2014  16:48:00      171.732     -182.143       51.643      209.293      176.893      128.640    43803.688    31291.091    16548.165        7.847        4.582      250.336      123.091        0.242      344.774       21.829      861.107
07/20/2014  16:49:00       88.262      -73.467       16.544      125.534       76.994       66.109    15758.858     5928.067     4370.337        1.975        1.303      114.837       47.165        0.169      344.904       22.054      861.203
07/20/2014  16:50:00      -82.033       28.534       22.285      110.928       62.220       58.936    12305.101     3871.318     3473.424        1.384        0.982       86.854       50.401        0.337      344.897       22.042      861.195
07/20/2014  16:51:00      -31.751      -33.362       -6.233       48.360       43.907       27.957     2338.657     1927.855      781.606        0.360        0.252       46.056       26.978        0.343      345.114       22.413      861.299
07/20/2014  16:52:00       80.006     -176.204       16.640      154.433      214.261      121.362    23849.687    45907.631    14728.642        6.109        4.224      193.517      145.439        0.565      344.916       22.071      861.285
07/20/2014  16:53:00       86.840      -67.863       93.895      140.138      238.337      156.825    19638.616    56804.529    24593.945        6.098        5.052      110.211      183.999        2.787      344.878       22.007      861.225
07/20/2014  16:54:00      117.144      -96.321       55.448      132.033      158.661       98.818    17432.624    25173.313     9764.902        3.921        2.619      151.659      105.882        0.487      344.921       22.080      861.253
07/20/2014  16:55:00       76.100      -93.459       29.945      121.147      105.246       64.628    14676.527    11076.686     4176.828        2.267        1.497      120.523       68.499        0.323      345.046       22.296      861.351
07/20/2014  16:56:00       34.233     -174.679        7.990      114.800      114.661       75.806    13179.146    13147.222     5746.500        3.190        1.604      178.002       69.944        0.154      345.050       22.301      861.379
07/20/2014  16:57:00      -24.684     -112.616       13.709       92.450       94.037       61.474     8547.067     8843.048     3779.086        1.732        1.058      115.289       33.181        0.083      345.130       22.440      861.438
07/20/2014  16:58:00       -4.017      -89.440        3.363       85.975       69.872       39.234     7391.689     4882.084     1539.270        1.092        0.691       89.530       18.971        0.045      345.162       22.495      861.450
07/20/2014  16:59:00       83.893     -111.681        4.062       72.605      118.805       75.476     5271.420    14114.633     5696.572        2.230        1.254      139.681       73.084        0.274      344.994       22.206      861.400
07/20/2014  17:00:00       80.438       44.513      118.400      107.891      169.154       92.843    11640.538    28613.020     8619.741        3.566        2.444       91.933      117.299        1.628      345.082       22.355      861.311
07/20/2014  17:01:00      219.522      -81.535      104.978      199.659      280.026      178.079    39863.590    78414.333    31712.024       10.789        7.499      234.175      216.060        0.851      344.937       22.108      861.238
07/20/2014  17:02:00      178.625     -253.862      -16.258      149.479      204.729      123.028    22344.101    41914.137    15135.959        8.799        3.970      310.408      129.928        0.175      344.811       21.890      861.282
07/20/2014  17:03:00       93.495     -163.376        7.286       91.221      140.664       63.192     8321.248    19786.480     3993.244        3.379        1.605      188.236       41.908        0.050      344.905       22.054      861.389
07/20/2014  17:04:00      193.949      -56.301       81.401      178.838      174.134      132.990    31983.162    30322.726    17686.237        6.369        4.000      201.955      134.581        0.444      344.846       21.952      861.370
07/20/2014  17:05:00      245.594     -151.069       55.605      211.046      240.383      144.373    44540.266    57784.217    20843.522       10.467        6.158      288.337      171.032        0.352      344.693       21.690      861.334
07/20/2014  17:06:00      139.930     -125.849       48.741      160.119      142.156      113.148    25638.254    20208.204    12802.517        4.821        2.932      188.198      116.431        0.383      344.811       21.891      861.374
07/20/2014  17:07:00       79.545      -94.806       79.718      116.698      142.037       86.463    13618.483    20174.393     7475.793        3.146        2.063      123.756       80.632        0.424      344.869       21.993      861.427
07/20/2014  17:08:00      114.252     -124.316       35.138       93.786      105.343       54.845     8795.827    11097.244     3008.003        2.632        1.145      168.843       42.961        0.065      344.908       22.058      861.490
07/20/2014  17:09:00       11.621      -21.563       53.766       51.572       93.624       55.977     2659.659     8765.507     3133.395        0.902        0.728       24.495       57.119        5.437      345.055       22.312      861.513
07/20/2014  17:10:00       87.982       -8.112       70.157      108.617      165.338       60.767    11797.643    27336.773     3692.685        2.777        2.141       88.355       84.370        0.912      344.944       22.122      861.516
07/20/2014  17:11:00      178.197     -176.571       51.729      125.585      147.763       94.164    15771.593    21833.997     8866.782        5.603        2.324      250.861       86.258        0.118      344.767       21.817      861.501
07/20/2014  17:12:00       34.767      -12.435       41.754      109.087       93.646       60.977    11899.981     8769.664     3718.136        1.374        1.219       36.924       54.407        2.171      344.985       22.191      861.529
07/20/2014  17:13:00      193.765     -231.995       -9.858      110.360      145.126       77.409    12179.308    21061.697     5992.230        6.534        1.962      302.269       79.930        0.070      344.662       21.635      861.535
07/20/2014  17:14:00      124.023     -104.713       34.898      111.084      176.069       87.004    12339.747    31000.322     7569.649        3.923        2.545      162.316      114.733        0.500      344.731       21.756      861.543
07/20/2014  17:15:00       67.689      -78.243       28.804       54.459       90.498       41.766     2965.804     8189.954     1744.397        1.221        0.645      103.459       44.412        0.184      344.821       21.911      861.562
07/20/2014  17:16:00      -12.472     -127.857        4.324      116.391      108.843       56.048    13546.936    11846.800     3141.351        2.252        1.427      128.464       60.233        0.220      344.974       22.172      861.559
07/20/2014  17:17:00       18.460     -128.864        9.926       86.307       64.261       57.900     7448.881     4129.448     3352.462        1.598        0.747      130.179       34.626        0.071      345.035       22.278      861.569
07/20/2014  17:18:00       19.326      -59.108       14.114       57.121       54.680       34.647     3262.822     2989.887     1200.442        0.576        0.373       62.187       33.978        0.299      345.216       22.588      861.594
07/20/2014  17:19:00       13.227       19.284       66.133       40.637       66.705       46.716     1651.333     4449.510     2182.356        0.660        0.414       23.384       44.973        3.699      345.218       22.591      861.584
07/20/2014  17:20:00        8.611      -23.366       62.854       60.650       48.472       57.825     3678.411     2349.525     3343.685        0.697        0.469       24.902       50.208        4.065      345.287       22.708      861.588
07/20/2014  17:21:00       27.601      -19.934       28.360       60.615       61.193       50.104     3674.165     3744.528     2510.435        0.594        0.496       34.047       38.097        1.252      345.279       22.695      861.595
07/20/2014  17:22:00        4.600      -45.011       35.172      102.736       95.410       62.750    10554.779     9103.162     3937.533        1.344        1.180       45.245       69.466        2.357      345.149       22.472      861.577
07/20/2014  17:23:00       29.151      -62.399       40.209       81.943      106.351       81.571     6714.600    11310.493     6653.839        1.551        1.234       68.872       83.564        1.472      345.141       22.459      861.586
07/20/2014  17:24:00       73.914      -44.951       82.592      105.840      168.183       80.758    11202.116    28285.379     6521.901        3.015        2.300       86.510      102.065        1.392      344.932       22.100      861.611
07/20/2014  17:25:00      133.471     -238.062       -4.677       93.745      132.418       68.887     8788.143    17534.521     4745.441        5.278        1.553      272.924       57.506        0.044      344.872       21.996      861.646
07/20/2014  17:26:00      121.473     -157.177       11.535       79.910      125.432       63.785     6385.648    15733.222     4068.522        3.289        1.309      198.647       65.800        0.110      344.995       22.207      861.677
07/20/2014  17:27:00       88.465      -97.237       47.983      106.008      151.186       90.037    11237.635    22857.286     8106.679        3.088        2.110      131.458       90.217        0.471      345.064       22.325      861.675
07/20/2014  17:28:00      151.223     -153.206       15.506      136.845      168.534      117.237    18726.449    28403.813    13744.535        5.372        3.044      215.268      119.067        0.306      344.873       21.998      861.684
07/20/2014  17:29:00      110.343      -95.679       65.028      124.728      182.675      106.189    15557.158    33370.046    11276.185        4.287        3.010      146.048      118.081        0.654      344.866       21.987      861.708
07/20/2014  17:30:00      244.331     -182.421       -7.128      131.687      143.363       83.001    17341.483    20552.949     6889.211        6.890        2.239      304.918       81.187        0.071      344.705       21.711      861.722
07/20/2014  17:31:00      134.792      -79.521       22.721      110.526       99.501       68.281    12216.061     9900.542     4662.337        2.589        1.339      156.500       79.966        0.261      344.788       21.855      861.746
07/20/2014  17:32:00      209.690     -233.613      -52.376       76.690      110.062       61.236     5881.333    12113.704     3749.887        6.151        1.087      313.919       42.923        0.019      344.787       21.850      861.771
07/20/2014  17:33:00      184.058     -217.321      -31.870      139.604      135.631       72.494    19489.391    18395.895     5255.434        6.262        2.157      284.791       74.025        0.068      344.807       21.884      861.778
07/20/2014  17:34:00      173.171     -163.114        0.912      131.916      198.333      119.052    17401.808    39336.115    14173.430        6.374        3.546      237.895      140.153        0.347      344.783       21.844      861.782
07/20/2014  17:35:00      106.686      -35.929       69.603      130.007      107.889       82.521    16901.938    11639.993     6809.727        2.643        1.768      112.573       94.720        0.708      344.881       22.013      861.821
07/20/2014  17:36:00       80.661      134.675      178.725      117.141      127.616       87.569    13721.984    16285.734     7668.257        4.712        1.884      156.982       98.601        0.395      344.775       21.830      861.830
07/20/2014  17:37:00       95.796      -78.330       35.638      109.430      115.970       77.853    11974.845    13448.933     6061.114        2.403        1.574      123.743       66.007        0.285      344.847       21.954      861.842
07/20/2014  17:38:00       57.120       31.988      113.220       74.342      155.396       87.858     5526.748    24147.809     7719.002        2.724        1.870       65.467      104.669        2.556      344.794       21.864      861.882
07/20/2014  17:39:00       90.879        2.383       73.327      104.730      109.778       66.732    10968.291    12051.209     4453.180        2.055        1.374       90.910       75.749        0.694      344.864       21.983      861.934
07/20/2014  17:40:00      149.449      -42.365       68.544      114.938      113.018       87.916    13210.835    12772.992     7729.267        3.126        1.686      155.338       72.508        0.218      344.761       21.807      861.938
07/20/2014  17:41:00      104.335      -81.684       34.711       90.603      116.546       68.386     8208.881    13583.058     4676.661        2.261        1.323      132.507       61.133        0.213      344.773       21.829      861.952
07/20/2014  17:42:00      105.589        0.239      107.407      116.322      196.012      128.307    13530.843    38420.717    16462.778        4.554        3.421      105.589      151.551        2.060      344.744       21.777      861.948
07/20/2014  17:43:00      128.898     -110.575        6.940       81.674       93.504       54.729     6670.691     8743.089     2995.316        2.365        0.920      169.828       58.844        0.120      344.755       21.797      861.995
07/20/2014  17:44:00       92.207     -211.860        6.400       72.598      216.016       53.503     5270.445    46662.945     2862.609        5.410        2.740      231.056       86.945        0.142      344.740       21.772      862.010
07/20/2014  17:45:00      134.473      -28.457       75.037      126.574      192.131      118.479    16020.885    36914.417    14037.271        4.573        3.349      137.451      133.470        0.943      344.707       21.713      861.999
07/20/2014  17:46:00       28.169     -116.272       30.163       81.875      144.056       84.110     6703.582    20752.209     7074.534        2.487        1.727      119.636       96.349        0.649      344.691       21.687      862.040
07/20/2014  17:47:00       96.242     -124.599       48.952      138.865      150.339       90.740    19283.576    22601.890     8233.715        3.864        2.506      157.440       97.231        0.381      344.658       21.631      862.046
07/20/2014  17:48:00       94.546     -102.984       34.108      120.525      131.286       87.073    14526.308    17236.075     7581.678        3.002        1.967      139.803       90.161        0.416      344.638       21.598      862.071
07/20/2014  17:49:00      138.443     -130.387       27.573      111.189      174.222       80.654    12363.012    30353.469     6505.139        4.306        2.461      190.177      111.714        0.345      344.524       21.400      862.096
07/20/2014  17:50:00      165.549     -113.433       11.275      132.671      181.224      104.427    17601.614    32841.983    10905.022        5.086        3.067      200.683      133.903        0.445      344.540       21.428      862.121
07/20/2014  17:51:00      152.461     -129.572       10.800      138.234      166.102       96.786    19108.622    27589.962     9367.454        4.810        2.803      200.083      110.817        0.307      344.485       21.335      862.154
07/20/2014  17:52:00       76.709      -86.667       33.806       67.638      108.497       65.040     4574.952    11771.495     4230.247        1.755        1.029      115.738       74.709        0.417      344.432       21.245      862.186
07/20/2014  17:53:00       37.997      -65.469       56.537       53.558      112.867       57.256     2868.506    12739.056     3278.253        1.390        0.944       75.696       62.732        0.687      344.559       21.463      862.195
07/20/2014  17:54:00       60.430       31.218       80.281       80.351       70.043       49.086     6456.250     4906.035     2409.459        1.242        0.689       68.017       49.975        0.540      344.601       21.536      862.208
07/20/2014  17:55:00       86.154     -154.306       10.797       80.190       83.802       48.240     6430.463     7022.694     2327.132        2.356        0.789      176.729       38.158        0.047      344.531       21.414      862.197
07/20/2014  17:56:00       78.149      -66.546       51.024      120.194      188.677       86.918    14446.593    35598.981     7554.781        3.536        2.880      102.643      127.593        1.545      344.588       21.511      862.193
07/20/2014  17:57:00       -9.847       -3.164       36.598       42.904       39.479       26.374     1840.772     1558.597      695.597        0.277        0.205       10.343       27.252        6.942      344.731       21.757      862.212
07/20/2014  17:58:00       25.008      -75.979        8.164       79.298       83.695       44.561     6288.179     7004.863     1985.657        1.087        0.764       79.988       32.310        0.163      344.662       21.639      862.216
07/20/2014  17:59:00       29.186     -136.728       10.867       66.570      117.900       49.027     4431.522    13900.485     2403.629        2.020        1.037      139.809       56.524        0.163      344.701       21.704      862.224
07/20/2014  18:00:00       50.033      -36.511       87.772       74.019      139.770       93.123     5478.812    19535.778     8671.924        2.261        1.684       61.939       96.799        2.442      344.560       21.464      862.221
07/20/2014  18:01:00       93.655      -52.265       74.603      103.326      145.102       84.287    10676.254    21054.729     7104.228        2.794        1.942      107.251       97.814        0.832      344.444       21.267      862.236
07/20/2014  18:02:00       61.383     -159.258       14.422       89.950       87.553       43.795     8090.936     7665.512     1917.971        2.350        0.884      170.678       33.400        0.038      344.467       21.305      862.260
07/20/2014  18:03:00       -6.345      -73.818       19.859      123.899       87.027       45.314    15350.980     7573.676     2053.394        1.543        1.249       74.090       48.306        0.425      344.541       21.431      862.257
07/20/2014  18:04:00      112.208     -142.053       15.287      155.718      189.104       72.741    24248.229    35760.202     5291.209        4.914        3.265      181.024       96.087        0.282      344.509       21.377      862.235
07/20/2014  18:05:00       83.996        5.574       89.712      113.114      144.225       87.623    12794.706    20800.895     7677.792        2.820        2.064       84.181       99.582        1.399      344.461       21.295      862.223
07/20/2014  18:06:00       56.089      -20.627      115.945       79.230      113.418       90.334     6277.321    12863.635     8160.161        2.215        1.365       59.762       82.247        1.894      344.494       21.350      862.187
07/20/2014  18:07:00      161.988     -224.581      -12.380      118.270       92.773       67.547    13987.892     8606.774     4562.605        5.199        1.358      276.906       69.668        0.063      344.392       21.174      862.204
07/20/2014  18:08:00       99.394     -166.076        5.362      102.545      101.385       74.817    10515.547    10278.982     5597.555        3.194        1.320      193.547       63.904        0.109      344.447       21.270      862.222
07/20/2014  18:09:00      154.447     -154.306       10.033      133.212      114.303       55.928    17745.477    13065.180     3127.971        4.085        1.697      218.322       71.555        0.107      344.427       21.237      862.230
07/20/2014  18:10:00       89.516      -63.498       42.851       96.721      127.539       75.588     9354.857    16266.248     5713.604        2.260        1.567      109.750       93.840        0.731      344.449       21.274      862.224
07/20/2014  18:11:00       61.479     -106.026       73.604       84.015      200.227       83.040     7058.523    40090.926     6895.575        3.723        2.702      122.561      119.811        0.956      344.475       21.318      862.223
07/20/2014  18:12:00       58.948      -64.893       71.605      113.346      149.641      100.060    12847.366    22392.523    10012.051        2.902        2.263       87.670      112.369        1.643      344.416       21.219      862.215
07/20/2014  18:13:00       29.068      -40.068       51.666       65.192      112.216       51.943     4250.007    12592.433     2698.114        1.233        0.977       49.502       62.453        1.592      344.488       21.342      862.223
07/20/2014  18:14:00       58.701        2.251       43.488       79.831       58.593       44.577     6373.044     3433.107     1987.116        0.857        0.590       58.744       40.463        0.474      344.625       21.575      862.222
07/20/2014  18:15:00       77.594       -9.979       61.004       71.478      127.341       63.545     5109.042    16215.838     4037.977        1.760        1.268       78.233       74.772        0.913      344.523       21.401      862.232
07/20/2014  18:16:00      130.517     -163.046       57.276      112.833      193.367      104.017    12731.354    37390.647    10819.478        5.391        3.047      208.850      125.521        0.361      344.358       21.117      862.239
07/20/2014  18:17:00       44.096      -66.901       29.259       63.799      125.254       54.680     4070.323    15688.595     2989.901        1.501        1.137       80.126       76.782        0.918      344.419       21.223      862.277
07/20/2014  18:18:00       33.212        7.445       33.136       39.319       61.092       31.683     1545.990     3732.210     1003.827        0.427        0.314       34.036       28.494        0.701      344.469       21.309      862.285
07/20/2014  18:19:00       13.968      -45.553       12.824       37.976       62.023       41.829     1442.181     3846.876     1749.666        0.474        0.352       47.646       35.325        0.550      344.637       21.597      862.288
07/20/2014  18:20:00        9.762      -30.693       59.678       48.198      105.965       54.272     2323.049    11228.586     2945.495        1.054        0.825       32.208       71.344        4.907      344.673       21.658      862.283
07/20/2014  18:21:00      -78.124     -130.369       -0.331      100.236       73.131       45.680    10047.163     5348.186     2086.664        2.029        0.874      151.985       49.130        0.104      344.444       21.264      862.276
07/20/2014  18:22:00       19.835       25.344       82.248       77.464      108.176       55.384     6000.699    11702.081     3067.355        1.428        1.039       32.183       77.915        5.861      344.559       21.462      862.282
07/20/2014  18:23:00       74.601       -3.706       70.515      103.400      117.315       69.988    10691.615    13762.849     4898.354        1.995        1.468       74.693       84.352        1.275      344.425       21.233      862.274
07/20/2014  18:24:00       88.517      -95.103       26.566       78.763      105.234       68.951     6203.635    11074.284     4754.298        1.980        1.102      129.923       79.168        0.371      344.470       21.309      862.260
07/20/2014  18:25:00       46.134      -38.051       27.970       65.259      102.263       51.279     4258.777    10457.797     2629.520        1.085        0.867       59.801       56.579        0.895      344.516       21.390      862.257
07/20/2014  18:26:00      116.251     -157.387       28.690      109.955      122.274       52.506    12089.996    14950.904     2756.843        3.445        1.490      195.666       57.877        0.087      344.340       21.087      862.265
07/20/2014  18:27:00      189.475     -304.339      -25.992      101.615      127.194       68.068    10325.623    16178.313     4633.213        8.016        1.557      358.501       63.183        0.031      344.230       20.897      862.244
07/20/2014  18:28:00      156.225     -206.486       -6.623      125.890      137.379       68.929    15848.385    18873.064     4751.215        5.327        1.974      258.927       76.043        0.086      344.288       20.997      862.257
07/20/2014  18:29:00      116.242      -13.576       81.098      110.375      122.541       73.506    12182.570    15016.268     5403.178        2.643        1.630      117.032       79.363        0.460      344.329       21.069      862.248
07/20/2014  18:30:00        0.501      -84.568       14.432       75.831       72.702       46.802     5750.401     5285.641     2190.466        1.029        0.661       84.569       33.111        0.153      344.418       21.221      862.260
07/20/2014  18:31:00       44.151      -90.736        5.371       68.274      107.281       56.229     4661.377    11509.274     3161.695        1.477        0.967      100.908       52.619        0.272      344.422       21.229      862.246
07/20/2014  18:32:00       86.790      -90.746       10.107       73.184       96.522       49.484     5355.872     9316.590     2448.699        1.649        0.856      125.569       62.982        0.252      344.331       21.073      862.245
07/20/2014  18:33:00       86.587      -62.013       20.560       48.096       50.570       34.938     2313.236     2557.319     1220.632        0.893        0.305      106.503       31.049        0.085      344.358       21.121      862.233
07/20/2014  18:34:00       47.265      -55.333        6.776       50.882       46.805       35.521     2588.940     2190.739     1261.707        0.569        0.302       72.771       31.957        0.193      344.437       21.255      862.223
07/20/2014  18:35:00       45.064      -57.103       13.570       46.129       75.392       38.667     2127.844     5683.995     1495.123        0.739        0.465       72.743       39.001        0.287      344.583       21.505      862.203
07/20/2014  18:36:00       54.672     -160.146       -7.422       35.247       48.784       33.451     1242.358     2379.855     1118.958        1.672        0.237      169.221       23.889        0.020      344.402       21.194      862.178
07/20/2014  18:37:00       10.460       22.415       23.309       37.121       46.867       25.165     1377.969     2196.478      633.276        0.268        0.210       24.735       18.131        0.537      344.527       21.411      862.162
07/20/2014  18:38:00       14.508       -5.730       43.472       26.695       38.446       29.563      712.636     1478.087      873.994        0.260        0.153       15.598       27.162        3.032      344.584       21.507      862.170
07/20/2014  18:39:00       -7.680      -15.517       10.022       32.942       59.598       31.140     1085.191     3551.899      969.708        0.300        0.280       17.313       33.051        3.644      344.492       21.350      862.182
07/20/2014  18:40:00      -86.089      -28.519       -6.542       36.917       47.050       23.199     1362.837     2213.706      538.210        0.619        0.206       90.690       19.197        0.045      344.507       21.375      862.199
07/20/2014  18:41:00      -90.057      -22.425        6.227       42.023       28.591       22.402     1765.925      817.445      501.850        0.587        0.154       92.807       12.851        0.019      344.469       21.307      862.212
07/20/2014  18:42:00      -29.780        1.647       18.306       46.706       19.654       19.460     2181.415      386.290      378.702        0.208        0.147       29.826       26.205        0.772      344.556       21.458      862.225
07/20/2014  18:43:00       42.716       35.043       28.057       45.447       29.594       23.704     2065.454      875.790      561.881        0.367        0.175       55.251       18.234        0.109      344.550       21.450      862.216
07/20/2014  18:44:00       76.838       50.582       41.567       65.839       44.254       31.684     4334.754     1958.454     1003.862        0.874        0.365       91.993       33.050        0.129      344.551       21.450      862.200
07/20/2014  18:45:00      102.175       31.543       32.181       56.951       29.323       35.245     3243.432      859.843     1242.232        0.891        0.267      106.933       25.367        0.056      344.533       21.420      862.211
07/20/2014  18:46:00      121.809       85.517       23.913       51.833       39.846       38.688     2686.643     1587.678     1496.743        1.425        0.289      148.831       19.952        0.018      344.394       21.183      862.217
07/20/2014  18:47:00      180.722      116.367       22.785       44.856       40.900       42.789     2012.042     1672.849     1830.867        2.612        0.276      214.946       22.868        0.011      344.371       21.138      862.218
07/20/2014  18:48:00       76.407       67.297       49.409       76.425       47.242       40.264     5840.756     2231.800     1621.223        1.125        0.485      101.818       31.422        0.095      344.614       21.557      862.202
07/20/2014  18:49:00       72.687       59.281        7.687       53.603       69.815       38.976     2873.239     4874.077     1519.118        0.906        0.463       93.795       35.081        0.140      344.517       21.393      862.233
07/20/2014  18:50:00        4.515      152.777      -26.196       29.850       21.241       13.618      891.024      451.175      185.449        1.279        0.076      152.843       10.926        0.005      344.406       21.203      862.282
07/20/2014  18:51:00       89.611       88.304        0.663       46.769       41.556       27.834     2187.381     1726.939      774.758        1.026        0.234      125.809       24.364        0.038      344.446       21.270      862.294
07/20/2014  18:52:00      136.277      102.531       11.570       36.167       30.319       32.927     1308.047      919.238     1084.172        1.626        0.166      170.540       16.649        0.010      344.391       21.177      862.294
07/20/2014  18:53:00      127.694       85.634       11.441       39.775       37.244       31.086     1582.089     1387.148      966.344        1.385        0.197      153.750       16.011        0.011      344.405       21.200      862.290
07/20/2014  18:54:00       76.992       68.370       -3.447       54.245       38.187       30.124     2942.550     1458.210      907.454        0.796        0.265      102.967       22.242        0.047      344.438       21.257      862.306
07/20/2014  18:55:00       57.043       48.636        5.489       31.390       31.219       23.433      985.358      974.632      549.105        0.408        0.125       74.962       14.805        0.039      344.431       21.245      862.334
07/20/2014  18:56:00       20.538       70.568      -14.109       23.200       24.105       14.063      538.246      581.058      197.779        0.346        0.066       73.496       12.303        0.028      344.389       21.172      862.351
07/20/2014  18:57:00       51.902       59.073       -5.218       21.328       22.146       14.752      454.893      490.459      217.621        0.369        0.058       78.635       14.063        0.032      344.369       21.140      862.345
07/20/2014  18:58:00      103.441       93.026       59.324       80.605       41.174       48.745     6497.178     1695.258     2376.102        1.672        0.528      139.118       50.088        0.130      344.493       21.350      862.296
07/20/2014  18:59:00      -27.795       23.831       81.377       33.970       56.161       52.854     1153.936     3154.112     2793.574        0.753        0.355       36.612       41.682        1.296      344.725       21.747      862.278
07/20/2014  19:00:00       -9.223       -7.556       42.924       35.516       73.617       49.514     1261.371     5419.395     2451.668        0.556        0.457       11.923       42.076       12.454      344.736       21.765      862.288
07/20/2014  19:01:00       36.570       37.902       45.145       44.328       67.886       30.404     1964.953     4608.507      924.382        0.615        0.375       52.668       29.251        0.308      344.625       21.577      862.285
07/20/2014  19:02:00       58.764       74.706       68.103       55.696       53.505       46.103     3102.027     2862.807     2125.471        1.088        0.405       95.048       42.495        0.200      344.695       21.696      862.268
07/20/2014  19:03:00       98.107       63.632       41.541       65.406       47.384       37.726     4277.920     2245.275     1423.226        1.167        0.397      116.936       33.673        0.083      344.612       21.556      862.254
07/20/2014  19:04:00       39.411       13.706       26.064       32.204       36.027       40.634     1037.098     1297.977     1651.108        0.320        0.199       41.726       25.216        0.365      344.596       21.527      862.272
07/20/2014  19:05:00      -33.734      -70.075       -2.519       74.470       34.452       33.694     5545.800     1186.924     1135.266        0.696        0.393       77.772       17.951        0.053      344.708       21.719      862.275
07/20/2014  19:06:00      -56.807      -69.139      -17.485       57.344       28.303       28.880     3288.317      801.049      834.036        0.662        0.246       89.483       30.934        0.120      344.664       21.645      862.291
07/20/2014  19:07:00      -21.620       -8.698       -2.143       21.755       31.633       22.744      473.285     1000.653      517.295        0.127        0.100       23.304       19.824        0.724      344.676       21.666      862.281
07/20/2014  19:08:00      -31.298      -18.830        8.244       26.318       29.555       23.728      692.618      873.505      563.007        0.177        0.106       36.526       15.377        0.177      344.717       21.734      862.280
07/20/2014  19:09:00      -14.086       12.459       31.457       20.624       18.477       15.138      425.339      341.382      229.150        0.117        0.050       18.806       12.551        0.445      344.830       21.928      862.274
07/20/2014  19:10:00      -12.684      -13.573       13.436       27.992       49.360       25.579      783.533     2436.390      654.265        0.220        0.194       18.577       20.887        1.264      344.802       21.878      862.284
07/20/2014  19:11:00       62.495     -118.535      -15.686       42.058       35.132       25.525     1768.868     1234.230      651.527        1.093        0.183      134.000       22.175        0.027      344.784       21.848      862.305
07/20/2014  19:12:00       -4.807      -15.947       54.776       67.722       63.292       54.120     4586.324     4005.844     2928.993        0.740        0.576       16.656       46.805        7.897      344.780       21.840      862.313
07/20/2014  19:13:00      -90.784       79.810       -2.595       71.088       54.415       35.903     5053.434     2961.042     1289.047        1.196        0.465      120.877       26.345        0.048      344.706       21.714      862.363
07/20/2014  19:14:00       29.567       37.035      -16.578      105.068       61.804       44.741    11039.373     3819.744     2001.753        0.969        0.843       47.390       37.366        0.622      344.711       21.724      862.359
07/20/2014  19:15:00      -93.528      -91.017      -25.960      109.945       86.207       51.918    12087.988     7431.628     2695.435        1.996        1.111      130.505       32.399        0.062      344.765       21.816      862.343
07/20/2014  19:16:00     -155.690      -42.636        2.883      127.580       74.538       50.229    16276.652     5555.940     2522.942        2.521        1.218      161.423       62.914        0.152      344.648       21.613      862.382
07/20/2014  19:17:00     -294.651       34.952      -11.212      148.969      105.297       60.619    22191.624    11087.551     3674.634        6.255        1.848      296.717       75.625        0.065      344.575       21.487      862.369
07/20/2014  19:18:00     -272.547      -19.422      -13.440      131.617      109.472       49.808    17323.036    11984.025     2480.795        5.331        1.589      273.238       51.840        0.036      344.586       21.508      862.368
07/20/2014  19:19:00     -219.339       87.988      -36.510      128.327       93.879       62.253    16467.906     8813.302     3875.381        4.316        1.458      236.329       61.914        0.069      344.574       21.486      862.366
07/20/2014  19:20:00     -177.521       15.348        5.397      161.410      138.379       54.155    26053.054    19148.882     2932.811        3.995        2.407      178.184       48.766        0.075      344.620       21.566      862.366
07/20/2014  19:21:00     -206.005       79.455      -26.606      116.399       90.226       58.595    13548.700     8140.688     3433.345        3.729        1.256      220.796       45.224        0.042      344.599       21.529      862.383
07/20/2014  19:22:00     -197.100      -34.225      -15.648      119.053      113.498       47.642    14173.605    12881.768     2269.744        3.479        1.466      200.049       42.873        0.046      344.651       21.618      862.376
07/20/2014  19:23:00     -266.913      -46.732       -5.424      179.635      105.655       72.791    32268.890    11163.004     5298.596        6.108        2.437      270.973       82.490        0.093      344.621       21.567      862.375
07/20/2014  19:24:00     -191.092      -40.033        4.583      154.813      140.721       70.811    23967.091    19802.497     5014.134        4.345        2.439      195.241       71.598        0.134      344.646       21.610      862.378
07/20/2014  19:25:00     -118.116      -99.026       14.269      170.139      131.042       75.484    28947.210    17171.887     5697.906        3.788        2.591      154.135       87.234        0.320      344.655       21.626      862.393
07/20/2014  19:26:00      -87.345      -56.681       13.269      105.163       97.492       63.801    11059.280     9504.724     4070.563        1.782        1.232      104.124       45.691        0.193      344.660       21.634      862.397
07/20/2014  19:27:00     -136.867     -137.689        5.092      119.924      103.365       58.393    14381.814    10684.348     3409.739        3.309        1.424      194.141       60.988        0.099      344.666       21.645      862.411
07/20/2014  19:28:00     -292.251      -13.312      -13.327      137.846      104.459       65.851    19001.530    10911.707     4336.323        6.000        1.712      292.554       71.262        0.059      344.690       21.684      862.434
07/20/2014  19:29:00     -269.310      -23.705       -1.796      243.255      142.989       63.462    59172.951    20445.785     4027.369        7.835        4.182      270.351       98.332        0.132      344.697       21.696      862.453
07/20/2014  19:30:00     -173.263     -103.280        7.144      164.773      118.783       70.855    27150.007    14109.432     5020.369        4.350        2.314      201.710       63.309        0.099      344.667       21.644      862.445
07/20/2014  19:31:00     -364.083     -130.942       -8.044      218.952      130.046       83.693    47940.178    16911.985     7004.502       11.080        3.593      386.914      100.777        0.068      344.683       21.672      862.436
07/20/2014  19:32:00     -242.729      -25.413      -17.665      125.486      105.301       58.862    15746.623    11088.317     3464.786        4.508        1.515      244.055       53.885        0.049      344.698       21.699      862.463
07/20/2014  19:33:00     -291.414      -49.080       13.207      212.759      122.154       89.443    45266.400    14921.550     8000.084        7.783        3.409      295.518       86.968        0.087      344.700       21.701      862.454
07/20/2014  19:34:00     -213.012     -120.102        5.320      168.624      142.690       79.623    28434.144    20360.397     6339.835        5.747        2.757      244.538       80.517        0.108      344.718       21.732      862.463
07/20/2014  19:35:00     -268.020      -89.728       -7.349      153.970      143.436       72.396    23706.764    20573.947     5241.171        6.472        2.476      282.641       64.757        0.052      344.743       21.774      862.517
07/20/2014  19:36:00     -327.233      -78.957      -19.132      169.094      155.236       72.793    28592.920    24098.307     5298.767        8.582        2.899      336.624       77.148        0.053      344.733       21.758      862.548
07/20/2014  19:37:00     -325.416      -12.147       -6.610      153.626      129.462       52.710    23601.064    16760.316     2778.379        7.460        2.157      325.643       46.932        0.021      344.743       21.774      862.534
07/20/2014  19:38:00     -204.301     -123.715       -5.343      120.540      107.443       63.179    14529.931    11543.910     3991.562        4.356        1.503      238.839       61.656        0.067      344.764       21.810      862.558
07/20/2014  19:39:00      -79.914      -45.447       11.364       70.954       47.364       43.201     5034.519     2243.319     1866.348        0.886        0.457       91.933       38.480        0.175      344.805       21.886      862.592
07/20/2014  19:40:00     -173.090      -70.040      -23.468      107.061       55.072       38.734    11462.077     3032.955     1500.318        2.570        0.800      186.724       38.950        0.044      344.821       21.908      862.610
07/20/2014  19:41:00     -241.215      -42.554       -3.274      151.074      140.109       86.469    22823.382    19630.597     7476.923        5.496        2.497      244.939       84.394        0.119      344.821       21.909      862.611
07/20/2014  19:42:00     -295.004     -219.565       -8.181      184.452      110.009       60.155    34022.515    12101.921     3618.591        9.251        2.487      367.744       54.601        0.022      344.805       21.881      862.603
07/20/2014  19:43:00      -23.952      -48.393       32.573       75.813       74.400       54.457     5747.620     5535.297     2965.582        0.911        0.712       53.996       44.933        0.692      344.857       21.973      862.642
07/20/2014  19:44:00      -56.743      -30.309        4.529      132.974       91.823       39.233    17682.013     8431.488     1539.197        1.590        1.383       64.330       37.248        0.335      344.886       22.022      862.662
07/20/2014  19:45:00     -197.762      -63.023        6.064      157.957      115.167       60.796    24950.393    13263.550     3696.135        4.251        2.096      207.561       62.599        0.091      344.868       21.990      862.729
07/20/2014  19:46:00     -159.558       89.334       -2.533      106.640      145.037       60.755    11372.056    21035.713     3691.208        3.477        1.805      182.864       64.971        0.126      344.816       21.900      862.754
07/20/2014  19:47:00     -288.973       74.956      -20.588      143.909       85.483       45.561    20709.666     7307.268     2075.813        5.981        1.505      298.536       32.803        0.012      344.777       21.832      862.760
07/20/2014  19:48:00        6.712      141.529      -11.837       51.017       96.743       40.619     2602.739     9359.263     1649.882        1.691        0.681      141.688       47.591        0.113      344.848       21.958      862.777
07/20/2014  19:49:00     -151.446       95.238       -7.286       88.180      138.423       54.034     7775.677    19160.892     2919.643        3.095        1.493      178.902       47.181        0.070      344.805       21.882      862.785
07/20/2014  19:50:00     -159.602      195.266      -35.582      101.403      137.184       54.889    10282.603    18819.478     3012.800        4.848        1.606      252.194       74.034        0.086      344.858       21.973      862.850
07/20/2014  19:51:00      -85.728      181.915      -28.732       79.988      104.318       50.718     6398.159    10882.162     2572.326        3.056        0.993      201.103       65.669        0.107      344.860       21.978      862.906
07/20/2014  19:52:00     -271.936      221.463      -54.279      126.850      105.063       58.541    16090.809    11038.153     3427.034        7.824        1.528      350.706       52.216        0.022      344.842       21.942      862.906
07/20/2014  19:53:00      -99.449      310.973      -48.589      142.006      142.185       49.953    20165.766    20216.659     2495.327        7.591        2.144      326.488       30.084        0.008      344.821       21.907      862.892
07/20/2014  19:54:00       39.966      313.450      -34.813       76.742       89.358       52.438     5889.259     7984.937     2749.767        5.884        0.831      315.987       54.456        0.030      344.781       21.839      862.936
07/20/2014  19:55:00       68.630      176.274      -21.112       75.517      124.167       70.897     5702.790    15417.466     5026.399        3.118        1.307      189.163       75.703        0.160      344.754       21.795      862.952
07/20/2014  19:56:00       74.620      194.888      -12.446       93.229      122.427       67.942     8691.738    14988.434     4616.139        3.599        1.415      208.685       66.053        0.100      344.670       21.649      862.952
07/20/2014  19:57:00       75.561      223.935      -15.077       85.047      142.524       71.694     7233.034    20313.076     5140.074        4.438        1.634      236.339       75.834        0.103      344.620       21.565      862.961
07/20/2014  19:58:00      101.690      181.760      -11.542       97.454      106.589       59.554     9497.325    11361.144     3546.700        3.395        1.220      208.273       55.876        0.072      344.583       21.501      862.969
07/20/2014  19:59:00       84.335      163.197       -4.142       89.627      104.922       75.919     8032.920    11008.524     5763.689        2.928        1.240      183.699       66.626        0.132      344.562       21.467      863.002
07/20/2014  20:00:00      112.448      223.430      -11.805      128.463       90.398       63.510    16502.805     8171.756     4033.512        4.570        1.435      250.131       52.230        0.044      344.406       21.199      863.025
07/20/2014  20:01:00      111.887      199.120      -21.903       94.127      110.684       73.195     8859.929    12250.886     5357.459        3.955        1.323      228.402       64.545        0.080      344.338       21.083      863.050
07/20/2014  20:02:00      162.471      136.122       10.432      104.893       85.337       70.395    11002.447     7282.375     4955.466        3.413        1.162      211.958       52.913        0.062      344.315       21.044      863.052
07/20/2014  20:03:00      178.202      131.753       21.784       90.944       66.786       56.001     8270.779     4460.362     3136.122        3.273        0.793      221.618       28.212        0.016      344.225       20.890      863.054
07/20/2014  20:04:00      199.069      135.536       49.276       99.040       62.278       61.059     9808.831     3878.522     3728.164        3.892        0.871      240.829       46.191        0.037      344.210       20.864      863.052
07/20/2014  20:05:00      243.080      170.586       41.618      138.286       97.298       70.431    19122.884     9466.932     4960.485        6.173        1.678      296.964       53.313        0.032      344.020       20.541      863.059
07/20/2014  20:06:00      246.041      148.916       44.724      114.217       83.486       76.444    13045.507     6969.906     5843.724        5.528        1.293      287.597       34.859        0.015      343.925       20.377      863.072
07/20/2014  20:07:00      178.831       76.445       66.147      139.491       90.904       77.423    19457.833     8263.488     5994.316        3.795        1.686      194.485       73.167        0.142      344.025       20.546      863.061
07/20/2014  20:08:00      155.489      126.208       60.551       93.206       63.801       70.174     8687.309     4070.573     4924.449        3.072        0.884      200.263       51.979        0.067      344.001       20.506      863.070
07/20/2014  20:09:00      113.027       62.309       35.051      104.151       82.755       79.681    10847.443     6848.383     6349.025        2.096        1.202      129.064       76.251        0.349      343.974       20.464      863.089
07/20/2014  20:10:00      214.597      150.947       48.440      108.178       78.806       53.830    11702.437     6210.345     2897.723        4.599        1.041      262.368       21.200        0.007      343.773       20.117      863.101
07/20/2014  20:11:00      152.203       59.820       29.956       82.167       63.258       54.258     6751.361     4001.608     2943.904        2.067        0.685      163.537       25.768        0.025      343.763       20.102      863.123
07/20/2014  20:12:00      213.116      142.375       36.453       80.343       75.974       51.952     6454.981     5772.099     2699.057        4.097        0.746      256.299       40.530        0.025      343.685       19.966      863.130
07/20/2014  20:13:00      142.827      121.610       58.885      115.566       62.039       61.695    13355.432     3848.856     3806.295        2.983        1.051      187.586       64.067        0.117      343.712       20.014      863.142
07/20/2014  20:14:00       14.642       76.970       92.240       64.597       58.575       51.804     4172.714     3431.033     2683.640        1.247        0.514       78.350       44.373        0.321      343.815       20.192      863.146
07/20/2014  20:15:00      141.187       85.721       17.555       99.618       73.959       57.780     9923.797     5469.866     3338.514        2.316        0.937      165.172       50.076        0.092      343.607       19.835      863.170
07/20/2014  20:16:00      111.111      113.329       -8.932       79.964       71.492       60.194     6394.183     5111.072     3623.313        2.020        0.756      158.711       45.582        0.082      343.506       19.664      863.202
07/20/2014  20:17:00       91.081       61.868       10.322       76.998       53.924       39.421     5928.731     2907.835     1553.978        1.131        0.520      110.106       30.716        0.078      343.467       19.598      863.250
07/20/2014  20:18:00       61.710      133.149      -10.027       72.100       85.955       55.644     5198.375     7388.183     3096.208        1.866        0.784      146.754       53.585        0.133      343.452       19.570      863.264
07/20/2014  20:19:00       94.458       74.278        4.855       56.833       45.007       44.474     3230.041     2025.627     1977.972        1.085        0.362      120.165       33.139        0.076      343.478       19.617      863.278
07/20/2014  20:20:00      173.660      119.336       30.936       73.960       66.928       59.240     5470.144     4479.319     3509.380        2.940        0.673      210.710       22.522        0.011      343.410       19.500      863.275
07/20/2014  20:21:00      199.030      132.133       30.166       62.028       49.740       40.550     3847.499     2474.105     1644.289        3.297        0.398      238.898       22.798        0.009      343.334       19.370      863.268
07/20/2014  20:22:00       79.521       37.055       38.646       59.560       50.451       43.679     3547.428     2545.289     1907.847        0.859        0.400       87.731       43.862        0.250      343.456       19.580      863.285
07/20/2014  20:23:00       83.107       73.824       65.681       82.644       56.029       45.439     6829.975     3139.236     2064.736        1.435        0.602      111.161       36.037        0.105      343.446       19.562      863.297
07/20/2014  20:24:00      174.082       84.416       35.727       95.943       68.356       45.491     9204.995     4672.510     2069.462        2.732        0.797      193.470       23.886        0.015      343.317       19.340      863.317
07/20/2014  20:25:00      149.903      113.761       11.948       74.928       48.274       33.391     5614.145     2330.398     1114.935        2.231        0.453      188.183       18.621        0.010      343.247       19.223      863.341
07/20/2014  20:26:00       64.245       40.103       21.717       29.230       31.571       25.851      854.405      996.740      668.285        0.436        0.126       75.734       13.907        0.034      343.307       19.328      863.359
07/20/2014  20:27:00       59.455       19.015       15.935       35.868       32.652       21.850     1286.513     1066.125      477.407        0.349        0.142       62.421        9.329        0.022      343.308       19.327      863.382
07/20/2014  20:28:00       80.823       48.667       -2.734       27.439       29.925       22.709      752.884      895.534      515.720        0.554        0.108       94.344       15.850        0.028      343.236       19.208      863.403
07/20/2014  20:29:00       61.983       49.937       11.729       28.191       24.033       25.211      794.744      577.594      635.585        0.424        0.100       79.597       16.426        0.043      343.262       19.249      863.421
07/20/2014  20:30:00       94.022       63.665       27.490       45.663       43.797       34.002     2085.070     1918.169     1156.108        0.940        0.258      113.549       16.568        0.021      343.250       19.230      863.432
07/20/2014  20:31:00       66.622       52.206       17.541       46.826       37.542       35.386     2192.649     1409.376     1252.175        0.616        0.243       84.640       12.530        0.022      343.168       19.091      863.428
07/20/2014  20:32:00        8.587       69.210       73.434       40.290       42.348       38.014     1623.280     1793.374     1445.038        0.756        0.243       69.741       29.753        0.182      343.204       19.151      863.412
07/20/2014  20:33:00       74.698      100.043       88.929       80.934       58.958       54.786     6550.365     3476.086     3001.471        1.826        0.651      124.854       52.350        0.176      343.281       19.280      863.406
07/20/2014  20:34:00       67.050       98.305      100.868       71.108       60.230       47.062     5056.380     3627.698     2214.845        1.761        0.545      118.994       36.346        0.093      343.349       19.397      863.394
07/20/2014  20:35:00      106.842       96.969       51.383       65.959       47.269       53.731     4350.610     2234.317     2887.021        1.646        0.474      144.285       38.712        0.072      343.112       18.993      863.379
07/20/2014  20:36:00      171.898       97.125       41.349       97.944       77.335       58.827     9593.059     5980.649     3460.578        2.986        0.952      197.439       50.061        0.064      343.122       19.008      863.396
07/20/2014  20:37:00      164.403       75.494       53.252       76.283       57.617       65.427     5819.159     3319.738     4280.714        2.449        0.671      180.908       49.601        0.075      343.076       18.930      863.397
07/20/2014  20:38:00      159.668      111.458       81.591       87.943       72.458       59.588     7734.013     5250.104     3550.786        3.055        0.827      194.722       46.997        0.058      343.103       18.976      863.388
07/20/2014  20:39:00      202.233       98.719       49.223       74.206       75.116       66.939     5506.578     5642.347     4480.854        3.435        0.781      225.042       35.442        0.025      343.036       18.861      863.385
07/20/2014  20:40:00      180.064      101.325        2.740       47.796       44.200       40.824     2284.490     1953.631     1666.625        2.430        0.295      206.615       26.930        0.017      342.903       18.636      863.411
07/20/2014  20:41:00      106.427       47.795        8.389       60.498       45.396       31.593     3660.030     2060.833      998.113        1.020        0.336      116.667       13.007        0.012      342.908       18.645      863.448
07/20/2014  20:42:00       68.476       37.304        5.225       34.801       35.345       25.743     1211.103     1249.291      662.723        0.461        0.156       77.978       13.464        0.030      342.864       18.574      863.452
07/20/2014  20:43:00       32.863       61.542       -2.285       25.752       39.198       23.266      663.183     1536.520      541.299        0.381        0.137       69.766       21.142        0.092      342.828       18.511      863.464
07/20/2014  20:44:00       32.629      116.717      -14.653       39.319       48.017       20.947     1545.948     2305.638      438.759        0.960        0.215      121.192       20.349        0.028      342.815       18.487      863.482
07/20/2014  20:45:00       35.652       63.760        1.371       32.773       37.862       25.555     1074.094     1433.535      653.035        0.425        0.158       73.051       17.391        0.057      342.822       18.501      863.478
07/20/2014  20:46:00        7.891       69.989       -9.564       17.028       28.187       13.089      289.961      794.514      171.327        0.315        0.063       70.433       13.721        0.038      342.885       18.608      863.457
07/20/2014  20:47:00       38.057       42.486       -5.812       29.437       25.097       17.895      866.538      629.880      320.235        0.255        0.091       57.039       14.709        0.067      342.883       18.602      863.416
07/20/2014  20:48:00      101.823       75.395       28.745       29.517       22.921       25.480      871.271      525.352      649.225        0.946        0.102      126.697       11.024        0.008      342.956       18.729      863.368
07/20/2014  20:49:00      168.554       91.253       47.497       66.598       47.702       49.609     4435.281     2275.440     2461.024        2.408        0.459      191.670       39.910        0.043      342.974       18.756      863.342
07/20/2014  20:50:00      172.021       81.777       21.465       78.723       47.743       47.856     6197.387     2279.441     2290.181        2.375        0.538      190.469       30.037        0.025      342.981       18.769      863.364
07/20/2014  20:51:00       82.069       46.373       -1.061       56.105       39.810       27.763     3147.748     1584.856      770.776        0.719        0.275       94.264       21.555        0.052      342.881       18.602      863.405
07/20/2014  20:52:00      119.496       65.726       15.992       56.954       28.113       26.692     3243.792      790.328      712.485        1.180        0.237      136.378       16.670        0.015      342.912       18.652      863.432
07/20/2014  20:53:00      125.866       65.063       45.630       55.751       41.960       46.791     3108.125     1760.650     2189.406        1.461        0.353      141.688       34.376        0.059      342.903       18.638      863.458
07/20/2014  20:54:00      144.335       76.248        5.822       53.143       41.877       33.816     2824.229     1753.687     1143.538        1.620        0.286      163.237       23.375        0.021      342.856       18.559      863.476
07/20/2014  20:55:00       81.009       76.610       62.692       49.398       45.274       40.804     2440.147     2049.718     1664.929        1.126        0.308      111.497       29.039        0.068      342.821       18.499      863.477
07/20/2014  20:56:00       46.526       70.297       79.579       49.057       36.658       34.713     2406.602     1343.775     1205.023        0.920        0.248       84.299       24.061        0.081      342.854       18.555      863.466
07/20/2014  20:57:00      129.150       93.197       65.784       64.911       44.632       45.287     4213.383     1992.048     2050.917        1.897        0.413      159.265       37.050        0.054      342.798       18.460      863.446
07/20/2014  20:58:00      150.068      115.386       74.715       56.077       45.325       40.107     3144.596     2054.337     1608.555        2.411        0.340      189.300       24.253        0.016      342.797       18.457      863.450
07/20/2014  20:59:00      137.899      105.801       70.141       72.016       50.797       44.615     5186.259     2580.336     1990.463        2.244        0.488      173.811       32.099        0.034      342.802       18.464      863.453
07/20/2014  21:00:00       79.802       74.538       65.460       60.653       41.173       48.328     3678.791     1695.257     2335.640        1.196        0.385      109.198       41.981        0.148      342.792       18.451      863.459
07/20/2014  21:01:00       70.544      102.048       83.438       43.409       38.673       33.970     1884.374     1495.570     1153.977        1.344        0.227      124.057       27.497        0.049      342.741       18.363      863.450
07/20/2014  21:02:00       97.123       92.904       86.848       80.054       51.904       52.719     6408.608     2693.976     2779.262        1.874        0.594      134.402       44.381        0.109      342.787       18.438      863.441
07/20/2014  21:03:00       93.877      104.983       82.019       63.083       43.313       46.781     3979.436     1875.983     2188.483        1.730        0.402      140.834       42.068        0.089      342.817       18.491      863.437
07/20/2014  21:04:00       18.707       43.664       78.437       42.995       50.793       34.722     1848.543     2579.909     1205.599        0.702        0.282       47.502       34.987        0.542      342.829       18.512      863.449
07/20/2014  21:05:00        3.892        4.593       18.188       18.892       27.955       22.506      356.890      781.481      506.519        0.101        0.082        6.020        9.593        2.539      342.856       18.558      863.468
07/20/2014  21:06:00       70.943       36.481       34.847       48.841       35.746       33.581     2385.447     1277.783     1127.707        0.618        0.240       79.773       28.074        0.124      342.765       18.403      863.488
07/20/2014  21:07:00       33.293       37.743       55.760       42.197       38.687       29.148     1780.564     1496.647      849.612        0.488        0.206       50.329       23.495        0.218      342.841       18.533      863.482
07/20/2014  21:08:00       16.561       17.743       57.849       43.002       60.492       28.239     1849.158     3659.250      797.451        0.512        0.315       24.271       21.956        0.818      342.870       18.583      863.477
07/20/2014  21:09:00       33.049      -20.584       37.056       35.309       48.841       32.526     1246.703     2385.421     1057.953        0.379        0.235       38.935       21.832        0.314      342.844       18.537      863.469
07/20/2014  21:10:00       23.518      -21.699       49.094       34.397       58.406       34.648     1183.188     3411.313     1200.503        0.461        0.290       31.999       37.271        1.357      342.851       18.549      863.477
07/20/2014  21:11:00       51.138      -53.102       12.467       44.774       48.176       38.384     2004.687     2320.886     1473.308        0.569        0.290       73.722       23.352        0.100      342.751       18.380      863.501
07/20/2014  21:12:00       56.707      -60.216       32.191       38.847       38.528       27.474     1509.093     1484.440      754.808        0.581        0.187       82.715       27.410        0.110      342.793       18.450      863.531
07/20/2014  21:13:00       47.689      -28.719       34.575       27.308       59.456       32.180      745.719     3535.059     1035.578        0.480        0.266       55.669       36.205        0.423      342.802       18.466      863.531
07/20/2014  21:14:00        9.496      -18.580       26.558       36.705       59.676       29.578     1347.226     3561.185      874.882        0.346        0.289       20.866       20.744        0.988      342.813       18.484      863.518
07/20/2014  21:15:00       -9.484       12.122       52.527       27.073       44.071       29.684      732.933     1942.259      881.154        0.328        0.178       15.391       25.990        2.851      342.811       18.482      863.484
07/20/2014  21:16:00       15.796       14.719       61.603       34.724       44.233       27.426     1205.750     1956.599      752.159        0.409        0.196       21.591       11.485        0.283      342.841       18.534      863.451
07/20/2014  21:17:00       64.506       27.179       73.342       65.408       80.770       53.732     4278.238     6523.778     2887.111        1.198        0.684       69.998       62.004        0.785      342.777       18.424      863.427
07/20/2014  21:18:00       52.533       17.666       63.562       61.643       53.501       41.308     3799.906     2862.340     1706.310        0.774        0.418       55.424       42.475        0.587      342.740       18.361      863.418
07/20/2014  21:19:00       32.397       50.366       92.532       59.838       77.590       52.405     3580.607     6020.214     2746.242        1.225        0.617       59.886       53.007        0.783      342.679       18.257      863.391
07/20/2014  21:20:00       64.973      -11.550       61.690       67.730       71.816       51.766     4587.353     5157.580     2679.686        1.029        0.621       65.991       45.350        0.472      342.646       18.202      863.361
07/20/2014  21:21:00       82.572      -97.982       -3.482       68.210       71.176       54.264     4652.646     5066.057     2944.533        1.454        0.633      128.135       57.626        0.202      342.596       18.113      863.324
07/20/2014  21:22:00       87.859      -54.750       44.120       73.380      102.937       66.077     5384.579    10596.094     4366.178        1.650        1.017      103.521       77.478        0.560      342.591       18.107      863.278
07/20/2014  21:23:00      160.649     -167.695      -25.964       78.058       94.093       54.757     6093.044     8853.503     2998.360        3.627        0.897      232.228       53.494        0.053      342.613       18.142      863.226
07/20/2014  21:24:00      102.248     -153.460      -31.300       73.241       66.094       42.625     5364.280     4368.382     1816.860        2.326        0.577      184.404       35.851        0.038      342.649       18.205      863.192
07/20/2014  21:25:00       89.711      -96.388       14.832       54.000       63.294       40.814     2915.988     4006.171     1665.817        1.307        0.429      131.676       38.699        0.086      342.676       18.252      863.172
07/20/2014  21:26:00       95.258     -132.979       -0.094       56.003       63.614       41.435     3136.381     4046.717     1716.830        1.783        0.445      163.577       34.940        0.046      342.719       18.324      863.159
07/20/2014  21:27:00       19.776      -99.184       -7.724       47.386       55.718       40.623     2245.452     3104.549     1650.259        0.864        0.350      101.136       15.414        0.023      342.817       18.492      863.152
07/20/2014  21:28:00       -8.716      -64.552        6.753       39.611       59.844       32.908     1569.021     3581.345     1082.941        0.526        0.312       65.138       36.883        0.321      342.820       18.497      863.145
07/20/2014  21:29:00       39.245      -91.064        1.945       60.611       44.655       35.913     3673.746     1994.032     1289.709        0.840        0.348       99.161       28.964        0.085      342.798       18.459      863.133
07/20/2014  21:30:00       18.012      -62.660       -6.361       61.694       50.658       31.839     3806.119     2566.203     1013.717        0.584        0.369       65.198       29.877        0.210      342.852       18.553      863.117
07/20/2014  21:31:00       75.293     -146.549       -4.032      106.645       85.319       45.042    11373.097     7279.291     2028.744        2.392        1.034      164.759       53.972        0.107      342.795       18.452      863.099
07/20/2014  21:32:00       64.073      -97.944        2.816       76.895       82.935       47.509     5912.831     6878.260     2257.117        1.437        0.752      117.040       49.873        0.182      342.741       18.361      863.075
07/20/2014  21:33:00       17.365      -41.001       25.897       50.558       66.028       37.234     2556.113     4359.738     1386.355        0.548        0.415       44.527       36.216        0.662      342.781       18.430      863.048
07/20/2014  21:34:00       59.141      -48.528       13.749       62.659       81.631       54.248     3926.166     6663.647     2942.881        0.978        0.677       76.502       59.935        0.614      342.799       18.460      863.025
07/20/2014  21:35:00       58.543      -57.332       17.923       69.512       97.956       41.904     4831.904     9595.402     1755.981        1.161        0.809       81.940       49.419        0.364      342.903       18.638      863.008
07/20/2014  21:36:00       88.684     -142.624       22.905       78.580      126.736       51.269     6174.754    16061.999     2628.489        2.679        1.243      167.948       68.305        0.165      342.664       18.229      862.993
07/20/2014  21:37:00       97.971     -140.820       10.945       91.697      106.468       52.059     8408.429    11335.486     2710.158        2.600        1.123      171.548       65.285        0.145      342.668       18.236      863.001
07/20/2014  21:38:00      -43.645      -43.010       24.497       82.259       55.080       47.464     6766.518     3033.792     2252.862        0.820        0.603       61.276       37.873        0.382      342.657       18.219      863.002
07/20/2014  21:39:00      -72.923       60.207       -3.136       70.485       50.599       35.307     4968.087     2560.257     1246.594        0.886        0.439       94.565       35.969        0.145      342.621       18.157      863.009
07/20/2014  21:40:00      -45.676      -17.519      -13.844       46.566       42.915       27.811     2168.372     1841.660      773.443        0.368        0.239       48.921       22.558        0.213      342.622       18.161      863.022
07/20/2014  21:41:00      -55.068      -25.867       10.613       66.737       35.258       26.290     4453.771     1243.135      691.189        0.510        0.319       60.841       31.318        0.265      342.661       18.226      863.047
07/20/2014  21:42:00     -110.302      -57.531        1.917       78.473       55.355       34.299     6157.974     3064.219     1176.390        1.294        0.520      124.404       38.167        0.094      342.632       18.176      863.088
07/20/2014  21:43:00     -193.638      -37.730       -8.429       71.651       58.442       40.428     5133.853     3415.474     1634.403        2.458        0.509      197.279       38.618        0.038      342.648       18.202      863.123
07/20/2014  21:44:00     -229.136      -32.511      -21.575       66.733       68.279       45.487     4453.276     4662.061     2069.041        3.260        0.559      231.431       41.061        0.031      342.633       18.175      863.147
07/20/2014  21:45:00     -211.202      -44.170        0.498       79.445       69.222       41.545     6311.533     4791.713     1726.008        2.969        0.641      215.771       40.947        0.036      342.572       18.073      863.153
07/20/2014  21:46:00     -212.432      -92.264      -15.622       61.593       58.802       38.291     3793.701     3457.700     1466.173        3.130        0.436      231.603       36.245        0.024      342.577       18.081      863.162
07/20/2014  21:47:00     -125.650      -26.417        3.564       56.704       51.105       28.983     3215.289     2611.698      839.997        1.158        0.333      128.396       20.804        0.026      342.603       18.127      863.165
07/20/2014  21:48:00     -127.008      -45.892        6.092       55.473       63.215       33.399     3077.253     3996.181     1115.488        1.323        0.409      135.045       28.708        0.045      342.570       18.071      863.159
07/20/2014  21:49:00     -159.968      -40.280       -2.944       69.407       57.364       41.764     4817.379     3290.665     1744.245        1.853        0.493      164.961       38.457        0.054      342.568       18.067      863.154
07/20/2014  21:50:00     -111.720      -46.136       -7.017       68.538       55.403       25.557     4697.416     3069.509      653.158        1.154        0.421      120.871       25.803        0.046      342.575       18.079      863.139
07/20/2014  21:51:00     -144.215      -41.317       -7.815       41.416       48.858       19.543     1715.256     2387.147      381.948        1.352        0.224      150.017       14.753        0.010      342.634       18.180      863.152
07/20/2014  21:52:00     -139.014      -61.979        2.785       60.274       50.476       25.784     3632.989     2547.849      664.799        1.501        0.342      152.205       22.915        0.023      342.606       18.132      863.169
07/20/2014  21:53:00      -56.884       -7.128        4.665       35.873       46.136       19.023     1286.859     2128.541      361.856        0.354        0.189       57.329       18.330        0.102      342.596       18.117      863.178
07/20/2014  21:54:00      -75.764       49.034       -6.152       39.031       25.678       20.672     1523.416      659.360      427.333        0.540        0.131       90.247       19.512        0.047      342.539       18.018      863.193
07/20/2014  21:55:00      -54.992       18.785        5.667       31.040       23.404       15.498      963.462      547.760      240.187        0.258        0.088       58.112       13.244        0.052      342.564       18.061      863.207
07/20/2014  21:56:00      -51.831        7.881       -1.423       32.497       29.554       19.360     1056.084      873.443      374.814        0.253        0.115       52.427       14.243        0.074      342.573       18.076      863.216
07/20/2014  21:57:00      -46.127       37.529       -1.705       40.543       20.925       13.487     1643.745      437.873      181.893        0.290        0.113       59.466       13.418        0.051      342.573       18.076      863.234
07/20/2014  21:58:00        5.569      124.906      -23.588       17.332       19.642       12.057      300.415      385.820      145.373        0.851        0.042      125.030        6.454        0.003      342.552       18.043      863.261
07/20/2014  21:59:00        9.850       99.302      -16.230       16.427       21.846       12.648      269.845      477.233      159.964        0.556        0.045       99.789        9.133        0.008      342.554       18.045      863.290
07/20/2014  22:00:00      -21.601       72.371      -12.088       23.010       27.123       10.527      529.443      735.641      110.818        0.361        0.069       75.526       12.169        0.026      342.589       18.105      863.315
07/20/2014  22:01:00     -101.847      -14.984       -6.846       49.562       45.613       24.737     2456.408     2080.576      611.908        0.790        0.257      102.944       23.688        0.053      342.640       18.190      863.345
07/20/2014  22:02:00     -217.446       24.064      -24.482       26.636       22.799       17.416      709.455      519.772      303.332        2.500        0.077      218.773       13.829        0.004      342.584       18.094      863.377
07/20/2014  22:03:00     -114.622        1.559       -2.285       47.914       27.580       18.802     2295.788      760.676      353.504        0.828        0.170      114.633       14.916        0.017      342.569       18.071      863.404
07/20/2014  22:04:00      -89.372       -3.515      -14.435       37.965       49.929       18.618     1441.337     2492.875      346.625        0.624        0.214       89.441       11.791        0.017      342.585       18.099      863.434
07/20/2014  22:05:00      -80.248       80.349      -19.777       37.464       29.954       22.021     1403.581      897.256      484.940        0.804        0.139      113.559       26.721        0.055      342.611       18.143      863.460
07/20/2014  22:06:00      -78.813       94.187      -14.891       29.704       31.766       20.485      882.331     1009.087      419.651        0.881        0.116      122.811       21.419        0.030      342.613       18.144      863.475
07/20/2014  22:07:00      -69.355       96.674      -15.343       21.607       26.827       16.676      466.872      719.701      278.093        0.793        0.073      118.979       13.574        0.013      342.632       18.176      863.487
07/20/2014  22:08:00      -37.203       67.798       -4.914       20.023       36.866       18.635      400.916     1359.073      347.273        0.406        0.105       77.334       17.333        0.050      342.594       18.114      863.488
07/20/2014  22:09:00      -41.971       71.618      -15.301       21.782       29.660       15.468      474.466      879.738      239.259        0.436        0.080       83.011       16.774        0.041      342.615       18.148      863.489
07/20/2014  22:10:00        8.307       41.294        8.376       27.228       20.013       13.099      741.337      400.528      171.576        0.158        0.066       42.121        8.848        0.044      342.652       18.212      863.481
07/20/2014  22:11:00       19.766       50.967       -5.055       21.745       31.035       18.505      472.852      963.176      342.449        0.240        0.089       54.666       14.212        0.068      342.605       18.132      863.489
07/20/2014  22:12:00       44.287       35.380        3.156       33.269       21.746       20.347     1106.796      472.898      414.003        0.261        0.100       56.684       13.787        0.059      342.536       18.015      863.493
07/20/2014  22:13:00       91.660       54.811        8.564       39.429       33.729       30.328     1554.655     1137.637      919.806        0.754        0.181      106.798       14.839        0.019      342.497       17.945      863.489
07/20/2014  22:14:00       63.652       33.742        1.797       31.782       27.386       22.752     1010.071      749.992      517.634        0.374        0.114       72.042       18.673        0.067      342.526       17.997      863.485
07/20/2014  22:15:00       59.601       48.249        6.160       28.904       26.383       20.712      835.461      696.037      428.972        0.394        0.098       76.683       13.526        0.031      342.541       18.023      863.485
07/20/2014  22:16:00       62.610       25.775        0.424       24.922       22.332       17.720      621.112      498.712      314.005        0.301        0.072       67.708       11.090        0.027      342.510       17.969      863.478
07/20/2014  22:17:00       70.638       41.608       -2.672       25.326       24.492       19.566      641.396      599.873      382.832        0.418        0.081       81.982       16.297        0.040      342.507       17.965      863.461
07/20/2014  22:18:00      107.131       78.960        1.645       24.859       21.608       21.647      617.979      466.894      468.593        0.963        0.078      133.086        6.192        0.002      342.553       18.044      863.437
07/20/2014  22:19:00       73.604       39.424       27.757       46.061       30.426       28.622     2121.619      925.770      819.212        0.580        0.193       83.497       27.186        0.106      342.603       18.129      863.408
07/20/2014  22:20:00       64.729       58.702        1.418       36.142       31.988       23.156     1306.275     1023.255      536.218        0.525        0.143       87.383       13.628        0.024      342.571       18.074      863.404
07/20/2014  22:21:00       66.939       40.132       10.331       44.889       27.087       21.700     2015.030      733.691      470.906        0.471        0.161       78.048       17.427        0.050      342.549       18.035      863.404
07/20/2014  22:22:00       91.042       64.626       28.284       34.409       32.999       30.553     1184.005     1088.940      933.475        0.824        0.160      111.648       22.542        0.041      342.503       17.960      863.412
07/20/2014  22:23:00       84.355       62.019       16.028       33.416       26.939       26.879     1116.637      725.697      722.473        0.689        0.128      104.700       14.221        0.018      342.507       17.967      863.419
07/20/2014  22:24:00      104.886       81.743        9.455       43.528       31.578       29.622     1894.697      997.184      877.465        1.077        0.188      132.978       20.610        0.024      342.478       17.914      863.425
07/20/2014  22:25:00      109.519       70.591        3.416       37.792       36.013       28.464     1428.246     1296.925      810.207        1.026        0.177      130.298       20.567        0.025      342.475       17.909      863.408
07/20/2014  22:26:00      116.452       64.922       26.946       47.770       36.781       27.492     2281.957     1352.821      755.791        1.145        0.220      133.326       21.929        0.027      342.522       17.990      863.391
07/20/2014  22:27:00      131.478       76.669        9.055       37.588       28.955       28.862     1412.852      838.397      833.042        1.316        0.154      152.200       24.354        0.026      342.505       17.961      863.361
07/20/2014  22:28:00       92.418       55.742       18.712       49.704       39.304       41.306     2470.475     1544.770     1706.203        0.886        0.286      107.927       27.471        0.065      342.659       18.223      863.341
07/20/2014  22:29:00      127.456       71.699        6.288       28.631       29.538       25.491      819.758      872.475      649.769        1.188        0.117      146.239        9.366        0.004      342.571       18.074      863.328
07/20/2014  22:30:00      118.570       74.547       30.104       29.396       27.231       33.508      864.141      741.539     1122.763        1.162        0.136      140.057       20.260        0.021      342.540       18.022      863.324
07/20/2014  22:31:00       99.563       89.096       59.405       65.925       31.366       41.090     4346.098      983.846     1688.354        1.420        0.351      133.608       45.073        0.114      342.583       18.094      863.332
07/20/2014  22:32:00      149.004       83.715       27.739       43.111       38.772       41.568     1858.521     1503.277     1727.861        1.753        0.254      170.911       24.128        0.020      342.521       17.988      863.344
07/20/2014  22:33:00      130.758       59.528        7.697       54.544       49.837       30.741     2975.026     2483.773      945.014        1.355        0.320      143.670       18.593        0.017      342.469       17.900      863.357
07/20/2014  22:34:00      126.041       68.935       36.582       50.961       41.291       46.772     2596.974     1704.927     2187.655        1.423        0.324      143.661       33.144        0.053      342.560       18.053      863.367
07/20/2014  22:35:00      164.822       85.894       41.788       49.836       34.764       36.974     2483.620     1208.553     1367.074        2.067        0.253      185.860       29.161        0.025      342.444       17.858      863.380
07/20/2014  22:36:00      164.424       74.867       35.594       61.391       46.981       52.134     3768.854     2207.226     2718.003        2.130        0.435      180.666       36.751        0.041      342.461       17.885      863.379
07/20/2014  22:37:00      171.769       83.513       36.572       66.871       49.514       51.377     4471.699     2451.627     2639.566        2.369        0.478      190.995       24.395        0.016      342.521       17.986      863.373
07/20/2014  22:38:00      129.279       98.925       67.907       69.584       54.449       52.655     4841.912     2964.747     2772.581        2.084        0.529      162.786       25.610        0.025      342.526       17.996      863.375
07/20/2014  22:39:00      138.999      115.739       76.675       55.746       53.789       49.096     3107.584     2893.264     2410.417        2.350        0.421      180.876       37.382        0.043      342.555       18.044      863.371
07/20/2014  22:40:00       51.692       76.085       99.591       61.297       53.482       32.444     3757.373     2860.354     1052.623        1.302        0.384       91.984       30.552        0.110      342.605       18.133      863.360
07/20/2014  22:41:00       54.626       61.331       91.280       72.423       57.508       41.108     5245.156     3307.132     1689.901        1.266        0.512       82.131       34.990        0.182      342.780       18.429      863.364
07/20/2014  22:42:00       10.425        9.361       75.514       26.923       78.243       40.716      724.869     6122.035     1657.833        0.720        0.425       14.011       44.117        9.914      342.853       18.553      863.364
07/20/2014  22:43:00       68.758      -63.136       45.108       57.330       68.520       44.160     3286.714     4695.015     1950.137        1.034        0.497       93.348       42.826        0.210      342.694       18.283      863.355
07/20/2014  22:44:00       18.801       29.878       71.023       43.821       83.186       35.302     1920.318     6919.874     1246.245        0.819        0.504       35.301       40.320        1.305      342.674       18.248      863.355
07/20/2014  22:45:00       31.400       -9.841       33.825       33.834       42.358       27.165     1144.738     1794.176      737.916        0.295        0.184       32.906       22.276        0.458      342.636       18.183      863.357
07/20/2014  22:46:00       47.663      -67.068       17.249       39.760       39.757       31.501     1580.826     1580.607      992.283        0.561        0.208       82.279       32.704        0.158      342.638       18.187      863.364
07/20/2014  22:47:00       13.594        8.099       24.782       37.728       43.686       27.051     1423.435     1908.497      731.732        0.246        0.203       15.824       20.816        1.731      342.753       18.383      863.382
07/20/2014  22:48:00       28.031       32.402       31.765       27.906       31.452       21.880      778.736      989.200      478.732        0.255        0.112       42.844       13.409        0.098      342.680       18.259      863.390
07/20/2014  22:49:00       21.142      -12.865       -1.533       19.123       20.599       14.479      365.676      424.330      209.650        0.081        0.050       24.749       12.371        0.250      342.667       18.238      863.401
07/20/2014  22:50:00       27.873       31.521       -2.017       24.958       28.945       15.790      622.921      837.826      249.308        0.174        0.086       42.077       14.618        0.121      342.563       18.060      863.407
07/20/2014  22:51:00       46.976       60.137       -0.398       34.028       34.462       26.530     1157.896     1187.601      703.851        0.444        0.152       76.310       22.214        0.085      342.527       18.000      863.414
07/20/2014  22:52:00       -9.595      144.697      -16.956       18.348       20.150        8.725      336.659      406.004       76.132        1.107        0.041      145.015        6.189        0.002      342.518       17.984      863.417
07/20/2014  22:53:00      -15.543      106.175      -12.997       20.340       26.917       16.329      413.703      724.529      266.651        0.654        0.070      107.307       14.563        0.018      342.568       18.069      863.429
07/20/2014  22:54:00       14.843       84.253       -5.605       20.911       38.478       19.037      437.277     1480.558      362.416        0.481        0.114       85.551       19.895        0.054      342.564       18.062      863.429
07/20/2014  22:55:00       12.295       98.281      -20.258       18.071       18.247        9.325      326.545      332.936       86.948        0.548        0.037       99.047        8.000        0.007      342.547       18.034      863.436
07/20/2014  22:56:00      -24.944       56.409       -7.093       20.899       40.035       17.123      436.778     1602.808      293.195        0.309        0.117       61.678       19.694        0.102      342.646       18.201      863.440
07/20/2014  22:57:00      -33.461       69.934       -6.509       20.509       33.589       14.669      420.616     1128.214      215.186        0.391        0.088       77.527       13.802        0.032      342.634       18.181      863.445
07/20/2014  22:58:00      -31.591       58.414       -8.579       17.988       28.002       14.973      323.555      784.087      224.176        0.291        0.067       66.409       13.854        0.044      342.634       18.181      863.448
07/20/2014  22:59:00      -10.812       67.735      -11.622       14.508       28.505       12.828      210.484      812.561      164.565        0.301        0.059       68.592       13.241        0.037      342.605       18.129      863.437
07/20/2014  23:00:00       -4.276       92.327       -9.423       15.127       16.967       13.828      228.829      287.878      191.211        0.467        0.035       92.426        5.997        0.004      342.667       18.238      863.424
07/20/2014  23:01:00       -3.765      118.110      -12.853       16.313       13.643       10.287      266.117      186.141      105.831        0.734        0.028      118.170        7.351        0.004      342.616       18.153      863.418
07/20/2014  23:02:00        0.046       79.004       -6.672       13.198       18.723        7.531      174.190      350.550       56.721        0.343        0.029       79.004        4.373        0.003      342.608       18.138      863.417
07/20/2014  23:03:00       -5.759       79.168      -14.850        9.057       10.152        7.703       82.022      103.072       59.337        0.338        0.012       79.377        1.682        0.000      342.595       18.119      863.421
07/20/2014  23:04:00        7.042       96.430      -13.525       13.241       15.926        9.827      175.334      253.630       96.577        0.503        0.026       96.687        8.755        0.008      342.602       18.126      863.417
07/20/2014  23:05:00       -3.684      104.386      -15.967       10.432       17.233        6.544      108.821      296.985       42.823        0.581        0.022      104.451        4.660        0.002      342.602       18.130      863.409
07/20/2014  23:06:00       10.422      123.043      -18.534       14.350       16.032        9.782      205.919      257.019       95.683        0.808        0.028      123.483        4.485        0.001      342.583       18.098      863.401
07/20/2014  23:07:00        5.366      111.346      -16.567       11.307       14.842        7.200      127.841      220.292       51.836        0.655        0.020      111.475        4.390        0.002      342.598       18.124      863.400
07/20/2014  23:08:00       -4.711      110.851      -15.805       10.710       24.648       10.048      114.695      607.502      100.954        0.669        0.041      110.951       11.078        0.010      342.638       18.186      863.397
07/20/2014  23:09:00      -10.161       78.779       -3.248       25.788       18.839       14.422      665.039      354.920      207.993        0.377        0.061       79.431        9.429        0.014      342.675       18.249      863.393
07/20/2014  23:10:00       -5.791       53.904       -1.178       11.286       16.429       17.273      127.377      269.922      298.345        0.182        0.035       54.214        9.449        0.030      342.682       18.262      863.385
07/20/2014  23:11:00        1.642       45.163        2.455       12.233       17.176       15.606      149.654      295.031      243.546        0.137        0.034       45.193       13.585        0.090      342.663       18.230      863.361
07/20/2014  23:12:00       18.133       63.809      -10.037       16.073       15.433       10.800      258.343      238.170      116.642        0.256        0.031       66.335        7.027        0.011      342.668       18.237      863.341
07/20/2014  23:13:00       15.048       48.614        8.414       23.427       24.441       20.723      548.811      597.359      429.431        0.212        0.079       50.890       19.154        0.142      342.632       18.175      863.332
07/20/2014  23:14:00       -7.388       38.839        9.288       15.293       24.702       16.497      233.873      610.177      272.156        0.138        0.056       39.535       13.750        0.121      342.686       18.269      863.332
07/20/2014  23:15:00        1.214       15.278        0.055        8.528       17.365       10.606       72.731      301.558      112.480        0.036        0.024       15.326       10.207        0.444      342.625       18.164      863.331
07/20/2014  23:16:00       10.504       25.889       -3.933       15.425       12.164        8.005      237.932      147.962       64.087        0.062        0.022       27.939        6.390        0.052      342.593       18.114      863.335
07/20/2014  23:17:00       -2.584       21.822       -5.569       11.092       25.797        7.373      123.030      665.471       54.366        0.068        0.042       21.975       12.211        0.309      342.583       18.098      863.341
07/20/2014  23:18:00      -71.265      -28.837       -4.378       17.830       17.491        7.786      317.922      305.932       60.616        0.331        0.034       76.878        7.222        0.009      342.715       18.318      863.354
07/20/2014  23:19:00      -82.078      -49.729       -4.077       29.575       20.977       16.164      874.702      440.028      261.276        0.540        0.079       95.968       15.495        0.026      342.682       18.262      863.361
07/20/2014  23:20:00      -80.917      -71.457       -1.976       45.849       35.333       21.524     2102.176     1248.406      463.271        0.773        0.191      107.952       16.656        0.024      342.631       18.174      863.367
07/20/2014  23:21:00     -104.870      -47.260       -7.824       20.256       32.026       15.507      410.321     1025.664      240.456        0.748        0.084      115.027        7.247        0.004      342.607       18.136      863.365
07/20/2014  23:22:00     -111.908      -48.175       -1.335       36.315       30.930       14.681     1318.799      956.650      215.522        0.867        0.125      121.837        8.973        0.005      342.621       18.160      863.365
07/20/2014  23:23:00     -118.679      -50.398       -1.745       31.282       26.987       16.821      978.593      728.290      282.960        0.931        0.099      128.937       13.181        0.010      342.579       18.089      863.358
07/20/2014  23:24:00      -81.090      -48.150        3.971       27.192       25.738       16.332      739.414      662.439      266.735        0.529        0.083       94.308       13.689        0.021      342.578       18.085      863.351
07/20/2014  23:25:00      -81.144      -14.501       -7.821       29.976       15.685       12.622      898.571      246.032      159.315        0.408        0.065       82.430       14.845        0.032      342.606       18.136      863.358
07/20/2014  23:26:00      -74.472      -27.417      -13.000       17.392       21.831       13.857      302.482      476.595      192.018        0.372        0.049       79.358       11.666        0.022      342.638       18.190      863.353
07/20/2014  23:27:00      -35.298      -21.095       -7.393       26.929       14.253       10.972      725.184      203.137      120.375        0.140        0.052       41.121        5.602        0.019      342.644       18.198      863.341
07/20/2014  23:28:00      -11.150        0.168       10.126       30.801       14.901       15.173      948.720      222.040      230.207        0.081        0.070       11.151       18.044        2.618      342.667       18.235      863.332
07/20/2014  23:29:00      -72.587        5.880       -7.396        9.343        9.448        9.128       87.290       89.271       83.328        0.281        0.013       72.825        5.116        0.005      342.598       18.121      863.331
07/20/2014  23:30:00      -61.333        2.550       -3.762       12.573        9.439        8.451      158.089       89.099       71.416        0.205        0.016       61.386        6.719        0.012      342.657       18.219      863.335
07/20/2014  23:31:00      -45.785       -5.089       -0.439       12.456       10.732        7.041      155.153      115.177       49.571        0.122        0.016       46.067        4.966        0.012      342.705       18.301      863.330
07/20/2014  23:32:00      -49.434       -1.715       -4.144       11.217        8.619        7.914      125.819       74.293       62.630        0.136        0.013       49.463        4.457        0.008      342.716       18.321      863.326
07/20/2014  23:33:00      -45.976       14.786       -2.646       13.309       12.391       13.054      177.130      153.537      170.419        0.142        0.025       48.295        5.761        0.014      342.662       18.228      863.327
07/20/2014  23:34:00      -42.227       10.850       -7.405        9.767        5.607        6.396       95.394       31.441       40.904        0.106        0.008       43.598        2.588        0.004      342.656       18.217      863.325
07/20/2014  23:35:00      -62.336        9.205       -7.259       21.184       13.091       12.231      448.781      171.375      149.601        0.240        0.038       63.012        6.397        0.010      342.671       18.244      863.340
07/20/2014  23:36:00      -54.435        5.291       -4.130       15.916       18.104       15.642      253.303      327.740      244.674        0.192        0.041       54.691       16.835        0.095      342.673       18.246      863.349
07/20/2014  23:37:00      -65.277       -7.378       -8.504       12.481       21.323        9.071      155.765      454.657       82.287        0.254        0.035       65.693        7.972        0.015      342.667       18.235      863.341
07/20/2014  23:38:00      -91.707      -32.347       -1.686       28.876       23.723       10.720      833.824      562.776      114.911        0.549        0.076       97.245       11.117        0.013      342.712       18.313      863.324
07/20/2014  23:39:00      -80.496      -38.653        1.569       38.195       23.374       18.711     1458.833      546.345      350.090        0.517        0.118       89.295       20.091        0.051      342.678       18.254      863.309
07/20/2014  23:40:00      -70.819      -23.129       -2.931       19.901       19.292       12.970      396.054      372.194      168.221        0.325        0.047       74.500        3.498        0.002      342.654       18.214      863.306
07/20/2014  23:41:00      -91.158      -42.760       -5.405       19.937       25.079       11.292      397.498      628.939      127.506        0.566        0.058      100.689        6.263        0.004      342.680       18.259      863.303
07/20/2014  23:42:00     -107.253      -22.905      -12.233       34.730       16.279       16.237     1206.183      265.001      263.629        0.696        0.087      109.672       11.491        0.011      342.667       18.240      863.296
07/20/2014  23:43:00      -97.184      -47.165       -5.651       22.848       24.203       13.351      522.020      585.769      178.261        0.649        0.064      108.024        8.948        0.007      342.660       18.226      863.295
07/20/2014  23:44:00     -103.788      -31.056        0.214       54.064       27.077       17.300     2922.863      733.156      299.278        0.785        0.198      108.335       24.370        0.051      342.627       18.170      863.295
07/20/2014  23:45:00     -143.007      -51.603       -5.017       29.212       22.795       17.048      853.351      519.600      290.638        1.240        0.083      152.032       10.543        0.005      342.605       18.130      863.302
07/20/2014  23:46:00     -137.659      -72.854       -3.402       34.044       24.911       21.075     1159.022      620.565      444.148        1.325        0.111      155.749       19.185        0.015      342.591       18.108      863.298
07/20/2014  23:47:00     -150.456      -44.975       -0.624       38.608       25.617       18.762     1490.600      656.221      352.012        1.358        0.125      157.034       20.075        0.016      342.590       18.107      863.288
07/20/2014  23:48:00     -157.061      -75.621       -0.405       33.179       30.812       18.817     1100.833      949.397      354.072        1.640        0.120      174.318       15.022        0.007      342.595       18.115      863.280
07/20/2014  23:49:00     -179.116      -61.576       -5.791       40.973       32.592       21.957     1678.789     1062.251      482.096        1.956        0.161      189.404       19.334        0.010      342.591       18.106      863.275
07/20/2014  23:50:00     -166.149      -64.496        0.620       41.579       37.318       22.040     1728.828     1392.632      485.740        1.769        0.180      178.228       16.596        0.009      342.591       18.109      863.282
07/20/2014  23:51:00     -159.399      -43.089        1.419       52.624       34.237       25.742     2769.321     1172.196      662.641        1.593        0.230      165.120       28.021        0.029      342.581       18.089      863.274
07/20/2014  23:52:00     -133.273      -24.095        5.610       48.489       38.997       27.052     2351.157     1520.775      731.792        1.149        0.230      135.433       22.852        0.028      342.569       18.071      863.259
07/20/2014  23:53:00     -120.540      -27.618       -1.554       48.722       43.696       24.790     2373.819     1909.317      614.567        1.010        0.245      123.663       20.414        0.027      342.573       18.077      863.243
07/20/2014  23:54:00     -117.836      -21.865        0.938       51.304       50.492       29.232     2632.063     2549.439      854.481        1.020        0.302      119.847       28.830        0.058      342.584       18.096      863.230
07/20/2014  23:55:00     -116.205      -12.721        8.491       55.751       49.187       29.764     3108.122     2419.392      885.879        1.007        0.321      116.899       28.358        0.059      342.574       18.080      863.238
07/20/2014  23:56:00     -108.013      -10.767        0.940       53.560       38.176       28.648     2868.660     1457.404      820.687        0.846        0.257      108.548       31.395        0.084      342.583       18.096      863.225
07/20/2014  23:57:00      -89.909      -17.355        3.630       56.365       35.386       26.614     3177.033     1252.155      708.300        0.677        0.257       91.568       28.640        0.098      342.572       18.075      863.211
07/20/2014  23:58:00     -120.903      -22.980        1.589       45.518       33.172       24.292     2071.934     1100.391      590.122        0.945        0.188      123.067       24.037        0.038      342.580       18.089      863.209
07/20/2014  23:59:00      -58.110       -5.788       13.497       41.773       35.305       21.928     1745.024     1246.451      480.851        0.353        0.174       58.397       19.950        0.117      342.569       18.071      863.199
